[[[{"header":{"parameterUnit":"kt","parameterCategory":2,"dx":1,"dy":1,"la1":29.587661999999998,"la2":31.0,"lo1":-88.76705300000003,"lo2":-86.6583820000003,"nx":115,"ny":88,"refTime":"2022-10-10T12:00:00:Z","depth":0,"parameterNumber":1,"parameterNumberName":"U-component_of_WINDS"},"data":[15.5925,15.5925,15.5925,15.5925,15.5925,15.5925,15.5925,15.611,15.7109,15.7845,15.8568,16.0476,16.0989,15.9859,16.124,16.1371,16.0109,15.9452,15.8819,15.7911,15.6583,15.6057,15.5925,15.5925,15.5925,15.5925,15.5925,15.5925,15.5925,15.5925,15.5925,15.5925,15.5925,15.5925,15.5925,15.5925,15.5925,15.5925,15.5925,15.5925,15.5925,15.5925,15.5925,15.5925,15.5925,15.5925,15.5925,15.5925,15.5925,15.5925,15.5925,15.5925,15.5925,15.5925,15.5925,15.5925,15.5925,15.5925,15.5925,15.5925,15.7479,15.9702,16.0425,16.1399,16.324,16.4423,16.4449,16.4539,16.4539,16.4539,16.4552,16.4617,16.4681,16.5452,16.5997,16.6697,16.7401,16.8125,16.8731,16.8986,16.9358,16.9647,16.9592,16.9124,16.8782,16.9304,16.9302,16.8991,16.9071,16.9071,16.915,16.915,16.915,16.915,16.915,16.915,16.915,16.915,16.915,16.915,16.915,16.915,16.915,16.915,16.915,16.915,16.915,16.915,16.915,16.915,16.915,16.915,16.915,16.915,16.915,15.5925,15.5925,15.5925,15.5925,15.5925,15.5925,15.5925,15.5913,15.611,15.6846,15.7989,15.8437,15.8515,15.8832,15.9727,16.0043,15.9912,15.9082,15.8556,15.7648,15.6517,15.6057,15.5925,15.5925,15.5925,15.5925,15.5925,15.5925,15.5925,15.5925,15.5925,15.5925,15.5925,15.5925,15.5925,15.5925,15.5925,15.5925,15.5925,15.5925,15.5925,15.5925,15.5925,15.5925,15.5925,15.5925,15.5925,15.5925,15.5925,15.5925,15.5925,15.5925,15.5925,15.5925,15.5925,15.5925,15.5925,15.5925,15.5925,15.5925,15.761,15.9242,15.9899,16.128,16.3515,16.4423,16.4423,16.4449,16.4449,16.4449,16.4449,16.4475,16.4475,16.4812,16.5274,16.5874,16.6536,16.7253,16.7689,16.8013,16.8656,16.9389,16.9166,16.8651,16.888,16.9563,16.9637,16.9239,16.8991,16.9071,16.915,16.915,16.915,16.915,16.915,16.915,16.915,16.915,16.915,16.915,16.915,16.915,16.915,16.915,16.915,16.915,16.915,16.915,16.915,16.915,16.915,16.915,16.915,16.915,16.915,15.5925,15.5925,15.5925,15.5925,15.5925,15.5925,15.5925,15.5925,15.5925,15.6254,15.678,15.6846,15.6858,15.7056,15.8359,15.8885,15.8819,15.8252,15.7989,15.7516,15.6715,15.6057,15.5925,15.5925,15.5925,15.5925,15.5925,15.5925,15.5925,15.5925,15.5925,15.5925,15.5925,15.5925,15.5925,15.5925,15.5925,15.5925,15.5925,15.5925,15.5925,15.5925,15.5925,15.5925,15.5925,15.5925,15.5925,15.5925,15.5925,15.5925,15.5925,15.5925,15.5925,15.5925,15.5925,15.5925,15.5925,15.5925,15.5925,15.6123,15.69,15.8478,15.9464,16.0832,16.3055,16.416,16.4226,16.4423,16.4423,16.4423,16.4423,16.4423,16.4423,16.4423,16.485,16.5222,16.5807,16.6465,16.6889,16.7412,16.838,16.9176,16.9941,16.9497,17.0006,17.0698,17.0439,17.0116,16.9398,16.915,16.915,16.915,16.915,16.915,16.915,16.915,16.915,16.915,16.915,16.915,16.915,16.915,16.915,16.915,16.915,16.915,16.915,16.915,16.915,16.915,16.915,16.915,16.915,16.915,16.915,15.5925,15.5925,15.5925,15.5925,15.5925,15.5925,15.5925,15.5925,15.5925,15.5913,15.5925,15.5925,15.5991,15.6123,15.7175,15.7504,15.7504,15.7241,15.7529,15.699,15.6452,15.5925,15.5925,15.5925,15.5925,15.5925,15.5925,15.5925,15.5925,15.5925,15.5925,15.5925,15.5925,15.5925,15.5925,15.5925,15.5925,15.5925,15.5925,15.5925,15.5925,15.5925,15.5925,15.5925,15.5925,15.5925,15.5925,15.5925,15.5925,15.5925,15.5925,15.5925,15.5925,15.5925,15.5925,15.5925,15.5925,15.5925,15.5925,15.6057,15.678,15.803,15.9411,16.0779,16.2082,16.3252,16.3963,16.4291,16.4423,16.4423,16.4423,16.4423,16.4423,16.4423,16.4488,16.4837,16.5133,16.5701,16.623,16.7198,16.8241,16.9378,17.065,17.1186,17.1573,17.1706,17.1632,17.1032,17.0376,17.0015,17.0229,16.9944,16.973,16.9222,16.915,16.915,16.915,16.915,16.915,16.915,16.915,16.915,16.915,16.915,16.915,16.915,16.915,16.915,16.915,16.915,16.915,16.915,16.915,16.915,16.915,15.5925,15.5925,15.5925,15.5925,15.5925,15.5925,15.5925,15.5925,15.5925,15.5925,15.5925,15.5925,15.5925,15.5991,15.6188,15.6308,15.6373,15.6373,15.6452,15.6057,15.5925,15.5925,15.5925,15.5925,15.5925,15.5925,15.5925,15.5925,15.5925,15.5925,15.5925,15.5925,15.5925,15.5925,15.5925,15.5925,15.5925,15.5925,15.5925,15.5925,15.5925,15.5925,15.5925,15.5925,15.5925,15.5925,15.5925,15.5925,15.5925,15.5925,15.5925,15.5925,15.5925,15.5925,15.5925,15.5925,15.5925,15.5925,15.5925,15.5925,15.6715,15.7833,15.9333,16.0385,16.1305,16.2345,16.3318,16.3765,16.4357,16.4423,16.4423,16.4423,16.4423,16.4423,16.4423,16.4631,16.4799,16.4993,16.5553,16.6192,16.7501,16.9455,17.0651,17.1846,17.2166,17.3472,17.343,17.2346,17.1775,17.161,17.1459,17.1102,17.038,16.9587,16.9373,16.915,16.915,16.915,16.915,16.915,16.915,16.915,16.915,16.915,16.915,16.915,16.915,16.915,16.915,16.915,16.915,16.915,16.915,16.915,16.915,15.5925,15.5925,15.5925,15.5925,15.5925,15.5925,15.5925,15.5925,15.5925,15.5925,15.5925,15.5925,15.5925,15.5925,15.5925,15.5925,15.5925,15.5925,15.5925,15.5925,15.5925,15.5925,15.5925,15.5925,15.5925,15.5925,15.5925,15.5925,15.5925,15.5925,15.5925,15.5925,15.5925,15.5925,15.5925,15.5925,15.5925,15.5925,15.5925,15.5925,15.5925,15.5925,15.5925,15.5925,15.5925,15.5925,15.5925,15.5925,15.5925,15.5925,15.5925,15.5925,15.5925,15.5925,15.5925,15.5925,15.5925,15.5925,15.5925,15.5925,15.6188,15.6912,15.7964,15.9082,16.0003,16.1252,16.2279,16.3252,16.3897,16.4423,16.4423,16.4423,16.4423,16.4423,16.4423,16.4423,16.4423,16.4423,16.4841,16.5443,16.697,16.8998,17.0719,17.1893,17.3001,17.4167,17.4197,17.3533,17.3494,17.3362,17.3077,17.2369,17.1308,17.0221,16.9444,16.915,16.915,16.915,16.915,16.915,16.915,16.915,16.915,16.915,16.915,16.915,16.915,16.915,16.915,16.915,16.915,16.915,16.915,16.915,16.915,15.5925,15.5925,15.5925,15.5925,15.5925,15.5925,15.5925,15.5925,15.5925,15.5925,15.5925,15.5925,15.5925,15.5925,15.5925,15.5925,15.5925,15.5925,15.5925,15.5925,15.5925,15.5925,15.5925,15.5925,15.5925,15.5925,15.5925,15.5925,15.5925,15.5925,15.5925,15.5925,15.5925,15.5925,15.5925,15.5925,15.5925,15.5925,15.5925,15.5925,15.5925,15.5925,15.5925,15.5925,15.5925,15.5925,15.5925,15.5925,15.5925,15.5925,15.5925,15.5925,15.5925,15.5925,15.5925,15.5925,15.5925,15.5925,15.5925,15.5925,15.5991,15.632,15.6846,15.7438,15.8437,15.974,16.124,16.2279,16.3199,16.3963,16.4291,16.4357,16.4423,16.4423,16.4423,16.4423,16.4423,16.4423,16.4502,16.5142,16.6018,16.8214,17.0865,17.217,17.3236,17.4448,17.5128,17.5229,17.5272,17.5121,17.48,17.3753,17.2718,17.1596,17.074,16.9847,16.957,16.9239,16.915,16.915,16.915,16.915,16.915,16.915,16.915,16.915,16.915,16.915,16.915,16.915,16.915,16.915,16.915,16.915,16.915,15.5925,15.5925,15.5925,15.5925,15.5925,15.5925,15.5925,15.5925,15.5925,15.5925,15.5925,15.5925,15.5925,15.5925,15.5925,15.5925,15.5925,15.5925,15.5925,15.5925,15.5925,15.5925,15.5925,15.5925,15.5925,15.5925,15.5925,15.5925,15.5925,15.5925,15.5925,15.5925,15.5925,15.5925,15.5925,15.5925,15.5925,15.5925,15.5925,15.5925,15.5925,15.5925,15.5925,15.5925,15.5925,15.5925,15.5925,15.5925,15.5925,15.5925,15.5925,15.5925,15.5925,15.5925,15.5925,15.5925,15.5925,15.5925,15.5925,15.5925,15.5925,15.5925,15.611,15.678,15.7635,15.8437,15.9805,16.1042,16.2423,16.3252,16.416,16.4291,16.4423,16.4423,16.4423,16.4423,16.4423,16.4423,16.4423,16.4841,16.5783,16.7529,17.0227,17.2246,17.3366,17.4538,17.5451,17.5747,17.6004,17.5997,17.5914,17.495,17.3978,17.2945,17.2061,17.1168,17.0703,16.9957,16.9717,16.915,16.915,16.915,16.915,16.915,16.915,16.915,16.915,16.915,16.915,16.915,16.915,16.915,16.915,16.915,16.915,15.5925,15.5925,15.5925,15.5925,15.5925,15.5925,15.5925,15.5925,15.5925,15.5925,15.5925,15.5925,15.5925,15.5925,15.5925,15.5925,15.5925,15.5925,15.5925,15.5925,15.586,15.5782,15.5782,15.5925,15.5531,15.5925,15.5925,15.5847,15.5716,15.5847,15.5925,15.5925,15.5925,15.5925,15.5925,15.5925,15.5925,15.5925,15.5925,15.5925,15.5925,15.5925,15.5925,15.5925,15.5925,15.5925,15.5925,15.5925,15.5925,15.5925,15.5925,15.5925,15.5925,15.5925,15.5925,15.5925,15.5925,15.5925,15.5925,15.5925,15.5925,15.5925,15.5925,15.6188,15.6517,15.745,15.8622,15.9805,16.1371,16.2292,16.3068,16.4226,16.4357,16.4423,16.4423,16.4423,16.4423,16.4423,16.4489,16.4672,16.5465,16.7255,16.9327,17.1197,17.3053,17.4358,17.559,17.6048,17.6303,17.6742,17.6919,17.5967,17.4952,17.4257,17.3517,17.2686,17.1824,17.0801,16.9965,16.9159,16.915,16.9222,16.915,16.915,16.915,16.915,16.915,16.915,16.915,16.915,16.915,16.915,16.915,16.915,16.915,15.5925,15.5925,15.5925,15.5925,15.5925,15.5925,15.5925,15.5925,15.5925,15.5925,15.5925,15.5925,15.5925,15.5925,15.5925,15.5925,15.5925,15.5925,15.5925,15.5794,15.5256,15.5243,15.4849,15.4544,15.4293,15.4544,15.5046,15.5046,15.5243,15.5704,15.5847,15.5925,15.5925,15.5925,15.5925,15.5925,15.5925,15.5925,15.5925,15.5925,15.5925,15.5925,15.5925,15.5925,15.5925,15.5925,15.5925,15.5925,15.5925,15.5925,15.5925,15.5925,15.5925,15.5925,15.5925,15.5925,15.5925,15.5925,15.5925,15.5925,15.5925,15.5925,15.5925,15.5925,15.5925,15.6858,15.7516,15.8424,15.9805,16.066,16.1713,16.2924,16.3581,16.3713,16.4291,16.4291,16.4357,16.4357,16.4489,16.4672,16.5039,16.6727,16.8376,17.0264,17.188,17.3265,17.3986,17.4555,17.5684,17.6507,17.7167,17.631,17.6056,17.554,17.5085,17.4468,17.3688,17.2431,17.12,17.0129,16.9507,16.9436,16.9364,16.923,16.9222,16.915,16.915,16.915,16.915,16.915,16.915,16.915,16.915,16.915,16.915,15.5847,15.5925,15.5925,15.5925,15.5925,15.5925,15.5925,15.5925,15.5925,15.5925,15.5925,15.5925,15.5925,15.5925,15.5925,15.5925,15.5925,15.5716,15.5584,15.519,15.4323,15.3785,15.3336,15.2835,15.2583,15.2111,15.2954,15.3797,15.3994,15.498,15.5716,15.5847,15.565,15.565,15.586,15.5925,15.5925,15.5925,15.5925,15.5925,15.5925,15.5925,15.5925,15.5925,15.5925,15.5925,15.5925,15.5925,15.5925,15.5925,15.5925,15.5925,15.5925,15.5925,15.5925,15.5925,15.5925,15.5925,15.5925,15.5925,15.5925,15.5925,15.5925,15.5925,15.5925,15.6057,15.6517,15.745,15.8371,15.9082,16.0056,16.1293,16.195,16.2542,16.3581,16.4041,16.4094,16.416,16.4357,16.4515,16.5118,16.5885,16.7526,16.9053,17.06,17.1481,17.2199,17.3374,17.4768,17.5711,17.653,17.6448,17.7013,17.6544,17.6314,17.5975,17.5213,17.3991,17.2793,17.1884,17.1219,17.0443,16.9801,16.9453,16.9302,16.915,16.915,16.915,16.915,16.915,16.915,16.915,16.915,16.915,16.915,15.4993,15.5847,15.5925,15.5925,15.5925,15.5925,15.5925,15.5925,15.5925,15.5925,15.5925,15.5925,15.5925,15.5925,15.5925,15.5925,15.5584,15.4993,15.452,15.3863,15.3073,15.2362,15.2111,15.1728,15.119,15.1651,15.2243,15.2835,15.3402,15.4126,15.4783,15.5112,15.4968,15.5178,15.5519,15.5925,15.5925,15.5925,15.5925,15.5925,15.5925,15.5925,15.5925,15.5925,15.5925,15.5925,15.5925,15.5925,15.5925,15.5925,15.5925,15.5925,15.5925,15.5925,15.5925,15.5925,15.5925,15.5925,15.5925,15.5925,15.5925,15.5925,15.5925,15.5925,15.5925,15.5925,15.5991,15.678,15.7516,15.8174,15.8568,15.9924,16.0701,16.1042,16.2147,16.3002,16.3121,16.37,16.3963,16.4226,16.4672,16.5142,16.6511,16.7468,16.8387,16.8501,16.9548,17.1126,17.2619,17.3759,17.4973,17.6053,17.6828,17.708,17.7389,17.6786,17.6107,17.4951,17.4343,17.3465,17.2655,17.1593,17.088,17.0523,17.0015,16.9293,16.9276,16.9545,16.9411,16.915,16.915,16.915,16.915,16.915,16.915,15.4233,15.5046,15.5046,15.5046,15.51,15.565,15.5925,15.5925,15.5925,15.5925,15.5925,15.5925,15.5925,15.5925,15.5925,15.565,15.4927,15.406,15.3468,15.2679,15.1639,15.0927,15.0479,15.0216,14.9941,14.9875,15.0545,15.1453,15.2284,15.2691,15.3546,15.3731,15.3283,15.394,15.4652,15.4927,15.5387,15.565,15.5925,15.5925,15.5925,15.5925,15.5925,15.5925,15.5925,15.5925,15.5925,15.5925,15.5925,15.5925,15.5925,15.5925,15.5925,15.5925,15.5925,15.5925,15.5925,15.5925,15.5925,15.5925,15.5925,15.5925,15.5925,15.5925,15.5925,15.5925,15.5925,15.6123,15.6727,15.6978,15.7385,15.8412,15.932,15.9727,16.0319,16.1174,16.1884,16.2739,16.3199,16.3331,16.3804,16.429,16.5091,16.5774,16.5685,16.5724,16.7232,16.8729,16.9953,17.1096,17.276,17.3958,17.498,17.5474,17.7384,17.7302,17.6928,17.633,17.5704,17.5161,17.4581,17.3377,17.2307,17.1807,17.1371,17.0666,17.0212,17.0098,16.9742,16.9276,16.915,16.9159,16.915,16.915,16.915,15.3402,15.3336,15.3522,15.36,15.3719,15.5058,15.5531,15.5202,15.5399,15.5334,15.519,15.5465,15.5202,15.5346,15.5005,15.4532,15.36,15.351,15.2547,15.131,15.0138,14.9415,14.902,14.8285,14.7562,14.7771,14.8691,14.9349,14.9875,15.0927,15.1137,15.1453,15.1585,15.2428,15.3217,15.3677,15.4203,15.5178,15.586,15.586,15.5925,15.5925,15.5925,15.5925,15.5925,15.5925,15.5925,15.5925,15.5925,15.5925,15.5925,15.5925,15.5925,15.5925,15.5925,15.5925,15.5925,15.5925,15.5925,15.5925,15.5925,15.5925,15.5925,15.5925,15.5925,15.5925,15.5728,15.5662,15.5597,15.5716,15.5925,15.6715,15.7294,15.7833,15.8687,15.953,16.045,16.1371,16.2016,16.2423,16.2765,16.3172,16.3858,16.371,16.3649,16.3293,16.4573,16.5595,16.6823,16.8714,17.0416,17.2081,17.3106,17.4651,17.6683,17.7407,17.6831,17.6268,17.6579,17.6525,17.6079,17.5223,17.3939,17.344,17.2726,17.195,17.1388,17.143,17.1019,16.9906,16.923,16.9398,16.9398,16.923,16.915,14.9852,14.9063,15.1256,15.2111,15.2165,15.2506,15.2769,15.2703,15.2781,15.2781,15.2715,15.2847,15.2769,15.2715,15.2835,15.2691,15.2033,15.0969,15.0324,14.9612,14.8626,14.7956,14.7759,14.7562,14.7102,14.7167,14.7825,14.8351,14.8823,14.8954,14.9152,14.9995,14.9941,15.0862,15.1782,15.2243,15.2888,15.4191,15.5136,15.5662,15.5794,15.5794,15.5847,15.5913,15.5925,15.5925,15.5925,15.5925,15.5925,15.5925,15.5925,15.5925,15.5925,15.5925,15.5925,15.5925,15.5925,15.5925,15.5925,15.5925,15.5925,15.5925,15.5925,15.5925,15.5925,15.5847,15.565,15.4335,15.4269,15.3677,15.3283,15.4072,15.4795,15.5794,15.6858,15.7833,15.8819,15.9727,16.0438,16.083,16.1354,16.1867,16.1257,16.1396,16.1305,16.0988,16.1487,16.2427,16.422,16.6308,16.8111,17.0146,17.1137,17.235,17.4118,17.5378,17.6225,17.6376,17.7337,17.7524,17.7087,17.6373,17.5651,17.4929,17.4136,17.3368,17.2601,17.2729,17.2751,17.1535,17.0506,17.0183,16.9717,16.931,16.915,14.6455,14.6432,14.868,15.0018,15.0742,15.14,15.1651,15.1651,15.1651,15.1651,15.1651,15.1651,15.1651,15.1794,15.1651,15.1268,15.0599,14.9929,14.9206,14.8297,14.7693,14.7167,14.7102,14.7102,14.7102,14.7102,14.7233,14.7825,14.7902,14.7705,14.7496,14.8428,14.856,14.9283,15.0533,15.0664,15.1573,15.2625,15.3558,15.4347,15.4795,15.4993,15.5243,15.5835,15.5913,15.5925,15.5925,15.5925,15.5925,15.5925,15.5925,15.5925,15.5925,15.5925,15.5925,15.5925,15.5925,15.5925,15.5925,15.5925,15.5925,15.5925,15.5925,15.5794,15.5794,15.5321,15.4323,15.2954,15.2835,15.2571,15.2111,15.244,15.2691,15.3098,15.4096,15.5017,15.6057,15.7426,15.8568,15.9207,15.9715,15.8538,15.7713,15.8089,15.8381,15.8293,15.8907,15.9779,16.1323,16.3365,16.5403,16.7706,16.9019,17.024,17.1766,17.3317,17.4339,17.519,17.6222,17.7078,17.715,17.7586,17.7372,17.665,17.5472,17.4616,17.4019,17.3965,17.4064,17.3128,17.1987,17.1313,17.0692,17.0125,16.9293,14.3365,14.4657,14.6247,14.7693,14.9009,15.0347,15.1005,15.0939,15.0873,15.1071,15.073,15.0939,15.0873,15.082,15.0808,15.027,14.9546,14.8943,14.8351,14.7562,14.7221,14.7102,14.7102,14.7102,14.7102,14.7102,14.7102,14.7102,14.7299,14.7299,14.7233,14.731,14.7496,14.7837,14.9086,14.914,14.9941,15.1071,15.1412,15.2111,15.3259,15.3522,15.4323,15.5124,15.5519,15.5584,15.586,15.5925,15.5925,15.5925,15.5925,15.5925,15.5925,15.5925,15.5925,15.5925,15.5925,15.5925,15.586,15.5584,15.5387,15.5321,15.5124,15.5334,15.4742,15.394,15.2888,15.1597,15.1412,15.1148,15.0742,15.1202,15.14,15.1597,15.2057,15.2912,15.3492,15.5058,15.5675,15.6311,15.6438,15.5413,15.4705,15.5163,15.5679,15.5875,15.6299,15.7078,15.8322,16.0045,16.2034,16.4663,16.6364,16.8397,17.0131,17.1639,17.2659,17.3442,17.4626,17.5759,17.6133,17.6659,17.7158,17.7265,17.663,17.5576,17.5712,17.5644,17.5397,17.4746,17.3894,17.2889,17.1814,17.0658,16.9658,14.1315,14.1841,14.4394,14.5632,14.6092,14.743,14.81,14.8034,14.8177,14.8231,14.8022,14.8154,14.8219,14.8088,14.81,14.8022,14.7693,14.7693,14.7562,14.7102,14.7102,14.7102,14.7102,14.7102,14.7102,14.7102,14.7102,14.7102,14.7102,14.7102,14.7102,14.7102,14.7102,14.743,14.7628,14.7879,14.8614,14.9415,14.9953,15.0664,15.1717,15.2111,15.2703,15.3994,15.4179,15.4717,15.5465,15.5531,15.5531,15.5597,15.5716,15.586,15.586,15.5925,15.5925,15.5925,15.5925,15.5925,15.5519,15.4915,15.4191,15.4138,15.3151,15.2703,15.244,15.2374,15.1507,15.0258,14.9875,14.9546,14.8823,14.9229,14.9809,15.0072,15.0796,15.1717,15.2045,15.2452,15.3122,15.2901,15.3004,15.2867,15.2715,15.3127,15.41,15.4432,15.5045,15.5719,15.7276,15.8561,16.0116,16.2453,16.4714,16.6926,16.8796,17.0406,17.1047,17.189,17.3048,17.411,17.484,17.558,17.5803,17.5954,17.5756,17.6388,17.7514,17.7836,17.6937,17.617,17.5587,17.4551,17.288,17.1565,17.0472,14.0065,14.0854,14.2301,14.3725,14.4974,14.5841,14.651,14.7036,14.7102,14.7102,14.7102,14.7102,14.7102,14.7102,14.7102,14.7102,14.7167,14.7102,14.7102,14.7102,14.7102,14.7102,14.7102,14.7102,14.7102,14.7102,14.7102,14.7102,14.7102,14.7102,14.7102,14.7102,14.7102,14.7102,14.7102,14.7102,14.7639,14.8088,14.8363,14.8757,14.9349,15.0324,15.1268,15.2308,15.2835,15.3098,15.3767,15.3821,15.3887,15.4006,15.452,15.4795,15.4598,15.4281,15.3767,15.3702,15.3689,15.3755,15.3612,15.3283,15.2691,15.2637,15.2189,15.1663,15.1531,15.0873,15.0324,14.9469,14.9009,14.8034,14.7245,14.7914,14.8297,14.8482,14.8889,14.969,15.0347,15.0545,15.0216,14.9683,15.0434,15.0931,15.0837,15.1579,15.2545,15.3235,15.3871,15.5223,15.689,15.8197,15.9571,16.1857,16.4196,16.6275,16.8126,16.8986,16.9401,17.0375,17.1408,17.2327,17.3128,17.4136,17.4501,17.4527,17.5587,17.6245,17.7166,17.7925,17.7756,17.7382,17.6569,17.5507,17.3918,17.2478,17.1382,13.932,14.0394,14.0657,14.2104,14.4131,14.458,14.5458,14.663,14.6707,14.6904,14.7102,14.7102,14.7102,14.7102,14.7102,14.7102,14.7102,14.7102,14.7102,14.7102,14.7102,14.7102,14.7102,14.7102,14.7102,14.7102,14.7102,14.7102,14.7102,14.7102,14.7102,14.7102,14.7102,14.7102,14.7102,14.7167,14.7245,14.743,14.743,14.743,14.7825,14.8614,14.9821,15.1059,15.1256,15.1597,15.1663,15.1728,15.1651,15.1717,15.2757,15.3139,15.2876,15.2308,15.1992,15.1992,15.2045,15.2177,15.198,15.1531,15.1268,15.1202,15.0742,15.0676,15.0401,14.9744,14.9074,14.8614,14.7902,14.7245,14.7102,14.7299,14.7245,14.7167,14.7496,14.7891,14.8811,14.9009,14.8614,14.8034,14.8518,14.9119,14.9591,15.0187,15.1071,15.1835,15.2855,15.4445,15.5849,15.7221,15.8645,16.0929,16.3315,16.5251,16.7003,16.7248,16.8206,16.92,17.0053,17.098,17.1488,17.2558,17.3083,17.2983,17.3685,17.5148,17.6301,17.7194,17.7453,17.7908,17.7247,17.6461,17.4967,17.3527,17.2415,13.8717,13.8991,14.0252,14.0975,14.1512,14.2707,14.4011,14.526,14.538,14.5864,14.6904,14.7102,14.6773,14.7036,14.7036,14.7102,14.7102,14.7102,14.7102,14.7102,14.7102,14.7102,14.7102,14.7102,14.7102,14.7102,14.7102,14.7102,14.7102,14.7102,14.7102,14.7102,14.7102,14.7102,14.7102,14.7102,14.7102,14.7102,14.7102,14.7102,14.7299,14.743,14.8428,14.9535,14.9798,15.0204,15.0927,15.119,15.1388,15.1651,15.1806,15.1268,15.0796,15.0862,15.1663,15.1477,15.0951,15.0676,15.0347,15.0007,14.9469,14.9732,14.8691,14.7902,14.7902,14.7628,14.7496,14.7376,14.7442,14.7102,14.7102,14.7102,14.7102,14.7102,14.7102,14.7233,14.743,14.7508,14.7562,14.7179,14.7624,14.7968,14.8324,14.8881,14.9614,15.0509,15.2001,15.3405,15.4579,15.5834,15.7315,15.9275,16.1249,16.3128,16.4609,16.5192,16.7237,16.8311,16.8991,16.9419,16.965,17.0514,17.1102,17.1224,17.2044,17.3677,17.4999,17.5855,17.6926,17.8166,17.7738,17.6597,17.5546,17.4558,17.3083,13.8586,13.8652,13.9331,14.0054,14.0778,14.1457,14.2575,14.3693,14.3891,14.422,14.4757,14.49,14.5337,14.5972,14.6049,14.651,14.6982,14.7102,14.7102,14.709,14.7102,14.7102,14.7102,14.7102,14.7102,14.7102,14.7102,14.7102,14.7102,14.7102,14.7102,14.7102,14.7102,14.7102,14.7102,14.7102,14.7102,14.7102,14.7102,14.7102,14.7102,14.7167,14.7639,14.8088,14.8285,14.8494,14.9218,14.9283,14.9283,14.9218,14.9229,14.89,14.8482,14.8154,14.8088,14.7956,14.7508,14.7016,14.7005,14.6335,14.6138,14.5875,14.5337,14.4943,14.4943,14.5643,14.5918,14.6115,14.6641,14.7102,14.7102,14.7102,14.7102,14.7102,14.7102,14.7102,14.7167,14.7102,14.7102,14.7102,14.7102,14.7102,14.7179,14.7751,14.8518,14.9494,15.0996,15.2043,15.3207,15.4949,15.6258,15.7695,15.9405,16.0926,16.2281,16.3982,16.5929,16.6831,16.7485,16.7825,16.7724,16.8319,16.9113,16.9894,17.0515,17.214,17.3249,17.4314,17.526,17.6283,17.6678,17.6305,17.5352,17.3783,17.2378,13.8586,13.8586,13.8586,13.9254,14.0186,14.0317,14.1129,14.2389,14.2401,14.2652,14.2915,14.2927,14.3573,14.4537,14.4603,14.5117,14.5918,14.5995,14.6455,14.663,14.6893,14.7036,14.6641,14.6564,14.6773,14.7102,14.7102,14.7102,14.7102,14.7102,14.7102,14.7102,14.7102,14.7102,14.7102,14.7102,14.7102,14.7102,14.7102,14.7102,14.7102,14.7167,14.7167,14.7233,14.7233,14.7245,14.7167,14.7102,14.697,14.6773,14.6695,14.6641,14.6061,14.5272,14.4943,14.4668,14.377,14.3124,14.2992,14.3321,14.2927,14.3321,14.331,14.2861,14.2981,14.4011,14.4471,14.4789,14.5841,14.6444,14.6575,14.6904,14.7102,14.7102,14.7102,14.7102,14.7102,14.7102,14.7102,14.7102,14.7102,14.7102,14.7167,14.7357,14.793,14.8549,14.9619,15.0728,15.2349,15.4195,15.5565,15.6856,15.8263,15.9322,16.0742,16.2233,16.3791,16.4703,16.5668,16.6277,16.5789,16.6044,16.6678,16.7664,16.8889,16.999,17.1056,17.2166,17.3617,17.4287,17.4845,17.4958,17.4538,17.2845,17.1442,13.8586,13.8586,13.8586,13.8663,13.8849,13.886,13.9726,14.0789,14.0986,14.1589,14.2389,14.2729,14.2718,14.3113,14.3113,14.3244,14.3442,14.377,14.4285,14.526,14.6115,14.6258,14.5326,14.5249,14.5786,14.6575,14.7036,14.7036,14.6893,14.7102,14.7102,14.7102,14.7102,14.7102,14.7102,14.7102,14.7102,14.7102,14.7102,14.7102,14.7102,14.7102,14.7102,14.7102,14.7102,14.7102,14.7102,14.7036,14.651,14.5303,14.5249,14.4668,14.3573,14.3321,14.3113,14.2981,14.2707,14.2455,14.2729,14.2455,14.2652,14.2466,14.2532,14.2861,14.2598,14.2784,14.3113,14.3102,14.4405,14.5117,14.538,14.6444,14.6904,14.7113,14.707,14.7113,14.7102,14.7102,14.7102,14.7102,14.719,14.7102,14.7256,14.7593,14.8093,14.8951,14.9715,15.0857,15.228,15.3789,15.5035,15.6249,15.706,15.7913,15.925,16.0553,16.1726,16.2658,16.3655,16.402,16.3531,16.3896,16.4395,16.526,16.6673,16.7878,16.8907,17.0297,17.1926,17.2718,17.291,17.336,17.3683,17.169,17.0119,13.8586,13.8586,13.8586,13.8586,13.8586,13.8586,13.8904,13.9452,13.9506,13.9857,14.0263,14.0405,14.0854,14.16,14.1666,14.2072,14.2795,14.2861,14.3179,14.3879,14.4351,14.4285,14.3945,14.3759,14.4088,14.4746,14.5446,14.5841,14.6038,14.6773,14.7102,14.7102,14.7102,14.7102,14.7102,14.7102,14.7102,14.7102,14.7102,14.7102,14.7102,14.7102,14.7102,14.7102,14.7102,14.7102,14.7102,14.7102,14.6049,14.4285,14.3759,14.3485,14.2861,14.2126,14.1655,14.1589,14.0778,14.0438,14.0394,14.0405,14.0394,14.0394,14.0383,14.0383,14.0591,14.1194,14.1655,14.1786,14.2959,14.3628,14.4022,14.5063,14.6181,14.6807,14.6643,14.6352,14.6352,14.7263,14.7928,14.8017,14.806,14.8024,14.8026,14.8247,14.8738,14.9386,15.013,15.113,15.229,15.336,15.461,15.5595,15.6545,15.7408,15.8624,15.9428,16.0393,16.062,16.1326,16.1438,16.1541,16.2167,16.2666,16.3388,16.4617,16.5712,16.6459,16.7491,16.9205,17.0343,17.0715,17.1017,17.1216,17.02,16.8827,13.8005,13.8071,13.8465,13.8586,13.8586,13.8586,13.8586,13.8597,13.8586,13.8717,13.8652,13.8586,13.932,14.012,14.0186,14.0734,14.1392,14.1589,14.1863,14.2181,14.1984,14.172,14.1786,14.2049,14.2521,14.3113,14.4022,14.446,14.4537,14.5337,14.6061,14.6587,14.6444,14.6641,14.7102,14.7102,14.7102,14.7102,14.7102,14.7102,14.7102,14.7102,14.7102,14.7102,14.7102,14.6958,14.6564,14.6575,14.5326,14.3047,14.2587,14.2192,14.1589,14.0712,14.0186,14.0054,13.9254,13.8652,13.8652,13.8728,13.8652,13.8586,13.8849,13.8586,13.8641,13.9583,14.0054,14.0394,14.1457,14.2324,14.2521,14.3628,14.4734,14.5801,14.5553,14.5362,14.5739,14.6824,14.7754,14.7819,14.7685,14.791,14.8182,14.8609,14.9194,15.0214,15.1068,15.1996,15.3152,15.4208,15.518,15.5886,15.6477,15.7202,15.7873,15.843,15.8881,15.9186,15.9456,15.9924,16.0399,16.0891,16.1311,16.1731,16.2968,16.3753,16.4381,16.5217,16.6182,16.7631,16.7854,16.7887,16.8156,16.837,16.6872,13.6525,13.6722,13.8016,13.8389,13.8465,13.8454,13.852,13.8586,13.8586,13.8586,13.8586,13.8586,13.8717,13.8717,13.8926,13.9057,13.8926,13.9189,13.9868,14.0328,13.9802,13.9243,13.9452,14.0383,14.1392,14.2378,14.285,14.2981,14.3036,14.3376,14.3825,14.504,14.5183,14.5709,14.6521,14.7024,14.6773,14.6707,14.6838,14.6838,14.685,14.6916,14.6904,14.6838,14.6784,14.6247,14.5249,14.4777,14.4131,14.285,14.114,13.9879,13.9068,13.8783,13.8597,13.852,13.8597,13.8323,13.8454,13.8257,13.84,13.8389,13.8465,13.8586,13.8586,13.8849,13.8991,13.9057,14.012,14.0866,14.1107,14.2171,14.294,14.3259,14.3773,14.4419,14.4765,14.5148,14.6042,14.6185,14.5982,14.6277,14.7829,14.8569,14.9588,15.0839,15.1925,15.2659,15.3687,15.4446,15.5802,15.6615,15.7176,15.7834,15.8401,15.8851,15.9116,15.9258,15.9218,15.9583,15.9987,16.0122,16.0328,16.0605,16.1248,16.1882,16.266,16.3726,16.4766,16.5413,16.5367,16.4861,16.4919,16.5251,16.4681,13.5133,13.5123,13.5715,13.6372,13.7238,13.7249,13.7764,13.852,13.8586,13.8586,13.8586,13.8586,13.8586,13.8586,13.8586,13.8586,13.8586,13.8586,13.8871,13.92,13.8728,13.8586,13.8717,13.9189,13.9715,14.0252,14.1129,14.1523,14.1589,14.2389,14.3124,14.3573,14.3705,14.4034,14.4362,14.4483,14.4483,14.4494,14.4483,14.4428,14.4494,14.4428,14.4417,14.4494,14.4494,14.4231,14.3616,14.1895,14.0317,13.8904,13.7435,13.6514,13.5978,13.5967,13.5901,13.5912,13.5912,13.5978,13.5978,13.6843,13.7249,13.7435,13.8147,13.852,13.8586,13.8586,13.8586,13.8586,13.9145,13.9528,13.9911,14.1098,14.1625,14.1472,14.1944,14.2975,14.4642,14.5965,14.6843,14.6925,14.7028,14.752,14.8093,14.8764,14.9305,15.0184,15.0863,15.1452,15.2439,15.3834,15.4858,15.5857,15.6943,15.7868,15.8673,15.893,15.9145,15.887,15.8567,15.8663,15.8925,15.8965,15.9091,15.9369,15.9472,16.0106,16.0835,16.201,16.3027,16.3558,16.3965,16.3781,16.368,16.3532,16.2969,13.3621,13.3632,13.4081,13.4881,13.5736,13.5802,13.6306,13.7282,13.7753,13.7939,13.8005,13.8389,13.8586,13.8586,13.8586,13.8586,13.852,13.76,13.749,13.7884,13.7874,13.8082,13.852,13.8586,13.8586,13.8783,13.9583,14.0054,14.0252,14.0997,14.1852,14.2137,14.2192,14.2389,14.2915,14.2861,14.2861,14.2861,14.2861,14.2861,14.2861,14.2861,14.2861,14.2861,14.2861,14.1863,14.0285,13.8356,13.6832,13.5933,13.4881,13.4279,13.4344,13.4279,13.4279,13.4279,13.4279,13.4279,13.4486,13.5265,13.5812,13.5999,13.6635,13.7216,13.7293,13.7686,13.8101,13.8101,13.8703,13.9084,13.9528,14.0462,14.0766,14.0216,14.0391,14.1505,14.3352,14.5209,14.6603,14.7266,14.7459,14.7796,14.8366,14.8892,14.9418,15.0375,15.0877,15.1252,15.1959,15.3418,15.4311,15.4985,15.6023,15.7027,15.7008,15.708,15.7213,15.7002,15.6836,15.6886,15.7333,15.7594,15.7776,15.7911,15.7966,15.8417,15.9147,16.0066,16.1018,16.1708,16.1913,16.2246,16.2708,16.2375,16.1637,13.1967,13.224,13.3621,13.4147,13.4279,13.4289,13.4355,13.487,13.5933,13.647,13.658,13.7753,13.8126,13.8323,13.8071,13.8389,13.7808,13.5857,13.5397,13.6394,13.6459,13.7106,13.8202,13.8126,13.8137,13.8181,13.852,13.8531,13.8652,13.8926,13.9594,14.0515,14.0723,14.1249,14.2718,14.2269,14.2455,14.2258,14.1995,14.2269,14.2795,14.2203,14.206,14.2269,14.2203,13.989,13.5002,13.4607,13.4476,13.4344,13.4147,13.4213,13.395,13.395,13.4147,13.395,13.4071,13.4147,13.4126,13.4234,13.4429,13.4484,13.4518,13.4942,13.529,13.6248,13.7054,13.7348,13.8494,13.9704,13.9754,14.0276,14.037,13.9446,13.9803,14.0627,14.189,14.2799,14.3837,14.5525,14.6224,14.6691,14.7972,14.8782,14.9702,15.0842,15.1593,15.2074,15.2347,15.2925,15.3634,15.4234,15.5063,15.5759,15.5543,15.5158,15.5127,15.5256,15.516,15.5459,15.6057,15.6438,15.6571,15.6515,15.6641,15.6776,15.7505,15.8076,15.9004,15.9234,15.9432,15.9694,16.0019,16.0098,15.9717,13.053,13.0641,13.1102,13.1846,13.27,13.2766,13.3303,13.4344,13.4815,13.5013,13.5068,13.5462,13.5704,13.5715,13.5715,13.5704,13.5517,13.4805,13.4552,13.5002,13.5002,13.5265,13.5638,13.5649,13.5715,13.5704,13.5704,13.6241,13.7095,13.8147,13.8783,13.9178,13.9243,13.9594,13.9748,13.8958,13.8509,13.8323,13.7567,13.7106,13.7106,13.7117,13.704,13.7051,13.704,13.6109,13.4476,13.3282,13.2766,13.2569,13.1825,13.1299,13.132,13.1299,13.1299,13.1299,13.1365,13.1288,13.1396,13.2531,13.3224,13.33,13.432,13.5081,13.5147,13.5659,13.6095,13.6388,13.708,13.7769,13.8632,13.9792,14.0568,14.0387,14.0602,14.1283,14.214,14.2562,14.3216,14.4339,14.531,14.6115,14.7,14.826,14.9164,14.9973,15.0247,15.0478,15.0761,15.1613,15.2722,15.3016,15.3922,15.4564,15.4397,15.307,15.245,15.3292,15.3559,15.4299,15.4921,15.5221,15.5395,15.5229,15.5293,15.5428,15.5777,15.6213,15.6452,15.6516,15.7008,15.7538,15.7403,15.7575,15.8011,12.9842,12.9842,12.9842,13.0389,13.1178,13.1167,13.178,13.2745,13.3216,13.3479,13.3555,13.4137,13.4279,13.4279,13.3226,13.269,13.268,13.268,13.3019,13.35,13.349,13.3808,13.4213,13.4279,13.4279,13.4279,13.4344,13.4815,13.5802,13.658,13.7085,13.7008,13.7095,13.7095,13.6898,13.612,13.5681,13.5604,13.487,13.4279,13.4476,13.4279,13.3742,13.2821,13.269,13.269,13.268,13.1769,13.1233,13.1167,13.0378,12.9842,12.9842,12.9842,12.9842,12.9863,13.0071,13.0163,13.028,13.1458,13.2214,13.2442,13.3557,13.406,13.4451,13.5121,13.5657,13.6128,13.6624,13.6681,13.6975,13.731,13.8376,13.9138,13.9694,14.039,14.1804,14.2379,14.2829,14.3888,14.4836,14.5562,14.5958,14.6806,14.7615,14.784,14.8404,14.8829,14.9086,15.0351,15.1452,15.1729,15.2554,15.3175,15.2741,15.0837,15.0467,15.1435,15.1916,15.2483,15.266,15.2866,15.3017,15.2765,15.2828,15.3114,15.4128,15.4549,15.5065,15.5146,15.5582,15.5827,15.5096,15.6056,15.6485,12.9863,12.9842,12.9842,12.9908,12.9908,12.9908,12.9928,13.0329,13.1385,13.1932,13.2161,13.339,13.4037,13.366,13.1114,12.9914,13.0025,13.0167,13.0835,13.1835,13.1911,13.2635,13.4081,13.4147,13.4016,13.3753,13.3676,13.395,13.4213,13.4355,13.4279,13.44,13.4542,13.4476,13.4531,13.4334,13.4202,13.4147,13.3939,13.3939,13.4005,13.4005,13.2624,13.0368,12.9974,13.0105,12.9974,12.9908,12.9908,12.9908,12.9908,12.9842,12.9842,12.9842,12.9863,12.9934,13.0386,13.0629,13.0729,13.1205,13.163,13.1897,13.2321,13.2227,13.288,13.4267,13.5203,13.5442,13.7299,13.7275,13.451,13.4486,13.5052,13.6562,13.7031,13.8514,14.1154,14.1209,14.2604,14.3477,14.3552,14.3689,14.4283,14.4871,14.5491,14.5869,14.685,14.7797,14.7923,14.8973,14.9701,14.9915,14.9937,14.9655,14.8367,14.8407,14.9374,14.9772,14.9566,15.0024,15.0016,15.008,15.0159,15.023,15.0452,15.1101,15.2179,15.2869,15.3331,15.3672,15.4028,15.4194,15.3677,15.4559,15.5011,13.0158,12.9873,12.9842,12.9842,12.9842,12.9842,13.0036,13.0432,13.0446,13.0649,13.097,13.1038,13.0838,13.0316,12.9571,12.9621,13.0361,13.0407,13.0432,13.0389,13.0444,13.0631,13.1026,13.1102,13.1102,13.1102,13.1102,13.1638,13.27,13.3676,13.4279,13.4279,13.4279,13.4279,13.4213,13.3105,13.2645,13.2569,13.1562,13.1112,13.1102,13.1026,13.0707,12.9974,12.9842,12.9842,12.9842,12.9842,12.9842,12.9842,12.9842,12.9842,12.9842,12.9842,12.9985,13.0407,13.0829,13.1132,13.1448,13.2131,13.263,13.3047,13.3635,13.3601,13.3042,13.3342,13.3482,13.3181,13.4802,13.5846,13.4576,13.4634,13.4957,13.5492,13.5727,13.6197,13.7467,13.7574,13.8078,13.8424,13.9051,13.9318,14.1608,14.3709,14.5059,14.5136,14.5743,14.6244,14.6336,14.6599,14.702,14.6892,14.7891,14.7713,14.6586,14.6842,14.6738,14.6856,14.7102,14.7133,14.6831,14.6912,14.6949,14.8525,14.8533,14.9111,15.0245,15.0808,15.1135,15.1484,15.1476,15.1413,15.1822,15.278,15.3247,12.8893,12.8569,12.8579,12.8579,12.8579,12.8559,12.8794,12.9022,12.8764,12.8718,12.9052,12.9165,12.8954,12.8464,12.8473,12.8738,12.9241,12.9231,12.9071,12.8655,12.8982,12.9251,12.9297,12.9605,12.9842,12.9842,12.9842,13.0302,13.1112,13.2032,13.2493,13.2482,13.2493,13.2493,13.2417,13.1572,13.1112,13.1026,13.0247,12.9842,12.9842,12.9842,12.9842,12.9842,12.9842,12.9842,12.9842,12.9271,12.9008,12.8952,12.8406,12.8224,12.8339,12.8349,12.8609,12.9268,12.9486,12.9932,13.0657,13.1366,13.2016,13.2583,13.3184,13.3327,13.2773,13.2946,13.2622,13.1677,13.2368,13.3158,13.3349,13.3538,13.3968,13.4633,13.4724,13.5092,13.5881,13.6037,13.6092,13.6262,13.6281,13.7118,13.8826,14.0647,14.1889,14.2645,14.3374,14.3903,14.4645,14.5258,14.5529,14.5608,14.5116,14.493,14.4859,14.5095,14.5601,14.5607,14.5572,14.5558,14.5722,14.5615,14.5815,14.6757,14.6907,14.7399,14.8375,14.8304,14.8326,14.8334,14.8319,14.8561,14.9224,15.0612,15.0785,12.6998,12.6846,12.6959,12.6836,12.6978,12.696,12.7017,12.7122,12.696,12.6865,12.6929,12.7689,12.8012,12.7988,12.7951,12.7844,12.769,12.7519,12.7321,12.7035,12.7784,12.8183,12.8246,12.9114,12.958,12.9524,12.9615,12.9671,12.9747,12.9949,12.9908,12.9842,12.9842,12.9974,12.9908,12.9908,12.9908,12.9842,12.9579,12.9448,12.9448,12.9437,12.9458,12.9437,12.9448,12.9448,12.925,12.8173,12.748,12.7444,12.6391,12.5865,12.6246,12.6277,12.6578,12.7244,12.7433,12.7898,12.8951,12.9747,13.0696,13.1328,13.1966,13.2211,13.2405,13.2522,13.1937,13.0591,13.0157,13.0489,13.0815,13.0763,13.1497,13.2946,13.3277,13.4135,13.527,13.5796,13.5861,13.5796,13.5479,13.5949,13.6079,13.6483,13.6993,13.8678,13.982,14.0863,14.1926,14.2989,14.376,14.3746,14.2405,14.1262,14.2138,14.3788,14.391,14.448,14.4781,14.4602,14.4538,14.4731,14.5251,14.5116,14.5408,14.5544,14.5736,14.5573,14.5773,14.623,14.6219,14.616,14.7389,14.8776,14.869,12.8217,12.7631,12.7631,12.7631,12.7669,12.7872,12.8147,12.8498,12.8431,12.7804,12.6837,12.6657,12.7297,12.8277,12.8043,12.8181,12.864,12.872,12.8113,12.7274,12.7388,12.7378,12.7136,12.7295,12.7435,12.7548,12.8236,12.8681,12.8773,12.9469,12.9842,12.9842,12.9842,12.9842,12.9842,12.9842,12.9842,12.9711,12.7627,12.6519,12.6575,12.6509,12.6575,12.6499,12.6595,12.6519,12.6509,12.6246,12.6217,12.6466,12.6166,12.6199,12.6586,12.6922,12.6872,12.6621,12.7847,12.8648,12.8619,13.0455,13.2024,13.2859,13.3236,13.3178,13.2351,12.9773,12.7709,12.7457,12.7678,12.7879,12.8014,12.7956,12.8571,13.0055,13.0282,13.1002,13.2371,13.267,13.2663,13.2592,13.2664,13.3145,13.4101,13.4452,13.5061,13.6333,13.7074,13.7424,13.7716,13.8073,13.8358,13.8209,13.7859,13.7679,13.7679,13.8444,13.9123,14.0088,14.0287,14.092,14.1726,14.194,14.234,14.3346,14.3639,14.3981,14.5194,14.5452,14.5344,14.5281,14.518,14.5521,14.598,14.6522,14.625,12.6391,12.6144,12.6662,12.6938,12.6956,12.7083,12.7331,12.7714,12.7304,12.6487,12.5524,12.527,12.5504,12.6039,12.5847,12.5857,12.6011,12.6624,12.6477,12.5651,12.6561,12.6959,12.6795,12.711,12.7264,12.7293,12.7662,12.7887,12.7838,12.8242,12.8361,12.8191,12.8181,12.8081,12.79,12.788,12.788,12.7824,12.6744,12.6092,12.6092,12.6083,12.6149,12.6073,12.6083,12.6092,12.6073,12.5478,12.5188,12.5429,12.4124,12.3706,12.4179,12.3286,12.2865,12.3041,12.3539,12.381,12.3839,12.5385,12.7037,12.8587,12.968,12.935,12.6969,12.5247,12.4713,12.5515,12.5706,12.615,12.6839,12.6988,12.7267,12.8136,12.8213,12.8564,12.929,12.9439,12.9718,13.0373,13.0515,13.1145,13.2664,13.2851,13.3277,13.3992,13.4855,13.5504,13.6289,13.5232,13.4356,13.5063,13.5212,13.5422,13.616,13.6274,13.6612,13.7379,13.7505,13.791,13.8494,13.8787,13.9143,13.9864,14.0628,14.1406,14.2041,14.2931,14.3409,14.351,14.3439,14.3867,14.441,14.4538,14.3696,12.3852,12.3817,12.4904,12.5421,12.5421,12.5413,12.5583,12.5826,12.5358,12.4764,12.4313,12.427,12.3975,12.3617,12.3495,12.3122,12.2597,12.3753,12.3996,12.3409,12.5281,12.6159,12.6029,12.6927,12.7331,12.7249,12.7255,12.7202,12.7213,12.6941,12.6654,12.6374,12.6287,12.6139,12.5796,12.57,12.5513,12.5193,12.5807,12.6143,12.6143,12.6143,12.6143,12.6143,12.6067,12.6076,12.5811,12.4597,12.3895,12.3742,12.1358,12.0189,12.0628,11.8615,11.7664,11.8371,11.7413,11.6991,11.753,11.8196,11.9554,12.1762,12.391,12.3169,11.8962,11.9854,12.1429,12.3023,12.3005,12.3867,12.5347,12.5347,12.5276,12.5704,12.5846,12.6138,12.6631,12.6715,12.7279,12.8719,12.893,12.9515,13.062,13.1061,13.132,13.1554,13.2702,13.3999,13.4583,13.3163,13.2157,13.3214,13.3636,13.4138,13.4953,13.5562,13.5531,13.5848,13.5919,13.6068,13.6575,13.6639,13.6711,13.6432,13.7624,13.8331,13.8474,13.9408,14.0078,14.0299,14.0266,14.0558,14.1655,14.194,14.0884,12.3746,12.3363,12.3564,12.3694,12.3687,12.3687,12.3952,12.4417,0.0,0.0,0.0,12.5372,12.5215,12.5105,12.4827,12.4313,12.3742,12.4014,12.3594,12.2833,12.3175,12.3102,12.2633,12.3944,12.4435,12.4312,12.5998,12.6836,12.685,12.7074,12.7141,12.7131,12.6798,12.6596,12.6519,12.6509,12.5411,12.312,12.3127,12.3192,12.3192,12.3192,12.3192,12.3202,12.3202,12.2585,12.1353,12.1021,12.0494,11.966,11.9404,11.8985,11.8127,11.7274,11.6049,11.44,11.3391,11.2802,11.2561,11.3855,11.5015,11.5783,11.8725,11.8159,11.2489,11.3444,11.5091,11.6632,11.6774,11.7422,11.8932,11.9075,11.9574,12.087,12.1019,12.2095,12.4522,12.5015,12.5443,12.6994,12.7246,12.7454,12.7811,12.8902,12.9666,12.9887,13.0931,13.2164,13.2092,13.0801,13.0224,13.158,13.1794,13.2041,13.2391,13.241,13.3007,13.3881,13.418,13.4777,13.5854,13.6282,13.6282,13.5997,13.6432,13.6646,13.6711,13.7016,13.7074,13.7081,13.7113,13.7194,13.7413,13.7502,13.7169,12.3466,0.0,12.3876,12.4146,0.0,12.4146,12.2745,12.0502,12.1008,12.1353,12.1401,12.125,12.1187,12.104,12.0878,12.0507,12.0178,12.1723,12.2086,12.15,12.2728,12.3188,12.2871,12.3318,12.343,12.3387,12.4138,12.4316,12.4183,12.4051,12.4151,12.4521,12.438,12.4497,12.4859,12.4859,12.368,12.1389,12.1398,12.1301,12.1057,12.1133,12.0959,12.079,12.0781,0.0,0.0,0.0,0.0,0.0,0.0,0.0,0.0,0.0,0.0,10.9224,10.6204,10.4435,10.4317,10.4604,10.5857,10.8413,11.0229,10.9016,10.3741,10.6238,10.8949,11.1304,11.1518,11.2517,11.4728,11.5091,11.5382,11.6101,11.694,11.7933,11.9503,12.0508,12.1578,12.3017,12.4026,12.4881,12.5687,12.7113,12.8047,12.8164,12.8766,12.9225,12.9147,12.8505,12.8291,12.9082,12.9225,12.9244,12.9224,12.9263,12.9556,13.0289,13.1099,13.1852,13.2572,13.3364,13.3876,13.3948,13.457,13.5063,13.5154,13.5736,13.6296,13.6258,13.6289,13.5685,13.3149,13.2748,13.293,12.2049,12.2048,12.304,12.3433,12.3369,12.3182,12.066,11.6629,11.6641,11.6635,11.6635,11.6362,11.6084,11.5875,11.5863,11.5936,11.6045,11.8572,11.969,11.9699,12.1677,12.2745,12.3017,12.2832,12.2889,12.3034,12.2757,12.2412,12.1946,12.1278,12.1257,12.1778,12.1692,12.1926,12.2524,0.0,0.0,0.0,12.0451,12.0241,11.9845,11.9828,11.9692,11.941,11.9393,0.0,11.8604,11.8867,11.8168,11.6481,11.5599,0.0,0.0,0.0,0.0,0.0,0.0,0.0,0.0,0.0,0.0,0.0,9.8913,9.7319,9.457,9.818,10.2309,10.5902,10.6325,10.7604,11.0667,11.1024,11.0963,11.1024,11.2072,11.3136,11.3784,11.4865,11.6369,11.8165,11.9795,12.1273,12.2503,12.4414,12.5601,12.5881,12.6273,12.6119,12.5276,12.5217,12.5502,12.5638,12.5852,12.6098,12.6412,12.6843,12.726,12.7054,12.8026,12.879,12.9069,13.0003,13.0652,13.073,13.1787,13.2552,13.2559,13.3587,13.4107,13.4422,13.4367,13.3324,12.9664,12.8808,12.9199,11.7673,11.751,11.7609,11.7732,11.7627,11.6718,11.597,11.5367,11.5296,11.5296,11.5225,11.3893,11.3245,11.3277,11.3211,11.3846,11.4882,11.5308,11.6069,11.7101,11.7438,11.8206,11.9316,12.0584,12.1621,12.2402,12.3361,12.3515,12.3024,12.2373,12.1835,12.138,12.106,12.078,12.0706,12.1437,12.1599,12.0996,12.0794,12.0549,12.025,12.0241,12.0216,12.0174,12.0174,11.8975,11.6416,11.6313,11.5114,11.2694,11.2699,11.1694,10.9359,10.5349,10.1569,0.0,9.1306,0.0,0.0,0.0,0.0,0.0,0.0,0.0,0.0,8.9119,9.3533,9.947,9.9959,10.1244,10.4296,10.4581,10.4658,10.4658,10.4801,10.6019,10.8614,10.9113,11.0398,11.3307,11.499,11.6037,11.6405,11.8859,12.1236,12.2446,12.3561,12.2797,11.98,11.9871,12.0734,12.0668,12.1786,12.2999,12.4397,12.5806,12.6625,12.6761,12.6839,12.7202,12.7072,12.7357,12.7565,12.7636,12.7922,12.8064,12.7844,12.8109,12.8283,12.857,12.8332,12.7918,12.7192,12.6934,12.7256,11.5342,11.4454,11.4454,11.2451,10.9256,10.8841,10.9081,10.98,10.8993,10.907,10.98,10.8236,10.7583,10.7599,10.7588,10.838,10.9778,11.0649,11.2226,11.4454,11.5237,11.63,11.7763,11.8298,11.8726,11.9188,11.9388,11.9223,11.8831,11.81,11.8322,11.9566,11.9264,11.7861,11.5535,11.6455,11.7361,11.7948,11.7885,11.8071,11.8543,11.8603,11.8515,11.8407,11.756,11.6464,11.5129,11.4491,11.3221,11.1333,10.9911,10.8112,10.548,9.9118,9.3641,0.0,0.0,0.0,0.0,0.0,0.0,0.0,0.0,0.0,0.0,0.0,8.5605,8.9253,9.1964,9.4751,9.7814,9.8156,9.8171,9.8176,9.8955,10.005,10.1416,10.3129,10.4684,10.6122,10.9163,11.1191,11.1254,11.3923,11.6454,11.7991,11.7341,11.6232,11.5085,11.5388,11.6161,11.7,11.7707,11.8783,12.0365,12.1221,12.1631,12.1708,12.2357,12.294,12.3005,12.436,12.5651,12.5729,12.6352,12.691,12.6923,12.693,12.694,12.652,12.4133,12.2288,12.2753,12.2979,12.3588,11.1935,11.0387,10.8104,10.4597,10.0643,10.0938,10.2023,10.3318,10.2247,10.2451,10.3394,10.1453,10.0571,10.0576,10.0235,10.1091,10.3032,10.4551,10.7187,11.0508,11.2314,11.4168,11.6007,11.6226,11.6442,11.6718,11.6349,11.5863,11.5405,11.4441,11.4948,11.6568,11.5145,11.29,11.0209,11.176,11.3321,11.4778,11.5135,11.5872,11.7074,11.7061,11.6911,11.6767,11.5215,11.4226,11.3815,11.2618,11.1221,10.9503,10.6833,10.3867,10.0646,9.2815,0.0,0.0,0.0,0.0,0.0,0.0,0.0,0.0,0.0,6.5793,6.9732,0.0,7.8186,0.0,8.4053,8.8254,9.1331,9.1683,0.0,0.0,9.2843,9.3718,9.4137,9.6259,9.7981,9.868,10.2628,10.5424,10.5807,10.8895,11.1111,11.1116,10.9465,10.873,11.031,11.081,11.1523,11.2571,11.3071,11.3992,11.5379,11.5758,11.5936,11.6232,11.7244,11.8177,11.8587,12.0728,12.2446,12.2874,12.392,12.4537,12.4491,12.4632,12.439,12.3392,11.9701,11.67,11.7797,11.8394,11.9348,10.5591,10.345,9.4751,9.1678,9.2583,9.409,9.554,9.6972,9.6996,9.7072,9.693,9.389,9.2507,9.2364,9.0965,0.0,9.4955,9.6558,9.9831,10.423,10.7226,11.0146,11.3059,11.4523,11.5821,11.6967,11.6931,11.6519,11.5709,11.4213,11.3287,11.254,10.7229,10.506,10.6277,10.9125,11.1428,11.29,11.4033,11.5267,11.6789,11.6605,11.654,11.6428,11.4959,11.3491,11.203,11.0507,10.8506,10.5913,10.3012,9.906,9.3629,0.0,0.0,0.0,0.0,0.0,0.0,0.0,0.0,0.0,0.0,0.0,0.0,0.0,0.0,7.1502,7.7049,0.0,8.4997,8.5283,0.0,0.0,0.0,8.6072,8.754,8.7893,8.9092,9.2008,0.0,0.0,9.9282,10.3461,10.4788,10.064,10.1109,10.24,10.3934,10.5448,10.6309,10.6584,10.7752,10.9197,11.0698,11.0996,11.1358,11.256,11.3192,11.3704,11.4939,11.5698,11.6418,11.7642,11.8053,11.8231,11.8195,11.8047,11.7275,11.4469,11.3439,11.3043,11.3211,11.419,11.5196,9.575,8.8883,8.5169,8.396,8.4527,8.5169,8.6323,8.7692,8.6831,8.6987,8.7633,8.4472,8.3113,8.3054,8.148,0.0,0.0,0.0,9.3181,9.7809,10.1967,10.5545,10.8537,11.0102,11.1117,11.1521,11.0521,10.9787,10.9543,10.7475,10.4086,9.9372,0.0,0.0,9.9398,10.2357,10.6027,11.0253,11.1784,11.3694,11.6159,11.6116,11.607,11.6063,11.455,11.3011,11.1439,10.8985,10.594,10.2181,9.7377,9.2115,0.0,0.0,0.0,0.0,0.0,0.0,0.0,0.0,0.0,0.0,0.0,5.2729,5.5221,0.0,0.0,0.0,6.9619,7.4466,7.8559,7.8919,0.0,0.0,0.0,0.0,0.0,0.0,0.0,8.4237,8.8177,9.1232,9.2793,9.4594,9.5803,9.5846,9.723,9.8837,10.0382,0.0,10.1891,10.2757,10.3476,10.4378,10.5934,10.618,10.6367,10.7034,10.7105,10.7395,10.8028,10.8867,10.9953,11.1452,11.2582,11.351,11.4372,11.0665,10.7351,10.7162,10.7089,10.7094,10.7221,10.7737,10.8761,8.3763,0.0,0.0,0.0,0.0,7.5618,7.6692,7.8119,7.7473,7.7646,7.803,7.5396,0.0,0.0,0.0,0.0,0.0,0.0,8.4984,9.01,9.5255,9.9327,10.239,10.4465,10.5408,10.5331,10.3575,10.2748,10.2446,9.6886,9.1252,8.5752,0.0,0.0,0.0,0.0,10.0834,10.6776,10.9479,11.2252,11.5349,11.5413,11.5413,11.5419,11.347,11.1489,10.9426,10.5971,10.1585,9.6202,9.0066,0.0,0.0,0.0,0.0,0.0,0.0,0.0,0.0,0.0,0.0,0.0,0.0,0.0,0.0,0.0,0.0,0.0,0.0,0.0,7.0778,7.1991,7.2483,0.0,0.0,0.0,0.0,0.0,0.0,0.0,0.0,0.0,8.4601,8.6187,8.8285,0.0,0.0,9.5535,9.653,9.7533,9.8471,9.9622,10.0122,0.0,10.1945,10.2084,10.1957,10.1488,10.1417,10.1423,10.1432,10.2329,10.3547,10.5117,10.6313,10.6749,10.6099,10.1499,9.8524,9.9194,9.9501,9.9673,10.0241,10.0714,10.1805,0.0,0.0,0.0,0.0,0.0,0.0,0.0,0.0,7.0064,6.9848,0.0,6.6872,0.0,0.0,0.0,0.0,0.0,6.9627,0.0,0.0,8.6693,9.1259,9.4318,9.7386,9.896,9.896,9.7177,9.6205,9.53,8.2355,0.0,0.0,0.0,0.0,0.0,0.0,9.6554,10.2804,10.7404,11.1236,11.4223,11.4371,11.4365,11.4294,11.1383,10.8319,10.5202,10.0674,9.4703,8.7021,8.0934,0.0,0.0,0.0,0.0,0.0,0.0,0.0,0.0,0.0,0.0,0.0,0.0,0.0,0.0,0.0,0.0,0.0,0.0,0.0,0.0,6.4217,0.0,0.0,0.0,0.0,0.0,0.0,0.0,0.0,0.0,0.0,7.4241,7.9107,8.333,8.4862,0.0,0.0,0.0,0.0,9.6501,9.6578,9.7833,9.8797,9.885,9.8827,9.83,9.6896,0.0,0.0,9.6563,9.6644,9.7144,9.8761,9.9052,9.7275,9.1747,9.0372,9.0165,9.0314,9.0463,9.0807,9.2204,9.3538,9.5036,0.0,0.0,0.0,0.0,0.0,0.0,0.0,0.0,0.0,5.8131,0.0,5.592,0.0,0.0,0.0,0.0,0.0,0.0,0.0,0.0,7.6193,8.0307,8.3442,8.5492,8.6461,0.0,8.477,8.0873,0.0,0.0,0.0,0.0,0.0,0.0,0.0,0.0,9.2259,10.1376,10.6217,11.0133,11.3117,11.3331,11.3265,11.326,11.1261,10.7264,10.1137,9.5377,8.817,0.0,0.0,0.0,0.0,0.0,0.0,0.0,0.0,0.0,0.0,0.0,0.0,0.0,0.0,0.0,0.0,0.0,0.0,0.0,0.0,0.0,0.0,0.0,6.1574,0.0,0.0,0.0,0.0,0.0,0.0,0.0,0.0,0.0,7.0377,7.3977,7.8289,8.2868,8.5774,8.8544,9.1372,0.0,0.0,0.0,0.0,0.0,0.0,0.0,9.3535,9.2013,9.0851,9.022,9.0339,8.9568,8.9483,9.1062,0.0,0.0,8.1953,8.0702,8.1322,8.3411,8.3812,8.4073,8.4769,8.5395,8.6466,0.0,0.0,0.0,0.0,0.0,0.0,0.0,0.0,0.0,4.8549,4.7958,0.0,0.0,0.0,0.0,0.0,0.0,0.0,0.0,0.0,0.0,0.0,7.2998,7.4494,0.0,0.0,0.0,0.0,0.0,0.0,0.0,0.0,0.0,0.0,0.0,0.0,8.8414,9.9123,10.4689,10.9037,11.2605,11.2747,11.2747,11.2747,11.0733,10.6457,9.9674,0.0,0.0,0.0,0.0,0.0,0.0,0.0,0.0,0.0,0.0,0.0,0.0,0.0,0.0,0.0,0.0,0.0,0.0,0.0,0.0,0.0,0.0,0.0,0.0,0.0,5.6298,0.0,0.0,0.0,0.0,0.0,0.0,0.0,0.0,0.0,0.0,0.0,7.3305,7.9056,8.2531,8.5799,8.9194,9.0524,9.1484,0.0,0.0,0.0,0.0,0.0,0.0,0.0,0.0,0.0,0.0,0.0,0.0,0.0,0.0,7.7528,7.2914,7.2083,7.2922,7.5572,0.0,0.0,0.0,0.0,0.0,0.0,0.0,0.0,0.0,0.0,0.0,0.0,0.0,0.0,0.0,0.0,0.0,0.0,3.8377,0.0,0.0,0.0,0.0,0.0,0.0,0.0,0.0,0.0,0.0,0.0,0.0,0.0,0.0,0.0,0.0,0.0,0.0,0.0,0.0,0.0,0.0,8.5333,9.6292,10.2686,10.8027,11.2528,11.2747,11.267,11.2528,10.9608,10.5688,10.0907,0.0,0.0,0.0,0.0,0.0,0.0,0.0,0.0,0.0,0.0,0.0,0.0,0.0,0.0,0.0,0.0,0.0,0.0,0.0,0.0,0.0,0.0,0.0,0.0,0.0,0.0,5.1772,5.3365,5.4387,0.0,0.0,0.0,0.0,0.0,0.0,0.0,0.0,0.0,0.0,7.9133,8.3585,8.5158,8.7751,8.9517,8.9711,8.9478,8.927,8.9141,8.7839,8.634,0.0,0.0,0.0,0.0,0.0,0.0,0.0,0.0,0.0,0.0,0.0,0.0,0.0,0.0,0.0,0.0,0.0,0.0,0.0,0.0,0.0,0.0,0.0,0.0,0.0,0.0,0.0,0.0,0.0,0.0,0.0,0.0,0.0,0.0,0.0,0.0,0.0,0.0,0.0,0.0,0.0,0.0,0.0,0.0,0.0,0.0,0.0,0.0,0.0,0.0,0.0,0.0,0.0,0.0,8.4204,9.6121,10.2533,10.8027,11.267,11.2747,11.2242,11.1084,10.7023,10.2095,0.0,0.0,0.0,0.0,0.0,0.0,0.0,0.0,0.0,0.0,0.0,0.0,0.0,0.0,0.0,0.0,0.0,0.0,0.0,0.0,0.0,0.0,0.0,0.0,0.0,0.0,0.0,0.0,5.021,5.161,5.2805,0.0,0.0,0.0,0.0,0.0,0.0,0.0,0.0,0.0,0.0,7.8692,8.341,8.5643,8.7501,8.9535,8.9758,8.8883,8.6682,8.5986,8.4381,8.0583,0.0,0.0,0.0,0.0,0.0,0.0,0.0,0.0,0.0,0.0,0.0,0.0,0.0,0.0,0.0,0.0,0.0,0.0,0.0,0.0,0.0,0.0,0.0,0.0,0.0,0.0,0.0,0.0,0.0,0.0,0.0,0.0,0.0,0.0,0.0,0.0,0.0,0.0,0.0,0.0,0.0,0.0,0.0,0.0,0.0,0.0,0.0,0.0,0.0,0.0,0.0,0.0,0.0,8.2218,9.5184,10.1605,10.7445,11.2456,11.2747,11.2023,11.0442,10.531,9.8951,0.0,0.0,0.0,0.0,0.0,0.0,0.0,0.0,0.0,0.0,0.0,0.0,0.0,0.0,0.0,0.0,0.0,0.0,0.0,0.0,0.0,0.0,0.0,0.0,0.0,0.0,0.0,0.0,4.6791,4.8556,4.9529,0.0,0.0,0.0,0.0,0.0,0.0,0.0,0.0,0.0,0.0,7.4623,8.033,8.2192,0.0,0.0,8.6437,8.5638,8.3699,8.2426,8.0443,7.696,7.3263,0.0,0.0,0.0,0.0,0.0,0.0,0.0,0.0,0.0,0.0,0.0,0.0,0.0,0.0,0.0,0.0,0.0,0.0,0.0,0.0,0.0,0.0,0.0,0.0,0.0,0.0,0.0,0.0,0.0,0.0,0.0,0.0,0.0,0.0,0.0,0.0,0.0,0.0,0.0,0.0,0.0,0.0,0.0,0.0,0.0,0.0,0.0,0.0,0.0,0.0,0.0,0.0,0.0,9.3533,10.0158,10.6447,11.2456,11.2747,11.188,11.008,10.4036,9.6263,0.0,0.0,0.0,0.0,0.0,0.0,0.0,0.0,0.0,0.0,0.0,0.0,0.0,0.0,0.0,0.0,0.0,0.0,0.0,0.0,0.0,0.0,0.0,0.0,0.0,0.0,0.0,0.0,0.0,0.0,0.0,0.0,0.0,0.0,0.0,0.0,0.0,0.0,0.0,0.0,0.0,7.122,7.603,7.7713,7.9082,0.0,0.0,8.0368,8.0299,7.7687,7.5221,7.3685,0.0,0.0,0.0,0.0,0.0,0.0,0.0,0.0,0.0,0.0,0.0,0.0,0.0,0.0,0.0,0.0,0.0,0.0,0.0,0.0,0.0,0.0,0.0,0.0,0.0,0.0,0.0,0.0,0.0,0.0,0.0,0.0,0.0,0.0,0.0,0.0,0.0,0.0,0.0,0.0,0.0,0.0,0.0,0.0,0.0,0.0,0.0,0.0,0.0,0.0,0.0,0.0,0.0,0.0,9.3595,10.0163,10.6447,11.2456,11.2747,11.0887,10.6951,10.0759,0.0,0.0,0.0,0.0,0.0,0.0,0.0,0.0,0.0,0.0,0.0,0.0,0.0,0.0,0.0,0.0,0.0,0.0,0.0,0.0,0.0,0.0,0.0,0.0,0.0,0.0,0.0,3.2852,0.0,0.0,0.0,0.0,0.0,0.0,0.0,0.0,0.0,0.0,0.0,0.0,0.0,0.0,6.8005,7.175,7.4158,7.6289,0.0,0.0,7.7311,7.6199,7.4266,7.2058,0.0,0.0,0.0,0.0,0.0,0.0,0.0,0.0,0.0,0.0,0.0,0.0,0.0,0.0,0.0,0.0,0.0,0.0,0.0,0.0,0.0,0.0,0.0,0.0,0.0,0.0,0.0,0.0,0.0,0.0,0.0,0.0,0.0,0.0,0.0,0.0,0.0,0.0,0.0,0.0,0.0,0.0,0.0,0.0,0.0,0.0,0.0,0.0,0.0,0.0,0.0,0.0,0.0,0.0,7.777,9.154,9.8808,10.5448,11.1452,11.2385,11.0524,10.5881,9.9622,9.084,0.0,0.0,0.0,0.0,0.0,0.0,0.0,0.0,0.0,0.0,0.0,0.0,0.0,0.0,0.0,0.0,0.0,0.0,0.0,0.0,0.0,0.0,0.0,0.0,0.0,0.0,0.0,0.0,0.0,0.0,0.0,0.0,0.0,0.0,0.0,0.0,0.0,0.0,0.0,0.0,0.0,0.0,6.8062,6.9827,0.0,0.0,0.0,7.2627,7.1743,0.0,0.0,0.0,0.0,0.0,0.0,0.0,0.0,0.0,0.0,0.0,0.0,0.0,0.0,0.0,0.0,0.0,0.0,0.0,0.0,0.0,0.0,0.0,0.0,0.0,0.0,0.0,0.0,0.0,0.0,0.0,0.0,0.0,0.0,0.0,0.0,0.0,0.0,0.0,0.0,0.0,0.0,0.0,0.0,0.0,0.0,0.0,0.0,0.0,0.0,0.0,0.0,0.0,0.0,0.0,0.0,0.0,8.861,9.6972,10.4103,11.008,11.1946,11.0382,10.5591,9.9413,9.0216,0.0,0.0,0.0,0.0,0.0,0.0,0.0,0.0,0.0,0.0,0.0,0.0,0.0,0.0,0.0,0.0,0.0,0.0,0.0,0.0,0.0,0.0,0.0,0.0,0.0,0.0,0.0,0.0,0.0,0.0,0.0,0.0,0.0,0.0,0.0,0.0,0.0,0.0,0.0,0.0,0.0,6.0033,6.4357,6.493,6.5466,0.0,0.0,6.7139,6.7305,6.5719,0.0,0.0,0.0,0.0,0.0,0.0,0.0,0.0,0.0,0.0,0.0,0.0,0.0,0.0,0.0,0.0,0.0,0.0,0.0,0.0,0.0,0.0,0.0,0.0,0.0,0.0,0.0,0.0,0.0,0.0,0.0,0.0,0.0,0.0,0.0,0.0,0.0,0.0,0.0,0.0,0.0,0.0,0.0,0.0,0.0,0.0,0.0,0.0,0.0,0.0,0.0,0.0,0.0,0.0,0.0,0.0,8.7108,9.6411,10.4103,11.0157,11.1957,10.9877,10.4016,9.7738,8.8539,0.0,0.0,0.0,0.0,0.0,0.0,0.0,0.0,0.0,0.0,0.0,0.0,0.0,0.0,0.0,0.0,0.0,0.0,0.0,0.0,0.0,0.0,0.0,0.0,0.0,0.0,0.0,0.0,0.0,0.0,0.0,0.0,0.0,0.0,0.0,0.0,0.0,0.0,0.0,0.0,0.0,5.7354,5.8326,5.9435,0.0,0.0,0.0,0.0,6.403,6.1844,0.0,0.0,0.0,0.0,0.0,0.0,0.0,0.0,0.0,0.0,0.0,0.0,0.0,0.0,0.0,0.0,0.0,0.0,0.0,0.0,0.0,0.0,0.0,0.0,0.0,0.0,0.0,0.0,0.0,0.0,0.0,0.0,0.0,0.0,0.0,0.0,0.0,0.0,0.0,0.0,0.0,0.0,0.0,0.0,0.0,0.0,0.0,0.0,0.0,0.0,0.0,0.0,0.0,0.0,0.0,0.0,8.2198,9.319,10.1829,10.795,11.1172,10.9739,10.3577,9.7234,8.8035,0.0,0.0,0.0,0.0,0.0,0.0,0.0,0.0,0.0,0.0,0.0,0.0,0.0,0.0,0.0,0.0,0.0,0.0,0.0,0.0,0.0,0.0,0.0,0.0,0.0,0.0,0.0,0.0,0.0,0.0,0.0,0.0,0.0,0.0,0.0,0.0,0.0,0.0,0.0,0.0,5.1416,5.3584,5.5208,0.0,0.0,0.0,0.0,0.0,0.0,5.7484,5.5835,0.0,0.0,0.0,0.0,0.0,0.0,0.0,0.0,0.0,0.0,0.0,0.0,0.0,0.0,0.0,0.0,0.0,0.0,0.0,0.0,0.0,0.0,0.0,0.0,0.0,0.0,0.0,0.0,0.0,0.0,0.0,0.0,0.0,0.0,0.0,0.0,0.0,0.0,0.0,0.0,0.0,0.0,0.0,0.0,0.0,0.0,0.0,0.0,0.0,0.0,0.0,0.0,0.0,0.0,0.0,7.7144,8.9568,9.9135,10.5705,11.043,10.9843,10.3654,9.7306,8.7954,7.5314,0.0,0.0,0.0,0.0,0.0,0.0,0.0,0.0,0.0,0.0,0.0,0.0,0.0,0.0,0.0,0.0,0.0,0.0,0.0,0.0,0.0,0.0,0.0,0.0,0.0,0.0,0.0,0.0,0.0,0.0,0.0,0.0,0.0,0.0,0.0,0.0,0.0,0.0,0.0,4.8063,4.9424,0.0,0.0,0.0,0.0,0.0,0.0,0.0,0.0,5.1632,0.0,0.0,0.0,0.0,0.0,0.0,0.0,0.0,0.0,0.0,0.0,0.0,0.0,0.0,0.0,0.0,0.0,0.0,0.0,0.0,0.0,0.0,0.0,0.0,0.0,0.0,0.0,0.0,0.0,0.0,0.0,0.0,0.0,0.0,0.0,0.0,0.0,0.0,0.0,0.0,0.0,0.0,0.0,0.0,0.0,0.0,0.0,0.0,0.0,0.0,0.0,0.0,0.0,0.0,0.0,0.0,8.8346,9.8448,10.5972,11.0951,11.033,10.3933,9.7553,8.7685,7.3884,0.0,0.0,0.0,0.0,0.0,0.0,0.0,0.0,0.0,0.0,0.0,0.0,0.0,0.0,0.0,0.0,0.0,0.0,0.0,0.0,0.0,0.0,0.0,0.0,0.0,0.0,0.0,0.0,0.0,0.0,0.0,0.0,0.0,0.0,0.0,0.0,0.0,0.0,4.0475,4.3322,0.0,0.0,0.0,0.0,0.0,0.0,0.0,0.0,4.8635,0.0,0.0,0.0,0.0,0.0,0.0,0.0,0.0,0.0,0.0,0.0,0.0,0.0,0.0,0.0,0.0,0.0,0.0,0.0,0.0,0.0,0.0,0.0,0.0,0.0,0.0,0.0,0.0,0.0,0.0,0.0,0.0,0.0,0.0,0.0,0.0,0.0,0.0,0.0,0.0,0.0,0.0,0.0,0.0,0.0,0.0,0.0,0.0,0.0,0.0,0.0,0.0,0.0,0.0,0.0,0.0,0.0,0.0,9.6014,10.3888,10.9562,10.9773,10.4185,9.7166,8.6322,0.0,0.0,0.0,0.0,0.0,0.0,0.0,0.0,0.0,0.0,0.0,0.0,0.0,0.0,0.0,0.0,0.0,0.0,0.0,0.0,0.0,0.0,0.0,0.0,0.0,0.0,0.0,0.0,0.0,0.0,0.0,0.0,0.0,0.0,0.0,0.0,0.0,0.0,0.0,0.0,0.0,0.0,0.0,0.0,0.0,0.0,0.0,0.0,0.0,0.0,0.0,0.0,0.0,0.0,0.0,0.0,0.0,0.0,0.0,0.0,0.0,0.0,0.0,0.0,0.0,0.0,0.0,0.0,0.0,0.0,0.0,0.0,0.0,0.0,0.0,0.0,0.0,0.0,0.0,0.0,0.0,0.0,0.0,0.0,0.0,0.0,0.0,0.0,0.0,0.0,0.0,0.0,0.0,0.0,0.0,0.0,0.0,0.0,0.0,0.0,0.0,0.0,0.0,0.0,0.0,0.0,0.0,0.0,9.3401,10.1667,10.8211,10.9338,10.4656,9.696,8.5235,0.0,0.0,0.0,0.0,0.0,0.0,0.0,0.0,0.0,0.0,0.0,0.0,0.0,0.0,0.0,0.0,0.0,0.0,0.0,0.0,0.0,0.0,0.0,0.0,0.0,0.0,0.0,0.0,0.0,0.0,0.0,0.0,0.0,0.0,0.0,0.0,0.0,0.0,0.0,0.0,0.0,0.0,0.0,0.0,0.0,0.0,0.0,0.0,4.2705,0.0,0.0,0.0,0.0,0.0,0.0,0.0,0.0,0.0,0.0,0.0,0.0,0.0,0.0,0.0,0.0,0.0,0.0,0.0,0.0,0.0,0.0,0.0,0.0,0.0,0.0,0.0,0.0,0.0,0.0,0.0,0.0,0.0,0.0,0.0,0.0,0.0,0.0,0.0,0.0,0.0,0.0,0.0,0.0,0.0,0.0,0.0,0.0,0.0,0.0,0.0,0.0,0.0,0.0,0.0,0.0,0.0,0.0,0.0,9.1461,10.085,10.849,11.0101,10.5131,9.7403,8.5626,0.0,0.0,0.0,0.0,0.0,0.0,0.0,0.0,0.0,0.0,0.0,0.0,0.0,0.0,0.0,0.0,0.0,0.0,0.0,0.0,0.0,0.0,0.0,0.0,0.0,0.0,0.0,0.0,0.0,0.0,0.0,0.0,0.0,0.0,0.0,0.0,0.0,0.0,0.0,0.0,0.0,0.0,0.0,0.0,0.0,0.0,0.0,0.0,0.0,0.0,0.0,0.0,0.0,0.0,0.0,0.0,0.0,0.0,0.0,0.0,0.0,0.0,0.0,0.0,0.0,0.0,0.0,0.0,0.0,0.0,0.0,0.0,0.0,0.0,0.0,0.0,0.0,0.0,0.0,0.0,0.0,0.0,0.0,0.0,0.0,0.0,0.0,0.0,0.0,0.0,0.0,0.0,0.0,0.0,0.0,0.0,0.0,0.0,0.0,0.0,0.0,0.0,0.0,0.0,0.0,0.0,0.0,0.0,8.5029,9.5529,10.4312,10.6617,10.1878,9.3875,8.235,0.0,0.0,0.0,0.0,0.0,0.0,0.0,0.0,0.0,0.0,0.0,0.0,0.0,0.0,0.0,0.0,0.0,0.0,0.0,0.0,0.0,0.0,0.0,0.0,0.0,0.0,0.0,0.0,0.0,0.0,0.0,0.0,0.0,0.0,0.0,0.0,0.0,0.0,0.0,0.0,0.0,0.0,0.0,0.0,0.0,0.0,0.0,0.0,0.0,0.0,0.0,0.0,0.0,0.0,0.0,0.0,0.0,0.0,0.0,0.0,0.0,0.0,0.0,0.0,0.0,0.0,0.0,0.0,0.0,0.0,0.0,0.0,0.0,0.0,0.0,0.0,0.0,0.0,0.0,0.0,0.0,0.0,0.0,0.0,0.0,0.0,0.0,0.0,0.0,0.0,0.0,0.0,0.0,0.0,0.0,0.0,0.0,0.0,0.0,0.0,0.0,0.0,0.0,0.0,0.0,0.0,0.0,0.0,0.0,8.9924,9.7112,9.9336,9.6241,8.8543,7.7693,0.0,0.0,0.0,0.0,0.0,0.0,0.0,0.0,0.0,0.0,0.0,0.0,0.0,0.0,0.0,0.0,0.0,0.0,0.0,0.0,0.0,0.0,0.0,0.0,0.0,0.0,0.0,0.0,0.0,0.0,0.0,0.0,0.0,0.0,0.0,0.0,0.0,0.0,0.0,0.0,0.0,0.0,0.0,0.0,0.0,0.0,0.0,0.0,0.0,0.0,0.0,0.0,0.0,0.0,0.0,0.0,0.0,0.0,0.0,0.0,0.0,0.0,0.0,0.0,0.0,0.0,0.0,0.0,0.0,0.0,0.0,0.0,0.0,0.0,0.0,0.0,0.0,0.0,0.0,0.0,0.0,0.0,0.0,0.0,0.0,0.0,0.0,0.0,0.0,0.0,0.0,0.0,0.0,0.0,0.0,0.0,0.0,0.0,0.0,0.0,0.0,0.0,0.0,0.0,0.0,0.0,0.0,0.0,0.0,8.5559,8.6313,8.7224,8.8064,8.158,7.1872,0.0,0.0,0.0,0.0,0.0,0.0,0.0,0.0,0.0,0.0,0.0,0.0,0.0,0.0,0.0,0.0,0.0,0.0,0.0,0.0,0.0,0.0,0.0,0.0,0.0,0.0,0.0,0.0,0.0,0.0,0.0,0.0,0.0,0.0,0.0,0.0,0.0,0.0,0.0,0.0,0.0,0.0,0.0,0.0,0.0,0.0,0.0,0.0,0.0,0.0,0.0,0.0,0.0,0.0,0.0,0.0,0.0,0.0,0.0,0.0,0.0,0.0,0.0,0.0,0.0,0.0,0.0,0.0,0.0,0.0,0.0,0.0,0.0,0.0,0.0,0.0,0.0,0.0,0.0,0.0,0.0,0.0,0.0,0.0,0.0,0.0,0.0,0.0,0.0,0.0,0.0,0.0,0.0,0.0,0.0,0.0,0.0,0.0,0.0,0.0,0.0,0.0,0.0,0.0,0.0,0.0,0.0,0.0,0.0,6.7184,7.2315,7.5256,7.5603,7.0193,6.2391,5.2282,0.0,0.0,0.0,0.0,0.0,0.0,0.0,0.0,0.0,0.0,0.0,0.0,0.0,0.0,0.0,0.0,0.0,0.0,0.0,0.0,0.0,0.0,0.0,0.0,0.0,0.0,0.0,0.0,0.0,0.0,0.0,0.0,0.0,0.0,0.0,0.0,0.0,0.0,0.0,0.0,0.0,0.0,0.0,0.0,0.0,0.0,0.0,0.0,0.0,0.0,0.0,0.0,0.0,0.0,0.0,0.0,0.0,0.0,0.0,0.0,0.0,0.0,0.0,0.0,0.0,0.0,0.0,0.0,0.0,0.0,0.0,0.0,0.0,0.0,0.0,0.0,0.0,0.0,0.0,0.0,0.0,0.0,0.0,0.0,0.0,0.0,0.0,0.0,0.0,0.0,0.0,0.0,0.0,0.0,0.0,0.0,0.0,0.0,0.0,0.0,0.0,0.0,0.0,0.0,0.0,0.0,0.0,0.0,5.2603,5.9244,6.2904,6.306,5.8858,5.3094,0.0,0.0,0.0,0.0,0.0,0.0,0.0,0.0,0.0,0.0,0.0,0.0,0.0,0.0,0.0,0.0,0.0,0.0,0.0,0.0,0.0,0.0,0.0,0.0,0.0,0.0,0.0,0.0,0.0,0.0,0.0,0.0,0.0,0.0,0.0,0.0,0.0,0.0,0.0,0.0,0.0,0.0,0.0,0.0,0.0,0.0,0.0,0.0,0.0,0.0,0.0,0.0,0.0,0.0,0.0,0.0,0.0,0.0,0.0,0.0,0.0,0.0,0.0,0.0,0.0,0.0,0.0,0.0,0.0,0.0,0.0,0.0,0.0,0.0,0.0,0.0,0.0,0.0,0.0,0.0,0.0,0.0,0.0,0.0,0.0,0.0,0.0,0.0,0.0,0.0,0.0,0.0,0.0,0.0,0.0,0.0,0.0,0.0,0.0,0.0,0.0,0.0,0.0,0.0,0.0,0.0,0.0,0.0,3.6418,4.4121,4.7785,5.028,5.1481,4.8408,4.4294,0.0,0.0,0.0,0.0,0.0,0.0,0.0,0.0,0.0,0.0,0.0,0.0,0.0,0.0,0.0,0.0,0.0,0.0,0.0,0.0,0.0,0.0,0.0,0.0,0.0,0.0,0.0,0.0,0.0,0.0,0.0,0.0,0.0,0.0,0.0,0.0,0.0,0.0,0.0,0.0,0.0,0.0,0.0,0.0,0.0,0.0,0.0,0.0,0.0,0.0,0.0,0.0,0.0,0.0,0.0,0.0,0.0,0.0,0.0,0.0,0.0,0.0,0.0,0.0,0.0,0.0,0.0,0.0,0.0,0.0,0.0,0.0,0.0,0.0,0.0,0.0,0.0,0.0,0.0,0.0,0.0,0.0,0.0,0.0,0.0,0.0,0.0,0.0,0.0,0.0,0.0,0.0,0.0,0.0,0.0,0.0,0.0,0.0,0.0,0.0,0.0,0.0,0.0,0.0,0.0,0.0,0.0,0.0,0.0,3.5893,0.0,4.1155,0.0,3.944,3.7068,0.0,0.0,0.0,0.0,0.0,0.0,0.0,0.0,0.0,0.0,0.0,0.0,0.0,0.0,0.0,0.0,0.0,0.0,0.0,0.0,0.0,0.0,0.0,0.0,0.0,0.0,0.0,0.0,0.0,0.0,0.0,0.0,0.0,0.0,0.0,0.0,0.0,0.0,0.0,0.0,0.0,0.0,0.0,0.0,0.0,0.0,0.0,0.0,0.0,0.0,0.0,0.0,0.0,0.0,0.0,0.0,0.0,0.0,0.0,0.0,0.0,0.0,0.0,0.0,0.0,0.0,0.0,0.0,0.0,0.0,0.0,0.0,0.0,0.0,0.0,0.0,0.0,0.0,0.0,0.0,0.0,0.0,0.0,0.0,0.0,0.0,0.0,0.0,0.0,0.0,0.0,0.0,0.0,0.0,0.0,0.0,0.0,0.0,0.0,0.0,0.0,0.0,0.0,0.0,0.0,0.0,0.0,0.0,0.0,3.1105,3.319,3.4311,3.4236,3.3235,3.2157,0.0,0.0,0.0,0.0,0.0,0.0,0.0,0.0,0.0,0.0,0.0,0.0,0.0,0.0,0.0,0.0,0.0,0.0,0.0,0.0,0.0,0.0,0.0,0.0,0.0,0.0,0.0,0.0,0.0,0.0,0.0,0.0,0.0,0.0,0.0,0.0,0.0,0.0,0.0,0.0,0.0,0.0,0.0,0.0,0.0,0.0,0.0,0.0,0.0,0.0,0.0,0.0,0.0,0.0,0.0,0.0,0.0,0.0,0.0,0.0,0.0,0.0,0.0,0.0,0.0,0.0,0.0,0.0,0.0,0.0,0.0,0.0,0.0,0.0,0.0,0.0,0.0,0.0,0.0,0.0,0.0,0.0,0.0,0.0,0.0,0.0,0.0,0.0,0.0,0.0,0.0,0.0,0.0,0.0,0.0,0.0,0.0,0.0,0.0,0.0,0.0,0.0,0.0,0.0,0.0,0.0,0.0,0.0,0.0,0.0,2.9608,2.9605,2.9675,2.958,2.9496,0.0,0.0,0.0,0.0,0.0,0.0,0.0,0.0,0.0,0.0,0.0,0.0,0.0,0.0,0.0,0.0,0.0,0.0,0.0,0.0,0.0,0.0,0.0,0.0,0.0,0.0,0.0,0.0,0.0,0.0,0.0,0.0,0.0,0.0,0.0,0.0,0.0,0.0,0.0,0.0,0.0,0.0,0.0,0.0,0.0,0.0,0.0,0.0,0.0,0.0,0.0,0.0,0.0,0.0,0.0,0.0,0.0,0.0,0.0,0.0,0.0,0.0,0.0,0.0,0.0,0.0,0.0,0.0,0.0,0.0,0.0,0.0,0.0,0.0,0.0,0.0,0.0,0.0,0.0,0.0,0.0,0.0,0.0,0.0,0.0,0.0,0.0,0.0,0.0,0.0,0.0,0.0,0.0,0.0,0.0,0.0,0.0,0.0,0.0,0.0,0.0,0.0,0.0,0.0,0.0,0.0,0.0,0.0,0.0,0.0,2.9535,0.0,2.9532,2.9525,2.8988,2.7767,0.0,0.0,0.0,0.0,0.0,0.0,0.0,0.0,0.0,0.0,0.0,0.0,0.0,0.0,0.0,0.0,0.0,0.0,0.0,0.0,0.0,0.0,0.0,0.0,0.0,0.0,0.0,0.0,0.0,0.0,0.0,0.0,0.0,0.0,0.0,0.0,0.0,0.0,0.0,0.0,0.0,0.0,0.0,0.0,0.0,0.0,0.0,0.0,0.0,0.0,0.0,0.0,0.0,0.0,0.0,0.0,0.0,0.0,0.0,0.0,0.0,0.0,0.0,0.0,0.0,0.0,0.0,0.0,0.0,0.0,0.0,0.0,0.0,0.0,0.0,0.0,0.0,0.0,0.0,0.0,0.0,0.0,0.0,0.0,0.0,0.0,0.0,0.0,0.0,0.0,0.0,0.0,0.0,0.0,0.0,0.0,0.0,0.0,0.0,0.0,0.0,0.0,0.0,0.0,0.0,0.0,0.0,0.0,0.0,0.0,2.9535,2.9535,2.9535,2.8775,0.0,0.0,0.0,0.0,0.0,0.0,0.0,0.0,0.0,0.0,0.0,0.0,0.0,0.0,0.0,0.0,0.0,0.0,0.0,0.0,0.0,0.0,0.0,0.0,0.0,0.0,0.0,0.0,0.0,0.0,0.0,0.0,0.0,0.0,0.0,0.0,0.0,0.0,0.0,0.0,0.0,0.0,0.0,0.0,0.0,0.0,0.0,0.0,0.0,0.0,0.0,0.0,0.0,0.0,0.0,0.0,0.0,0.0,0.0,0.0,0.0,0.0,0.0,0.0,0.0,0.0,0.0,0.0,0.0,0.0,0.0,0.0,0.0,0.0,0.0,0.0,0.0,0.0,0.0,0.0,0.0,0.0,0.0,0.0,0.0,0.0,0.0,0.0,0.0,0.0,0.0,0.0,0.0,0.0,0.0,0.0,0.0,0.0,0.0,0.0,0.0,0.0,0.0,0.0,0.0,0.0,0.0,0.0,0.0,0.0,0.0,2.9535,2.9535,2.9381,0.0,2.6984,0.0,0.0,0.0,0.0,0.0,0.0,0.0,0.0,0.0,0.0,0.0,0.0,0.0,0.0,0.0,0.0,0.0,0.0,0.0,0.0,0.0,0.0,0.0,0.0,0.0,0.0,0.0,0.0,0.0,0.0,0.0,0.0,0.0,0.0,0.0,0.0,0.0,0.0,0.0,0.0,0.0,0.0,0.0,0.0,0.0,0.0,0.0,0.0,0.0,0.0,0.0,0.0,0.0,0.0,0.0,0.0,0.0,0.0,0.0,0.0,0.0,0.0,0.0,0.0,0.0,0.0,0.0,0.0,0.0,0.0,0.0,0.0,0.0,0.0,0.0,0.0,0.0,0.0,0.0,0.0,0.0,0.0,0.0,0.0,0.0,0.0,0.0,0.0,0.0,0.0,0.0,0.0,0.0,0.0,0.0,0.0,0.0,0.0,0.0,0.0,0.0,0.0,0.0,0.0,0.0,0.0,0.0,0.0,0.0,0.0,0.0,0.0,2.8328,2.7427,2.6902,0.0,0.0,0.0,0.0,0.0,0.0,0.0,0.0,0.0,0.0,0.0,0.0,0.0,0.0,0.0,0.0,0.0,0.0,0.0,0.0,0.0,0.0,0.0,0.0,0.0,0.0,0.0,0.0,0.0,0.0,0.0,0.0,0.0,0.0,0.0,0.0,0.0,0.0,0.0,0.0,0.0,0.0,0.0,0.0,0.0,0.0,0.0,0.0,0.0,0.0,0.0,0.0,0.0,0.0,0.0,0.0,0.0,0.0,0.0,0.0,0.0,0.0,0.0,0.0,0.0,0.0,0.0,0.0,0.0,0.0,0.0,0.0,0.0,0.0,0.0,0.0,0.0,0.0,0.0,0.0,0.0,0.0,0.0,0.0,0.0,0.0,0.0,0.0,0.0,0.0,0.0,0.0,0.0,0.0,0.0,0.0,0.0,0.0,0.0,0.0,0.0,0.0,0.0,0.0,0.0,0.0,0.0,0.0,0.0,0.0,2.9159,2.8409,2.7505,2.6307,2.482,0.0,0.0,0.0,0.0,0.0,0.0,0.0,0.0,0.0,0.0,0.0,0.0,0.0,0.0,0.0,0.0,0.0,0.0,0.0,0.0,0.0,0.0,0.0,0.0,0.0,0.0,0.0,0.0,0.0,0.0,0.0,0.0,0.0,0.0,0.0,0.0,0.0,0.0,0.0,0.0,0.0,0.0,0.0,0.0,0.0,0.0,0.0,0.0,0.0,0.0,0.0,0.0,0.0,0.0,0.0,0.0,0.0,0.0,0.0,0.0,0.0,0.0,0.0,0.0,0.0,0.0,0.0,0.0,0.0,0.0,0.0,0.0,0.0,0.0,0.0,0.0,0.0,0.0,0.0,0.0,0.0,0.0,0.0,0.0,0.0,0.0,0.0,0.0,0.0,0.0,0.0,0.0,0.0,0.0,0.0,0.0,0.0,0.0,0.0,0.0,0.0,0.0,0.0,0.0,0.0,0.0,0.0,0.0,0.0,0.0,0.0,0.0,0.0,0.0,2.2288,0.0,0.0,0.0,0.0,0.0,0.0,0.0,0.0,0.0,0.0,0.0,0.0,0.0,0.0,0.0,0.0,0.0,0.0,0.0,0.0,0.0,0.0,0.0,0.0,0.0,0.0,0.0,0.0,0.0,0.0,0.0,0.0,0.0,0.0,0.0,0.0,0.0,0.0,0.0,0.0,0.0,0.0,0.0,0.0,0.0,0.0,0.0,0.0,0.0,0.0,0.0,0.0,0.0,0.0,0.0,0.0,0.0,0.0,0.0,0.0,0.0,0.0,0.0,0.0,0.0,0.0,0.0,0.0,0.0,0.0,0.0,0.0,0.0,0.0,0.0,0.0,0.0,0.0,0.0,0.0,0.0,0.0,0.0,0.0,0.0,0.0,0.0,0.0,0.0,0.0,0.0,0.0,0.0,0.0,0.0,0.0,0.0,0.0,0.0,0.0,0.0,0.0,0.0,0.0,0.0,0.0,0.0,0.0,0.0,0.0,0.0,0.0,0.0,0.0,0.0,0.0,0.0,0.0,0.0,0.0,0.0,0.0,0.0,0.0,0.0,0.0,0.0,0.0,0.0,0.0,0.0,0.0,0.0,0.0,0.0,0.0,0.0,0.0,0.0,0.0,0.0,0.0,0.0,0.0,0.0,0.0,0.0,0.0,0.0,0.0,0.0,0.0,0.0,0.0,0.0,0.0,0.0,0.0,0.0,0.0,0.0,0.0,0.0,0.0,0.0,0.0,0.0,0.0,0.0,0.0,0.0,0.0,0.0,0.0,0.0,0.0,0.0,0.0,0.0,0.0,0.0,0.0,0.0,0.0,0.0,0.0,0.0,0.0,0.0,0.0,0.0,0.0,0.0,0.0,0.0,0.0,0.0,0.0,0.0,0.0,0.0,0.0,0.0,0.0,0.0,0.0,0.0,0.0,0.0,0.0,0.0,0.0,0.0,0.0,0.0,0.0,0.0,0.0,0.0,0.0,0.0,0.0,0.0,0.0,0.0,0.0,0.0,0.0,0.0,0.0,0.0,0.0,0.0,0.0,0.0,0.0,0.0,0.0,0.0,0.0,0.0,0.0,0.0,0.0,0.0,0.0,0.0,0.0,0.0,0.0,0.0,0.0,0.0,0.0,0.0,0.0,0.0,0.0,0.0,0.0,0.0,0.0,0.0,0.0,0.0,0.0,0.0,0.0,0.0,0.0,0.0,0.0,0.0,0.0,0.0,0.0,0.0,0.0,0.0,0.0,0.0,0.0,0.0,0.0,0.0,0.0,0.0,0.0,0.0,0.0,0.0,0.0,0.0,0.0,0.0,0.0,0.0,0.0,0.0,0.0,0.0,0.0,0.0,0.0,0.0,0.0,0.0,0.0,0.0,0.0,0.0,0.0,0.0,0.0,0.0,0.0,0.0,0.0,0.0,0.0,0.0,0.0,0.0,0.0,0.0,0.0,0.0,0.0,0.0,0.0,0.0,0.0,0.0,0.0,0.0,0.0,0.0,0.0,0.0,0.0,0.0,0.0,0.0,0.0,0.0,0.0,0.0,0.0,0.0,0.0,0.0,0.0,0.0,0.0,0.0,0.0,0.0,0.0,0.0,0.0,0.0,0.0,0.0,0.0,0.0,0.0,0.0,0.0,0.0,0.0,0.0,0.0,0.0,0.0,0.0,0.0,0.0,0.0,0.0,0.0,0.0,0.0,0.0,0.0,0.0,0.0,0.0,0.0,0.0,0.0,0.0,0.0,0.0,0.0,0.0,0.0,0.0,0.0,0.0,0.0,0.0,0.0,0.0,0.0,0.0,0.0,0.0,0.0,0.0,0.0,0.0,0.0,0.0,0.0,0.0,0.0,0.0,0.0,0.0,0.0,0.0,0.0,0.0,0.0,0.0,0.0,0.0,0.0,0.0,0.0,0.0,0.0,0.0,0.0,0.0,0.0,0.0,0.0,0.0,0.0,0.0,0.0,0.0,0.0,0.0,0.0,0.0,0.0,0.0,0.0,0.0,0.0,0.0,0.0,0.0,0.0,0.0,0.0,0.0,0.0,0.0,0.0,0.0,0.0,0.0,0.0,0.0,0.0,0.0,0.0,0.0,0.0,0.0,0.0,0.0,0.0,0.0,0.0,0.0,0.0,0.0,0.0,0.0,0.0,0.0,0.0,0.0,0.0,0.0,0.0,0.0,0.0,0.0,0.0,0.0,0.0,0.0,0.0,0.0,0.0,0.0,0.0,0.0,0.0,0.0,0.0,0.0,0.0,0.0,0.0,0.0,0.0,0.0,0.0,0.0,0.0,0.0,0.0,0.0,0.0,0.0,0.0,0.0,0.0,0.0,0.0,0.0,0.0,0.0,0.0,0.0,0.0,0.0,0.0,0.0,0.0,0.0,0.0,0.0,0.0,0.0,0.0,0.0,0.0,0.0,0.0,0.0,0.0,0.0,0.0,0.0,0.0,0.0,0.0,0.0,0.0,0.0,0.0,0.0,0.0,0.0,0.0,0.0,0.0,0.0,0.0,0.0,0.0,0.0,0.0,0.0,0.0,0.0,0.0,0.0,0.0,0.0,0.0,0.0,0.0,0.0,0.0,0.0,0.0,0.0,0.0,0.0,0.0,0.0,0.0,0.0,0.0,0.0,0.0,0.0,0.0,0.0,0.0,0.0,0.0,0.0,0.0,0.0,0.0,0.0,0.0,0.0,0.0,0.0,0.0,0.0,0.0,0.0,0.0,0.0,0.0,0.0,0.0,0.0,0.0,0.0,0.0,0.0,0.0,0.0,0.0,0.0,0.0,0.0,0.0,0.0,0.0,0.0,0.0,0.0,0.0,0.0,0.0,0.0,0.0,0.0,0.0,0.0,0.0,0.0,0.0,0.0,0.0,0.0,0.0,0.0,0.0,0.0,0.0,0.0,0.0,0.0,0.0,0.0,0.0,0.0,0.0,0.0,0.0,0.0,0.0,0.0,0.0,0.0,0.0,0.0,0.0,0.0,0.0,0.0,0.0,0.0,0.0,0.0,0.0,0.0,0.0,0.0,0.0,0.0,0.0,0.0,0.0,0.0,0.0,0.0,0.0,0.0,0.0,0.0,0.0,0.0,0.0,0.0,0.0,0.0,0.0,0.0,0.0,0.0,0.0,0.0,0.0,0.0,0.0,0.0,0.0,0.0,0.0,0.0,0.0,0.0,0.0,0.0,0.0,0.0,0.0,0.0,0.0,0.0,0.0,0.0,0.0,0.0,0.0,0.0,0.0,0.0,0.0,0.0,0.0,0.0,0.0,0.0,0.0,0.0,0.0,0.0,0.0,0.0,0.0,0.0,0.0,0.0,0.0,0.0,0.0,0.0,0.0,0.0,0.0,0.0,0.0,0.0,0.0,0.0,0.0,0.0,0.0,0.0,0.0,0.0,0.0,0.0,0.0,0.0,0.0,0.0,0.0,0.0,0.0,0.0,0.0,0.0,0.0,0.0,0.0,0.0,0.0,0.0,0.0,0.0,0.0,0.0,0.0,0.0,0.0,0.0,0.0,0.0,0.0,0.0,0.0,0.0,0.0,0.0,0.0,0.0,0.0,0.0,0.0,0.0,0.0,0.0,0.0,0.0,0.0,0.0,0.0,0.0,0.0,0.0,0.0,0.0,0.0,0.0,0.0,0.0,0.0,0.0,0.0,0.0,0.0,0.0,0.0,0.0,0.0,0.0,0.0,0.0,0.0,0.0,0.0,0.0,0.0,0.0,0.0,0.0,0.0,0.0,0.0,0.0,0.0,0.0,0.0,0.0,0.0,0.0,0.0,0.0,0.0,0.0,0.0,0.0,0.0,0.0,0.0,0.0,0.0,0.0,0.0,0.0,0.0,0.0,0.0,0.0,0.0,0.0,0.0,0.0,0.0,0.0,0.0,0.0,0.0,0.0,0.0,0.0,0.0,0.0,0.0,0.0,0.0,0.0,0.0,0.0,0.0,0.0,0.0,0.0,0.0,0.0,0.0,0.0,0.0,0.0,0.0,0.0,0.0,0.0,0.0,0.0,0.0,0.0,0.0,0.0,0.0,0.0,0.0,0.0,0.0,0.0,0.0,0.0,0.0,0.0,0.0,0.0,0.0,0.0,0.0,0.0,0.0,0.0,0.0,0.0,0.0,0.0,0.0,0.0,0.0,0.0,0.0,0.0,0.0,0.0,0.0,0.0,0.0,0.0,0.0,0.0,0.0,0.0,0.0,0.0,0.0,0.0,0.0,0.0,0.0,0.0,0.0,0.0,0.0,0.0,0.0,0.0,0.0,0.0,0.0,0.0,0.0,0.0,0.0,0.0,0.0,0.0,0.0,0.0,0.0,0.0,0.0,0.0,0.0,0.0,0.0,0.0,0.0,0.0,0.0,0.0,0.0]}],[{"header":{"parameterUnit":"kt","parameterCategory":2,"dx":1,"dy":1,"la1":29.587661999999998,"la2":31.0,"lo1":-88.76705300000003,"lo2":-86.6583820000003,"nx":115,"ny":88,"refTime":"2022-10-10T12:00:00:Z","depth":0,"parameterNumber":2,"parameterNumberName":"V-component_of_WINDS"},"data":[8.9995,8.9995,8.9995,8.9995,8.9995,8.9995,8.9995,9.013,9.0678,9.1074,9.1492,9.2592,9.2918,9.2294,9.3092,9.3168,9.2468,9.2088,9.1665,9.1112,9.0375,9.0071,8.9995,8.9995,8.9995,8.9995,8.9995,8.9995,8.9995,8.9995,8.9995,8.9995,8.9995,8.9995,8.9995,8.9995,8.9995,8.9995,8.9995,8.9995,8.9995,8.9995,8.9995,8.9995,8.9995,8.9995,8.9995,8.9995,8.9995,8.9995,8.9995,8.9995,8.9995,8.9995,8.9995,8.9995,8.9995,8.9995,8.9995,8.9995,9.0949,9.2262,9.268,9.3272,9.4335,9.5019,9.4974,9.4817,9.4817,9.4817,9.4795,9.4683,9.4571,9.337,9.2399,9.1128,8.983,8.863,8.8128,8.7968,8.6584,8.1031,7.4595,6.9487,6.5848,6.2985,6.1673,6.1638,6.1641,6.1641,6.1644,6.1644,6.1644,6.1644,6.1644,6.1644,6.1644,6.1644,6.1644,6.1644,6.1644,6.1644,6.1644,6.1644,6.1644,6.1644,6.1644,6.1644,6.1644,6.1644,6.1644,6.1644,6.1644,6.1644,6.1644,8.9995,8.9995,8.9995,8.9995,8.9995,8.9995,8.9995,9.0016,9.013,9.0527,9.1129,9.1416,9.1432,9.1644,9.2219,9.243,9.2354,9.1817,9.1514,9.0961,9.0337,9.0071,8.9995,8.9995,8.9995,8.9995,8.9995,8.9995,8.9995,8.9995,8.9995,8.9995,8.9995,8.9995,8.9995,8.9995,8.9995,8.9995,8.9995,8.9995,8.9995,8.9995,8.9995,8.9995,8.9995,8.9995,8.9995,8.9995,8.9995,8.9995,8.9995,8.9995,8.9995,8.9995,8.9995,8.9995,8.9995,8.9995,8.9995,8.9995,9.1025,9.1996,9.2376,9.3174,9.4465,9.5019,9.5019,9.4974,9.4974,9.4974,9.4974,9.493,9.493,9.4496,9.3686,9.2775,9.1424,9.0104,9.0575,9.1253,8.7943,8.3648,7.74,7.1019,6.6843,6.316,6.1638,6.1624,6.1638,6.1641,6.1644,6.1644,6.1644,6.1644,6.1644,6.1644,6.1644,6.1644,6.1644,6.1644,6.1644,6.1644,6.1644,6.1644,6.1644,6.1644,6.1644,6.1644,6.1644,6.1644,6.1644,6.1644,6.1644,6.1644,6.1644,8.9995,8.9995,8.9995,8.9995,8.9995,8.9995,8.9995,8.9995,8.9995,9.0185,9.0489,9.0527,9.0505,9.0619,9.14,9.1703,9.1665,9.1281,9.1129,9.0885,9.0451,9.0071,8.9995,8.9995,8.9995,8.9995,8.9995,8.9995,8.9995,8.9995,8.9995,8.9995,8.9995,8.9995,8.9995,8.9995,8.9995,8.9995,8.9995,8.9995,8.9995,8.9995,8.9995,8.9995,8.9995,8.9995,8.9995,8.9995,8.9995,8.9995,8.9995,8.9995,8.9995,8.9995,8.9995,8.9995,8.9995,8.9995,8.9995,9.0109,9.0586,9.1497,9.2067,9.2886,9.4199,9.4867,9.4905,9.5019,9.5019,9.5019,9.5019,9.5019,9.5019,9.5019,9.4429,9.3776,9.2738,9.171,9.1884,9.2351,9.0414,8.5938,8.0235,7.3864,6.8121,6.4459,6.1877,6.1655,6.163,6.1644,6.1644,6.1644,6.1644,6.1644,6.1644,6.1644,6.1644,6.1644,6.1644,6.1644,6.1644,6.1644,6.1644,6.1644,6.1644,6.1644,6.1644,6.1644,6.1644,6.1644,6.1644,6.1644,6.1644,6.1644,6.1644,8.9995,8.9995,8.9995,8.9995,8.9995,8.9995,8.9995,8.9995,8.9995,9.0016,8.9995,8.9995,9.0033,9.0109,9.0716,9.0906,9.0906,9.0754,9.0863,9.0581,9.0299,8.9995,8.9995,8.9995,8.9995,8.9995,8.9995,8.9995,8.9995,8.9995,8.9995,8.9995,8.9995,8.9995,8.9995,8.9995,8.9995,8.9995,8.9995,8.9995,8.9995,8.9995,8.9995,8.9995,8.9995,8.9995,8.9995,8.9995,8.9995,8.9995,8.9995,8.9995,8.9995,8.9995,8.9995,8.9995,8.9995,8.9995,8.9995,9.0071,9.0489,9.121,9.2007,9.2826,9.3607,9.4313,9.4753,9.4943,9.5019,9.5019,9.5019,9.5019,9.5019,9.5019,9.4907,9.4451,9.3934,9.3392,9.2915,9.2739,9.242,8.8202,8.28,7.6805,7.052,6.6288,6.3478,6.1802,6.1828,6.1933,6.2011,6.1907,6.1829,6.167,6.1644,6.1644,6.1644,6.1644,6.1644,6.1644,6.1644,6.1644,6.1644,6.1644,6.1644,6.1644,6.1644,6.1644,6.1644,6.1644,6.1644,6.1644,6.1644,6.1644,6.1644,8.9995,8.9995,8.9995,8.9995,8.9995,8.9995,8.9995,8.9995,8.9995,8.9995,8.9995,8.9995,8.9995,9.0033,9.0147,9.0244,9.0282,9.0282,9.0299,9.0071,8.9995,8.9995,8.9995,8.9995,8.9995,8.9995,8.9995,8.9995,8.9995,8.9995,8.9995,8.9995,8.9995,8.9995,8.9995,8.9995,8.9995,8.9995,8.9995,8.9995,8.9995,8.9995,8.9995,8.9995,8.9995,8.9995,8.9995,8.9995,8.9995,8.9995,8.9995,8.9995,8.9995,8.9995,8.9995,8.9995,8.9995,8.9995,8.9995,8.9995,9.0451,9.1096,9.1991,9.2598,9.313,9.3759,9.4351,9.4639,9.4981,9.5019,9.5019,9.5019,9.5019,9.5019,9.5019,9.481,9.4518,9.4331,9.3963,9.3758,9.2818,8.9037,8.3491,7.6258,6.9669,6.6562,6.4089,6.241,6.2203,6.2434,6.2406,6.2276,6.204,6.1777,6.1699,6.1644,6.1644,6.1644,6.1644,6.1644,6.1644,6.1644,6.1644,6.1644,6.1644,6.1644,6.1644,6.1644,6.1644,6.1644,6.1644,6.1644,6.1644,6.1644,6.1644,8.9995,8.9995,8.9995,8.9995,8.9995,8.9995,8.9995,8.9995,8.9995,8.9995,8.9995,8.9995,8.9995,8.9995,8.9995,8.9995,8.9995,8.9995,8.9995,8.9995,8.9995,8.9995,8.9995,8.9995,8.9995,8.9995,8.9995,8.9995,8.9995,8.9995,8.9995,8.9995,8.9995,8.9995,8.9995,8.9995,8.9995,8.9995,8.9995,8.9995,8.9995,8.9995,8.9995,8.9995,8.9995,8.9995,8.9995,8.9995,8.9995,8.9995,8.9995,8.9995,8.9995,8.9995,8.9995,8.9995,8.9995,8.9995,8.9995,8.9995,9.0147,9.0565,9.1172,9.1817,9.2349,9.307,9.3721,9.4313,9.4715,9.5019,9.5019,9.5019,9.5019,9.5019,9.5019,9.5019,9.5019,9.5019,9.4902,9.4768,9.2523,8.9091,8.3179,7.5775,7.0034,6.7293,6.5076,6.359,6.3254,6.3393,6.3289,6.2791,6.2377,6.2034,6.1725,6.1644,6.1644,6.1644,6.1644,6.1644,6.1644,6.1644,6.1644,6.1644,6.1644,6.1644,6.1644,6.1644,6.1644,6.1644,6.1644,6.1644,6.1644,6.1644,6.1644,8.9995,8.9995,8.9995,8.9995,8.9995,8.9995,8.9995,8.9995,8.9995,8.9995,8.9995,8.9995,8.9995,8.9995,8.9995,8.9995,8.9995,8.9995,8.9995,8.9995,8.9995,8.9995,8.9995,8.9995,8.9995,8.9995,8.9995,8.9995,8.9995,8.9995,8.9995,8.9995,8.9995,8.9995,8.9995,8.9995,8.9995,8.9995,8.9995,8.9995,8.9995,8.9995,8.9995,8.9995,8.9995,8.9995,8.9995,8.9995,8.9995,8.9995,8.9995,8.9995,8.9995,8.9995,8.9995,8.9995,8.9995,8.9995,8.9995,8.9995,9.0033,9.0223,9.0527,9.0868,9.1416,9.2197,9.3092,9.3721,9.4253,9.4753,9.4943,9.4981,9.5019,9.5019,9.5019,9.5019,9.5019,9.5019,9.5035,9.4835,9.4527,9.0562,8.4088,7.7021,7.2061,6.8662,6.6268,6.5134,6.458,6.4551,6.4325,6.3429,6.2944,6.2694,6.2382,6.195,6.1823,6.1624,6.1644,6.1644,6.1644,6.1644,6.1644,6.1644,6.1644,6.1644,6.1644,6.1644,6.1644,6.1644,6.1644,6.1644,6.1644,6.1644,6.1644,8.9995,8.9995,8.9995,8.9995,8.9995,8.9995,8.9995,8.9995,8.9995,8.9995,8.9995,8.9995,8.9995,8.9995,8.9995,8.9995,8.9995,8.9995,8.9995,8.9995,8.9995,8.9995,8.9995,8.9995,8.9995,8.9995,8.9995,8.9995,8.9995,8.9995,8.9995,8.9995,8.9995,8.9995,8.9995,8.9995,8.9995,8.9995,8.9995,8.9995,8.9995,8.9995,8.9995,8.9995,8.9995,8.9995,8.9995,8.9995,8.9995,8.9995,8.9995,8.9995,8.9995,8.9995,8.9995,8.9995,8.9995,8.9995,8.9995,8.9995,8.9995,8.9995,9.013,9.0489,9.0982,9.1416,9.2235,9.2978,9.3775,9.4313,9.4867,9.4943,9.5019,9.5019,9.5019,9.5019,9.5019,9.5019,9.5019,9.4902,9.4633,9.0872,8.4351,7.9606,7.4484,7.1294,6.8808,6.7628,6.6956,6.6761,6.5034,6.4136,6.3699,6.3428,6.2971,6.2538,6.2263,6.1649,6.1641,6.1644,6.1644,6.1644,6.1644,6.1644,6.1644,6.1644,6.1644,6.1644,6.1644,6.1644,6.1644,6.1644,6.1644,6.1644,6.1644,8.9995,8.9995,8.9995,8.9995,8.9995,8.9995,8.9995,8.9995,8.9995,8.9995,8.9995,8.9995,8.9995,8.9995,8.9995,8.9995,8.9995,8.9995,8.9995,8.9995,8.9957,8.9941,8.9941,8.9995,8.9768,8.9995,8.9995,8.9979,8.9903,8.9979,8.9995,8.9995,8.9995,8.9995,8.9995,8.9995,8.9995,8.9995,8.9995,8.9995,8.9995,8.9995,8.9995,8.9995,8.9995,8.9995,8.9995,8.9995,8.9995,8.9995,8.9995,8.9995,8.9995,8.9995,8.9995,8.9995,8.9995,8.9995,8.9995,8.9995,8.9995,8.9995,8.9995,9.0147,9.0337,9.0847,9.1551,9.2235,9.3168,9.3699,9.4177,9.4905,9.4981,9.5019,9.5019,9.5019,9.5019,9.5019,9.5057,9.5043,9.4272,8.9781,8.4625,8.0599,7.6907,7.4095,7.1529,7.0598,6.9753,6.779,6.5818,6.5109,6.457,6.426,6.3853,6.3253,6.2512,6.1771,6.1626,6.1621,6.1644,6.167,6.1644,6.1644,6.1644,6.1644,6.1644,6.1644,6.1644,6.1644,6.1644,6.1644,6.1644,6.1644,6.1644,8.9995,8.9995,8.9995,8.9995,8.9995,8.9995,8.9995,8.9995,8.9995,8.9995,8.9995,8.9995,8.9995,8.9995,8.9995,8.9995,8.9995,8.9995,8.9995,8.9919,8.9637,8.9658,8.943,8.9198,8.9025,8.9198,8.9544,8.9544,8.9658,8.9924,8.9979,8.9995,8.9995,8.9995,8.9995,8.9995,8.9995,8.9995,8.9995,8.9995,8.9995,8.9995,8.9995,8.9995,8.9995,8.9995,8.9995,8.9995,8.9995,8.9995,8.9995,8.9995,8.9995,8.9995,8.9995,8.9995,8.9995,8.9995,8.9995,8.9995,8.9995,8.9995,8.9995,8.9995,8.9995,9.0505,9.0885,9.1438,9.2235,9.2728,9.3335,9.4123,9.4503,9.4579,9.4943,9.4943,9.4981,9.4981,9.5057,9.5043,9.5015,9.1233,8.733,8.3763,7.9494,7.6239,7.5538,7.46,7.1902,6.9444,6.7316,6.6578,6.5524,6.5168,6.4647,6.3906,6.3164,6.2175,6.1783,6.1843,6.1774,6.1748,6.1722,6.1647,6.167,6.1644,6.1644,6.1644,6.1644,6.1644,6.1644,6.1644,6.1644,6.1644,6.1644,8.9979,8.9995,8.9995,8.9995,8.9995,8.9995,8.9995,8.9995,8.9995,8.9995,8.9995,8.9995,8.9995,8.9995,8.9995,8.9995,8.9995,8.9903,8.9827,8.9599,8.9126,8.8844,8.8557,8.8211,8.8039,8.7794,8.8308,8.8823,8.8936,8.9506,8.9903,8.9979,8.9865,8.9865,8.9957,8.9995,8.9995,8.9995,8.9995,8.9995,8.9995,8.9995,8.9995,8.9995,8.9995,8.9995,8.9995,8.9995,8.9995,8.9995,8.9995,8.9995,8.9995,8.9995,8.9995,8.9995,8.9995,8.9995,8.9995,8.9995,8.9995,8.9995,8.9995,8.9995,8.9995,9.0071,9.0337,9.0847,9.1378,9.1817,9.2408,9.3152,9.3531,9.3873,9.4503,9.4769,9.4829,9.4867,9.4981,9.5012,9.5031,9.4301,9.0398,8.6514,8.203,7.9991,7.9527,7.7305,7.41,7.1634,6.9593,6.834,6.665,6.6172,6.5483,6.4648,6.3637,6.2549,6.2066,6.2348,6.2398,6.2089,6.1855,6.1702,6.1673,6.1644,6.1644,6.1644,6.1644,6.1644,6.1644,6.1644,6.1644,6.1644,6.1644,8.9485,8.9979,8.9995,8.9995,8.9995,8.9995,8.9995,8.9995,8.9995,8.9995,8.9995,8.9995,8.9995,8.9995,8.9995,8.9995,8.9827,8.9485,8.924,8.8861,8.8405,8.7966,8.7794,8.7545,8.7262,8.7528,8.787,8.8211,8.8595,8.9012,8.9392,8.9582,8.9527,8.962,8.9789,8.9995,8.9995,8.9995,8.9995,8.9995,8.9995,8.9995,8.9995,8.9995,8.9995,8.9995,8.9995,8.9995,8.9995,8.9995,8.9995,8.9995,8.9995,8.9995,8.9995,8.9995,8.9995,8.9995,8.9995,8.9995,8.9995,8.9995,8.9995,8.9995,8.9995,8.9995,9.0033,9.0489,9.0885,9.1264,9.1492,9.2332,9.281,9.2978,9.3645,9.4139,9.4237,9.4601,9.4753,9.4905,9.5043,9.4835,9.1469,8.8898,8.548,8.4241,8.2808,7.9854,7.6573,7.3952,7.1834,6.9765,6.7989,6.7117,6.6295,6.5302,6.4288,6.3245,6.2918,6.3109,6.2895,6.2481,6.2221,6.2092,6.1933,6.1696,6.1742,6.1893,6.1817,6.1644,6.1644,6.1644,6.1644,6.1644,6.1644,8.913,8.9544,8.9544,8.9544,8.9603,8.9865,8.9995,8.9995,8.9995,8.9995,8.9995,8.9995,8.9995,8.9995,8.9995,8.9865,8.9447,8.8974,8.8633,8.8177,8.7549,8.7111,8.6824,8.6673,8.6541,8.6503,8.6862,8.7414,8.7949,8.8156,8.865,8.8785,8.8498,8.8878,8.9316,8.9447,8.9713,8.9865,8.9995,8.9995,8.9995,8.9995,8.9995,8.9995,8.9995,8.9995,8.9995,8.9995,8.9995,8.9995,8.9995,8.9995,8.9995,8.9995,8.9995,8.9995,8.9995,8.9995,8.9995,8.9995,8.9995,8.9995,8.9995,8.9995,8.9995,8.9995,8.9995,9.0109,9.0429,9.0603,9.0809,9.1459,9.2012,9.2219,9.256,9.3054,9.3493,9.3987,9.4253,9.4329,9.4572,9.4793,9.2929,9.0917,8.9492,8.7972,8.5238,8.2408,7.9137,7.6261,7.3583,7.1307,6.9589,6.8541,6.6956,6.5877,6.4916,6.4342,6.3842,6.378,6.3596,6.3131,6.2741,6.2559,6.2427,6.2144,6.2057,6.2147,6.2017,6.1742,6.1644,6.1621,6.1644,6.1644,6.1644,8.8595,8.8557,8.8692,8.8709,8.8806,8.9523,8.9768,8.9578,8.9692,8.9654,8.9599,8.973,8.9578,8.9632,8.9464,8.9219,8.8709,8.8713,8.8101,8.7359,8.6655,8.6238,8.601,8.5612,8.5195,8.5289,8.582,8.62,8.6503,8.7111,8.7204,8.7414,8.749,8.8004,8.846,8.8726,8.9029,8.962,8.9957,8.9957,8.9995,8.9995,8.9995,8.9995,8.9995,8.9995,8.9995,8.9995,8.9995,8.9995,8.9995,8.9995,8.9995,8.9995,8.9995,8.9995,8.9995,8.9995,8.9995,8.9995,8.9995,8.9995,8.9995,8.9995,8.9995,8.9995,8.9881,8.9843,8.9805,8.9903,8.9995,9.0451,9.0814,9.1096,9.1589,9.2105,9.2636,9.3168,9.3569,9.3775,9.3943,9.4148,9.2795,9.1976,9.0683,8.9441,8.6901,8.5601,8.2155,7.856,7.5735,7.2657,7.0985,6.9182,6.7518,6.6247,6.5181,6.451,6.4324,6.425,6.4142,6.383,6.3362,6.318,6.2921,6.2611,6.238,6.2263,6.2061,6.1788,6.1647,6.163,6.163,6.1647,6.1644,8.6544,8.6088,8.73,8.7794,8.7852,8.8021,8.8173,8.8135,8.8152,8.8152,8.8115,8.819,8.8173,8.8115,8.8211,8.8156,8.7777,8.719,8.6789,8.6351,8.5782,8.5423,8.5309,8.5195,8.4929,8.4967,8.5347,8.565,8.5896,8.5972,8.6086,8.66,8.6541,8.7073,8.7604,8.787,8.827,8.905,8.954,8.9843,8.9919,8.9919,8.9979,9.0016,8.9995,8.9995,8.9995,8.9995,8.9995,8.9995,8.9995,8.9995,8.9995,8.9995,8.9995,8.9995,8.9995,8.9995,8.9995,8.9995,8.9995,8.9995,8.9995,8.9995,8.9995,8.9979,8.9865,8.9105,8.9067,8.8726,8.8498,8.8953,8.9371,8.9919,9.0505,9.1096,9.1665,9.2219,9.2658,9.2738,9.2894,9.3219,9.2604,9.2362,9.1756,9.062,8.9571,8.8334,8.5118,8.131,7.7695,7.3513,7.1572,6.9415,6.7629,6.6035,6.5286,6.4659,6.4682,6.4613,6.4482,6.4222,6.3986,6.375,6.3488,6.3154,6.2821,6.2468,6.2183,6.2195,6.2138,6.1915,6.1641,6.165,6.1644,8.4529,8.4569,8.584,8.6559,8.6976,8.7356,8.7528,8.7528,8.7528,8.7528,8.7528,8.7528,8.7528,8.7583,8.7528,8.728,8.6921,8.6562,8.6144,8.5592,8.5271,8.4967,8.4929,8.4929,8.4929,8.4929,8.5005,8.5347,8.5365,8.5251,8.5157,8.5668,8.5744,8.6162,8.6883,8.6959,8.7511,8.8118,8.8629,8.9084,8.9371,8.9485,8.9658,9.0,9.0016,8.9995,8.9995,8.9995,8.9995,8.9995,8.9995,8.9995,8.9995,8.9995,8.9995,8.9995,8.9995,8.9995,8.9995,8.9995,8.9995,8.9995,8.9995,8.9919,8.9919,8.9675,8.9126,8.8308,8.8211,8.8059,8.7794,8.7984,8.8156,8.8363,8.8911,8.9443,9.0071,9.089,9.1492,9.16,9.1631,9.0784,9.0084,9.0498,9.0752,8.9986,8.9363,8.8424,8.6059,8.2958,7.917,7.4914,7.2289,6.9566,6.739,6.5691,6.4912,6.4143,6.4194,6.4506,6.4532,6.4664,6.4586,6.435,6.3812,6.3501,6.3365,6.3291,6.3462,6.3147,6.2731,6.2141,6.1626,6.1631,6.1696,8.2746,8.3544,8.4436,8.5271,8.603,8.6748,8.7128,8.709,8.7052,8.7166,8.6997,8.709,8.7052,8.6993,8.7014,8.6731,8.6313,8.5992,8.565,8.5195,8.5025,8.4929,8.4929,8.4929,8.4929,8.4929,8.4929,8.4929,8.5043,8.5043,8.5005,8.5023,8.5157,8.5327,8.6048,8.6106,8.6541,8.7166,8.7335,8.7794,8.854,8.8692,8.9126,8.9561,8.9789,8.9827,8.9957,8.9995,8.9995,8.9995,8.9995,8.9995,8.9995,8.9995,8.9995,8.9995,8.9995,8.9995,8.9957,8.9827,8.9713,8.9675,8.9561,8.9654,8.9312,8.8878,8.827,8.7469,8.7335,8.7183,8.6976,8.7242,8.7356,8.7469,8.7735,8.8228,8.8591,8.9523,8.9822,8.9934,8.9101,8.8292,8.8309,8.9189,8.9966,8.9626,8.9191,8.8278,8.6662,8.4092,8.0704,7.6647,7.3635,6.9457,6.6775,6.5403,6.442,6.3396,6.3694,6.4134,6.4216,6.4326,6.4508,6.4437,6.3961,6.3525,6.3818,6.4228,6.468,6.4251,6.3265,6.2473,6.1873,6.1719,6.1803,8.1588,8.1892,8.3392,8.4134,8.4399,8.5119,8.5478,8.544,8.5496,8.5554,8.5461,8.5537,8.5575,8.5499,8.5478,8.5461,8.5271,8.5271,8.5195,8.4929,8.4929,8.4929,8.4929,8.4929,8.4929,8.4929,8.4929,8.4929,8.4929,8.4929,8.4929,8.4929,8.4929,8.5119,8.5233,8.5405,8.5802,8.6238,8.6521,8.6959,8.7566,8.7794,8.8135,8.8936,8.9071,8.9354,8.973,8.9768,8.9768,8.9805,8.9903,8.9957,8.9957,8.9995,8.9995,8.9995,8.9995,8.9995,8.9789,8.9468,8.905,8.8991,8.8422,8.8135,8.7984,8.7946,8.7473,8.6751,8.6503,8.6313,8.5896,8.6103,8.6465,8.6617,8.7035,8.7566,8.7756,8.7963,8.8321,8.7639,8.6538,8.6625,8.7505,8.8464,8.9812,8.9696,8.8784,8.7906,8.6201,8.3976,8.1308,7.7595,7.3793,6.9437,6.6437,6.5013,6.3527,6.2775,6.3145,6.3559,6.3772,6.396,6.4014,6.4042,6.3699,6.3737,6.4418,6.4865,6.4892,6.4556,6.3719,6.3235,6.3164,6.3001,6.2231,8.0867,8.1322,8.2158,8.3032,8.3754,8.4228,8.4587,8.4891,8.4929,8.4929,8.4929,8.4929,8.4929,8.4929,8.4929,8.4929,8.4967,8.4929,8.4929,8.4929,8.4929,8.4929,8.4929,8.4929,8.4929,8.4929,8.4929,8.4929,8.4929,8.4929,8.4929,8.4929,8.4929,8.4929,8.4929,8.4929,8.5213,8.5499,8.563,8.5858,8.62,8.6789,8.728,8.7908,8.8211,8.8363,8.8722,8.8781,8.8819,8.8915,8.924,8.9371,8.9257,8.9046,8.8722,8.8684,8.8705,8.8743,8.8688,8.8498,8.8156,8.8097,8.7811,8.7507,8.7431,8.7052,8.6789,8.6296,8.603,8.544,8.4985,8.5344,8.5592,8.5726,8.5934,8.6369,8.6748,8.6862,8.6673,8.6229,8.5681,8.5882,8.6812,8.7956,8.9464,8.9336,8.839,8.6929,8.5323,8.3039,8.0703,7.7256,7.4019,6.9618,6.5856,6.4049,6.2285,6.2275,6.2546,6.2908,6.3147,6.3488,6.3594,6.3523,6.3719,6.3686,6.4264,6.4842,6.4863,6.4781,6.4129,6.3717,6.4081,6.3817,6.2616,8.0487,8.1057,8.1208,8.2044,8.324,8.3526,8.398,8.4683,8.4701,8.4815,8.4929,8.4929,8.4929,8.4929,8.4929,8.4929,8.4929,8.4929,8.4929,8.4929,8.4929,8.4929,8.4929,8.4929,8.4929,8.4929,8.4929,8.4929,8.4929,8.4929,8.4929,8.4929,8.4929,8.4929,8.4929,8.4967,8.4985,8.5119,8.5119,8.5119,8.5347,8.5802,8.6445,8.7186,8.73,8.7469,8.7507,8.7545,8.7528,8.7566,8.8194,8.8443,8.8291,8.7908,8.7697,8.7697,8.7756,8.7832,8.7718,8.7431,8.728,8.7242,8.6976,8.6938,8.6807,8.6427,8.6068,8.5802,8.5365,8.4985,8.4929,8.5043,8.4985,8.4967,8.5157,8.5385,8.5916,8.603,8.5802,8.544,8.5208,8.5228,8.5932,8.6874,8.8074,8.827,8.6646,8.4731,8.3576,8.179,7.9503,7.6732,7.3756,6.9507,6.56,6.3704,6.1794,6.195,6.2052,6.239,6.2549,6.2939,6.305,6.2881,6.2948,6.337,6.3978,6.463,6.4807,6.4891,6.4485,6.3981,6.4088,6.4044,6.2887,8.0164,8.0297,8.1,8.1418,8.1702,8.2366,8.3145,8.3866,8.3962,8.4188,8.4815,8.4929,8.4739,8.4891,8.4891,8.4929,8.4929,8.4929,8.4929,8.4929,8.4929,8.4929,8.4929,8.4929,8.4929,8.4929,8.4929,8.4929,8.4929,8.4929,8.4929,8.4929,8.4929,8.4929,8.4929,8.4929,8.4929,8.4929,8.4929,8.4929,8.5043,8.5119,8.5668,8.6334,8.6486,8.6693,8.7111,8.7262,8.7376,8.7528,8.7563,8.728,8.7035,8.7073,8.7507,8.7373,8.7069,8.6938,8.6748,8.6579,8.6296,8.6448,8.582,8.5365,8.5365,8.5233,8.5157,8.5061,8.5099,8.4929,8.4929,8.4929,8.4929,8.4929,8.4929,8.5005,8.5119,8.5137,8.5195,8.4947,8.4936,8.4946,8.5393,8.5794,8.6652,8.6924,8.4445,8.2509,8.1759,8.0341,7.8087,7.5438,7.2426,6.8484,6.648,6.4603,6.2008,6.1728,6.1638,6.1794,6.1826,6.2115,6.2276,6.2162,6.2353,6.2972,6.3559,6.387,6.4259,6.4847,6.4691,6.4494,6.4273,6.4101,6.305,8.0088,8.0126,8.0468,8.0886,8.1304,8.1645,8.229,8.2935,8.3049,8.3239,8.3523,8.3579,8.3884,8.4304,8.4322,8.4587,8.4833,8.4929,8.4929,8.4949,8.4929,8.4929,8.4929,8.4929,8.4929,8.4929,8.4929,8.4929,8.4929,8.4929,8.4929,8.4929,8.4929,8.4929,8.4929,8.4929,8.4929,8.4929,8.4929,8.4929,8.4929,8.4967,8.5213,8.5499,8.5612,8.5706,8.6124,8.6162,8.6162,8.6124,8.6103,8.5914,8.5726,8.5537,8.5499,8.5423,8.5137,8.4773,8.4793,8.4434,8.432,8.4168,8.3884,8.3656,8.3656,8.4114,8.4246,8.436,8.4663,8.4929,8.4929,8.4929,8.4929,8.4929,8.4929,8.4929,8.4967,8.4929,8.4929,8.4929,8.4929,8.4929,8.4947,8.517,8.5666,8.4876,8.2492,8.0869,8.0127,7.8233,7.6107,7.398,7.0971,6.862,6.696,6.4775,6.2038,6.1134,6.1115,6.1291,6.1124,6.1263,6.1526,6.16,6.1668,6.2309,6.2817,6.2773,6.306,6.4026,6.4715,6.4851,6.4582,6.3789,6.2767,8.0088,8.0088,8.0088,8.0449,8.0962,8.1038,8.1455,8.2157,8.2137,8.2309,8.246,8.2441,8.284,8.3448,8.3486,8.381,8.4246,8.4264,8.4529,8.4683,8.4835,8.4891,8.4663,8.4645,8.4739,8.4929,8.4929,8.4929,8.4929,8.4929,8.4929,8.4929,8.4929,8.4929,8.4929,8.4929,8.4929,8.4929,8.4929,8.4929,8.4929,8.4967,8.4967,8.5005,8.5005,8.4985,8.4967,8.4929,8.4853,8.4739,8.4721,8.4663,8.4302,8.3846,8.3656,8.3524,8.2954,8.2555,8.2479,8.2668,8.2441,8.2668,8.2688,8.2403,8.2498,8.3145,8.341,8.362,8.4228,8.4549,8.4625,8.4815,8.4929,8.4929,8.4929,8.4929,8.4929,8.4929,8.4929,8.4929,8.4929,8.4929,8.4967,8.4943,8.4094,8.2528,8.1051,7.9459,7.7652,7.5831,7.4045,7.2364,6.9611,6.7346,6.571,6.3829,6.1468,6.01,6.0554,6.088,6.0445,6.041,6.0666,6.0844,6.1028,6.1557,6.218,6.2238,6.2468,6.3516,6.4422,6.4112,6.3715,6.3258,6.2453,8.0088,8.0088,8.0088,8.0107,8.024,8.0221,8.0696,8.1284,8.1398,8.1721,8.2157,8.2327,8.2346,8.2574,8.2574,8.265,8.2764,8.2954,8.3277,8.3866,8.436,8.4416,8.3904,8.3886,8.417,8.4625,8.4891,8.4891,8.4835,8.4929,8.4929,8.4929,8.4929,8.4929,8.4929,8.4929,8.4929,8.4929,8.4929,8.4929,8.4929,8.4929,8.4929,8.4929,8.4929,8.4929,8.4929,8.4891,8.4587,8.3944,8.3886,8.3524,8.284,8.2668,8.2574,8.2498,8.2366,8.2195,8.2327,8.2195,8.2309,8.2175,8.2213,8.2403,8.2251,8.2384,8.2574,8.2594,8.3373,8.381,8.3962,8.4549,8.4815,8.4909,8.4831,8.4909,8.4929,8.4929,8.4929,8.4929,8.4927,8.4929,8.4965,8.4837,8.4268,8.2114,8.0392,7.8558,7.6443,7.4412,7.25,7.077,6.8572,6.6193,6.4543,6.2915,6.092,5.9278,5.9869,5.9977,5.9546,5.9653,5.9835,6.0124,6.0458,6.0921,6.1425,6.1825,6.2231,6.2944,6.3522,6.3178,6.2733,6.2437,6.2313,8.0088,8.0088,8.0088,8.0088,8.0088,8.0088,8.0297,8.0563,8.062,8.0772,8.0981,8.1037,8.1322,8.1701,8.1739,8.1948,8.2365,8.2403,8.2612,8.3069,8.3315,8.3277,8.3107,8.2973,8.3163,8.3543,8.4,8.4228,8.4342,8.4739,8.4929,8.4929,8.4929,8.4929,8.4929,8.4929,8.4929,8.4929,8.4929,8.4929,8.4929,8.4929,8.4929,8.4929,8.4929,8.4929,8.4929,8.4929,8.4322,8.3277,8.2973,8.2841,8.2403,8.2005,8.1759,8.1721,8.1304,8.1133,8.1057,8.1037,8.1057,8.1057,8.1076,8.1076,8.1171,8.1493,8.1759,8.1835,8.2537,8.2897,8.3125,8.3752,8.4398,8.4679,8.4052,8.3489,8.3489,8.3423,8.3481,8.3478,8.3556,8.3775,8.4845,8.4918,8.3591,8.148,7.9616,7.7368,7.523,7.32,7.1251,6.9632,6.7662,6.5628,6.3862,6.2248,6.0367,5.8883,5.8942,5.8858,5.8796,5.9074,5.9256,5.9494,5.989,6.0212,6.0381,6.0652,6.1272,6.1921,6.2452,6.2509,6.2185,6.1869,6.1865,7.9727,7.9765,7.9993,8.0088,8.0088,8.0088,8.0088,8.0069,8.0088,8.0164,8.0126,8.0088,8.0487,8.0924,8.0962,8.1227,8.1607,8.1721,8.1853,8.2062,8.1948,8.1797,8.1835,8.1986,8.2233,8.2574,8.3125,8.343,8.3448,8.3884,8.4302,8.4605,8.4549,8.4663,8.4929,8.4929,8.4929,8.4929,8.4929,8.4929,8.4929,8.4929,8.4929,8.4929,8.4929,8.4873,8.4645,8.4625,8.3904,8.2536,8.2271,8.2043,8.1721,8.1266,8.0962,8.0886,8.0449,8.0126,8.0126,8.0145,8.0126,8.0088,8.024,8.0088,8.0145,8.0639,8.0886,8.1057,8.1645,8.2119,8.2233,8.2897,8.3562,8.3993,8.2744,8.1693,8.1487,8.1412,8.1139,8.0547,8.0317,8.133,8.2562,8.3199,8.246,8.0265,7.7987,7.5653,7.346,7.1397,6.9446,6.8034,6.6471,6.4739,6.3085,6.1461,6.0071,5.8603,5.8086,5.8133,5.8381,5.8584,5.8762,5.894,5.9316,5.9601,5.9652,5.9573,6.0254,6.0935,6.1431,6.1781,6.149,6.1126,6.102,7.8798,7.8912,7.9709,7.9974,7.9993,8.0012,8.005,8.0088,8.0088,8.0088,8.0088,8.0088,8.0164,8.0164,8.0259,8.0335,8.0259,8.0411,8.0753,8.1019,8.0715,8.0468,8.0563,8.1076,8.1607,8.2176,8.2422,8.2498,8.2556,8.2726,8.3011,8.3792,8.3848,8.4152,8.4567,8.4911,8.4739,8.4701,8.4777,8.4777,8.4757,8.4795,8.4815,8.4777,8.4719,8.4436,8.3886,8.364,8.324,8.2422,8.1436,8.0734,8.0316,8.0202,8.0069,8.005,8.0069,7.9936,8.0012,7.9898,7.9955,7.9974,7.9993,8.0088,8.0088,8.024,8.0297,8.0335,8.0924,8.1303,8.134,8.1927,8.2267,8.232,8.08,7.9641,7.901,7.8783,7.7601,7.6023,7.5589,7.6502,7.925,7.9959,7.9825,7.8757,7.6473,7.3608,7.1258,6.9041,6.7467,6.595,6.4402,6.277,6.1326,5.9936,5.9664,5.8408,5.7852,5.796,5.8181,5.8255,5.8355,5.848,5.8714,5.897,5.9053,5.8783,5.903,5.9924,6.0495,6.077,6.0612,6.0147,5.9939,7.8019,7.8038,7.838,7.8759,7.9234,7.9216,7.9538,8.005,8.0088,8.0088,8.0088,8.0088,8.0088,8.0088,8.0088,8.0088,8.0088,8.0088,8.0202,8.0392,8.0145,8.0088,8.0164,8.0411,8.0715,8.1,8.1455,8.1683,8.1721,8.2157,8.2555,8.284,8.2916,8.3105,8.3295,8.3391,8.3391,8.3371,8.3391,8.3333,8.3371,8.3333,8.3353,8.3371,8.3371,8.3219,8.2917,8.1949,8.1038,8.0146,7.9348,7.8817,7.8531,7.855,7.8512,7.8493,7.8493,7.8531,7.8531,7.9006,7.9216,7.9348,7.9785,8.005,8.0088,8.0088,8.0088,8.0088,8.0335,8.0278,7.9915,8.044,8.0127,7.8849,7.7521,7.6572,7.5697,7.5126,7.3564,7.1338,7.0424,7.1503,7.361,7.4983,7.61,7.5032,7.3657,7.1732,6.8319,6.5894,6.4838,6.3614,6.2341,6.102,5.9547,5.9076,5.8934,5.8143,5.742,5.7602,5.7991,5.8104,5.7978,5.8104,5.8043,5.8299,5.8514,5.8168,5.8257,5.9026,5.9906,5.9966,5.9802,5.9319,5.909,7.7146,7.7128,7.7412,7.7849,7.8343,7.838,7.8721,7.931,7.9557,7.969,7.9727,7.9974,8.0088,8.0088,8.0088,8.0088,8.005,7.9518,7.9405,7.9633,7.9652,7.9747,8.005,8.0088,8.0088,8.0202,8.0639,8.0886,8.1,8.1379,8.1873,8.1986,8.2043,8.2157,8.246,8.2403,8.2403,8.2403,8.2403,8.2403,8.2403,8.2403,8.2403,8.2403,8.2403,8.1853,8.0942,7.988,7.9025,7.8456,7.7849,7.7526,7.7564,7.7526,7.7526,7.7526,7.7526,7.7526,7.7621,7.8095,7.8362,7.8494,7.8911,7.9272,7.9291,7.9218,7.9256,7.9256,7.9275,7.9066,7.859,7.8788,7.7302,7.4162,7.301,7.2173,7.1717,7.0872,6.902,6.6677,6.6063,6.6796,6.8471,6.8419,6.9452,6.9374,6.9555,6.8184,6.487,6.2155,6.0736,6.1099,6.0527,5.9394,5.8362,5.7731,5.7367,5.6611,5.6624,5.6932,5.7702,5.8091,5.7816,5.767,5.7519,5.761,5.7826,5.7963,5.8233,5.8782,5.9107,5.9078,5.892,5.8724,5.8532,7.6215,7.6349,7.7146,7.745,7.7526,7.7508,7.7545,7.7867,7.8456,7.8741,7.8855,7.9557,7.9822,7.9936,7.9765,7.9974,7.9614,7.8437,7.8171,7.8722,7.876,7.9158,7.9841,7.9822,7.9803,7.9879,8.005,8.0031,8.0126,8.0259,8.062,8.1152,8.1246,8.155,8.2346,8.2061,8.2195,8.2081,8.1929,8.2061,8.2365,8.2024,8.1967,8.2061,8.2024,8.0715,7.7943,7.7716,7.764,7.7564,7.745,7.7488,7.7336,7.7336,7.745,7.7336,7.743,7.745,7.7486,7.7451,7.7417,7.7473,7.7566,7.759,7.7594,7.7601,7.7566,7.751,7.7486,7.734,7.7094,7.6139,7.3706,6.917,6.7927,6.7618,6.7441,6.6399,6.4676,6.3111,6.2445,6.3284,6.3956,6.3418,6.2799,6.4199,6.4567,6.3624,6.1359,5.9277,5.7847,5.7977,5.8144,5.78,5.707,5.6353,5.5768,5.5408,5.5899,5.6414,5.721,5.7495,5.7132,5.7064,5.694,5.7013,5.723,5.7437,5.7774,5.803,5.8152,5.8321,5.8094,5.7876,5.7812,7.5362,7.5473,7.5739,7.6121,7.6615,7.6653,7.6938,7.7564,7.7811,7.7925,7.7981,7.8209,7.8398,7.838,7.838,7.8398,7.8266,7.783,7.7659,7.7943,7.7943,7.8095,7.836,7.8342,7.838,7.8398,7.8398,7.8683,7.9177,7.9785,8.0202,8.043,8.0468,8.062,8.0658,8.0202,7.9918,7.9785,7.9424,7.9158,7.9158,7.914,7.912,7.9102,7.912,7.8607,7.764,7.6974,7.6653,7.6539,7.6157,7.5853,7.5817,7.5853,7.5853,7.5853,7.5891,7.5871,7.5837,7.5843,7.5855,7.5874,7.5922,7.5964,7.6001,7.6021,7.5706,7.5334,7.518,7.439,7.2769,7.0008,6.7566,6.6,6.4819,6.4061,6.3076,6.2497,6.1369,5.9879,5.8709,5.915,6.0796,6.0325,5.9912,5.9525,5.9658,5.9488,5.8557,5.7394,5.6816,5.7115,5.6856,5.6209,5.5553,5.5429,5.5134,5.5037,5.5417,5.5827,5.6339,5.64,5.6367,5.6379,5.6426,5.6499,5.665,5.6784,5.7016,5.7282,5.7486,5.7583,5.729,5.7037,5.717,7.5035,7.5035,7.5035,7.5304,7.5759,7.5777,7.6083,7.6689,7.6937,7.7088,7.7108,7.7468,7.7526,7.7526,7.6918,7.6633,7.6651,7.6651,7.6823,7.7052,7.707,7.7278,7.7488,7.7526,7.7526,7.7526,7.7564,7.7811,7.838,7.8855,7.9196,7.9176,7.9177,7.9177,7.9063,7.8589,7.8286,7.8267,7.7867,7.7526,7.764,7.7526,7.724,7.6709,7.6633,7.6633,7.6651,7.6101,7.5815,7.5777,7.5321,7.5035,7.5035,7.5035,7.5035,7.5,7.479,7.463,7.4579,7.4351,7.4091,7.3839,7.3865,7.3738,7.35,7.3222,7.2867,7.2309,7.1857,6.9431,6.6276,6.3255,6.1451,6.1041,6.0333,5.9479,5.9054,5.8657,5.816,5.7155,5.5348,5.5149,5.7288,5.8036,5.7636,5.6635,5.6434,5.6386,5.6135,5.6004,5.5874,5.5999,5.5737,5.5137,5.4323,5.4458,5.4812,5.4814,5.4824,5.5264,5.5446,5.5544,5.5575,5.5602,5.5649,5.5753,5.6074,5.6251,5.6607,5.6828,5.6964,5.6957,5.6522,5.6102,5.6256,7.5,7.5035,7.5035,7.5073,7.5073,7.5073,7.5038,7.5103,7.5855,7.6123,7.6183,7.694,7.7337,7.6926,7.5413,7.4911,7.5023,7.5081,7.5442,7.6139,7.6159,7.6577,7.7412,7.745,7.7374,7.7222,7.7202,7.7336,7.7488,7.7545,7.7526,7.762,7.7678,7.764,7.7696,7.7582,7.7506,7.745,7.7354,7.7354,7.7392,7.7392,7.6595,7.5339,7.5111,7.5187,7.5111,7.5073,7.5073,7.5073,7.5073,7.5035,7.5035,7.5035,7.5,7.4876,7.4239,7.3812,7.3634,7.2939,7.2168,7.1521,7.1215,7.0909,7.0004,6.9314,6.882,6.8686,6.6826,6.3512,5.8356,5.7259,5.6502,5.563,5.467,5.4846,5.5602,5.5046,5.4808,5.465,5.2937,5.2565,5.4237,5.4616,5.4691,5.4765,5.4745,5.4594,5.4251,5.4475,5.4695,5.4773,5.4712,5.4378,5.3475,5.381,5.4483,5.4721,5.4622,5.4697,5.4717,5.4764,5.4769,5.4795,5.4853,5.5066,5.5436,5.5758,5.6045,5.6217,5.6347,5.6336,5.5981,5.5326,5.5416,7.4486,7.4982,7.5035,7.5035,7.5035,7.5035,7.4699,7.4312,7.5052,7.5003,7.4595,7.5393,7.4827,7.3284,7.2749,7.3126,7.413,7.4204,7.4619,7.5304,7.5359,7.5491,7.5719,7.5739,7.5739,7.5739,7.5739,7.6025,7.6615,7.7202,7.7526,7.7526,7.7526,7.7526,7.7488,7.6824,7.6559,7.6539,7.6005,7.5721,7.5739,7.5719,7.5511,7.5111,7.5035,7.5035,7.5035,7.5035,7.5035,7.5035,7.5035,7.5035,7.5035,7.5035,7.4787,7.4204,7.3456,7.2758,7.2185,7.0927,6.9826,6.9029,6.7884,6.677,6.5677,6.5238,6.4429,6.2768,5.9205,5.6769,5.4265,5.3713,5.331,5.2988,5.2803,5.243,5.2296,5.2015,5.1754,5.126,5.0653,5.0364,5.0952,5.184,5.2573,5.3027,5.3136,5.3093,5.3284,5.3448,5.3624,5.3532,5.3896,5.3718,5.3262,5.3446,5.3953,5.4292,5.4064,5.3757,5.3919,5.3699,5.3598,5.4151,5.413,5.4318,5.4754,5.4983,5.5195,5.5346,5.5367,5.532,5.5306,5.5113,5.5163,7.2716,7.3135,7.3117,7.3117,7.3117,7.3152,7.2891,7.2487,7.2944,7.2871,7.2434,7.192,7.1205,7.0204,7.0187,7.0811,7.1939,7.1957,7.2399,7.3137,7.3789,7.4084,7.4157,7.4686,7.5035,7.5035,7.5035,7.5301,7.5721,7.6253,7.6519,7.6537,7.6519,7.6519,7.6499,7.5987,7.5721,7.5719,7.5245,7.5035,7.5035,7.5035,7.5035,7.5035,7.5035,7.5035,7.5035,7.4658,7.4506,7.4451,7.4182,7.389,7.3537,7.352,7.3064,7.2047,7.1498,7.0685,6.9335,6.7817,6.6542,6.5405,6.4173,6.2992,6.1847,6.1113,5.9438,5.6488,5.3648,5.1866,5.1585,5.1093,5.0818,5.0777,5.0749,5.0635,5.0256,5.0271,5.0123,4.9658,4.9161,4.8851,4.9033,5.0259,5.1293,5.1434,5.1874,5.2199,5.2602,5.2915,5.3058,5.3064,5.2863,5.2706,5.2456,5.2698,5.3084,5.3289,5.3164,5.2979,5.3196,5.3045,5.3162,5.346,5.3492,5.3694,5.4119,5.4093,5.4032,5.4012,5.4052,5.4715,5.4451,5.4632,5.4602,7.0034,7.0153,7.0262,7.0171,7.0227,7.0104,7.0,6.9967,6.9946,6.9803,6.8895,6.7314,6.6861,6.7561,6.763,6.8155,6.8925,6.8922,6.9445,7.0439,7.1746,7.243,7.2627,7.3865,7.4578,7.4522,7.4669,7.4724,7.4744,7.5002,7.5073,7.5035,7.5035,7.5111,7.5073,7.5073,7.5073,7.5035,7.4883,7.4807,7.4807,7.4825,7.479,7.4825,7.4807,7.4807,7.4693,7.3978,7.3508,7.3418,7.2811,7.2051,7.1381,7.1172,7.0479,6.911,6.8921,6.7893,6.5704,6.4116,6.2689,6.1174,6.0336,5.9427,5.8432,5.6829,5.4103,5.1133,4.9942,4.9499,4.8849,4.8769,4.8756,4.8779,4.8756,4.8842,4.9276,4.9384,4.9428,4.9384,4.8475,4.7829,4.8146,4.9718,5.0752,5.0346,5.0761,5.1226,5.1635,5.2044,5.2369,5.2408,5.1875,5.1241,5.1274,5.2068,5.2179,5.1718,5.2227,5.2497,5.2451,5.2588,5.2934,5.2863,5.2947,5.3019,5.3156,5.2939,5.2832,5.2908,5.3604,5.442,5.3941,5.4127,5.4142,6.7615,6.8713,6.8713,6.8713,6.8644,6.8103,6.7421,6.6914,6.6879,6.4944,6.1948,6.1796,6.2216,6.2977,6.3622,6.4872,6.6476,6.6651,6.7649,6.9374,6.9797,7.0289,7.0881,7.122,7.1436,7.1545,7.2645,7.3245,7.339,7.4467,7.5035,7.5035,7.5035,7.5035,7.5035,7.5035,7.5035,7.4959,7.3709,7.3046,7.3101,7.3063,7.3101,7.308,7.3067,7.3046,7.3063,7.2911,7.2505,7.1916,7.1677,7.1309,7.062,7.0015,6.8841,6.706,6.6686,6.5461,6.2797,6.107,5.9472,5.7963,5.7092,5.5867,5.3893,5.1139,4.8903,4.8071,4.7479,4.7157,4.7009,4.6948,4.7034,4.7397,4.7439,4.7681,4.8138,4.8206,4.8224,4.8198,4.7999,4.7784,4.8044,4.9082,4.9847,4.9684,4.987,5.0018,5.0103,5.0233,5.0337,5.0304,5.0155,4.9984,4.9984,5.0325,5.0679,5.1356,5.1255,5.1291,5.1518,5.1596,5.183,5.2174,5.2258,5.2427,5.2869,5.2379,5.2005,5.2407,5.2908,5.3303,5.293,5.3217,5.3298,6.3361,6.4187,6.4843,6.5137,6.5102,6.4687,6.4028,6.309,6.0274,5.7893,5.6339,5.6718,5.7485,5.8501,5.8913,6.0136,6.1907,6.2208,6.3361,6.5148,6.6521,6.7394,6.7863,6.888,6.9391,6.9497,7.056,7.1094,7.1181,7.2325,7.3039,7.3337,7.3354,7.3529,7.3843,7.3878,7.3878,7.3823,7.2349,7.1499,7.1499,7.1516,7.1553,7.1533,7.1516,7.1499,7.1533,7.1196,7.0783,7.0356,6.9579,6.877,6.7753,6.6374,6.4578,6.2249,6.1426,6.0011,5.7829,5.6276,5.4785,5.3263,5.26,5.1177,4.8501,4.6828,4.6086,4.6324,4.6025,4.5915,4.6244,4.6279,4.64,4.6677,4.6686,4.6833,4.7058,4.7092,4.7213,4.7412,4.7242,4.7288,4.7774,4.8374,4.8756,4.879,4.9083,4.9299,4.9584,4.9158,4.8902,4.918,4.9213,4.9081,4.8824,4.9179,4.9807,5.0363,5.0239,5.0238,5.0408,5.0493,5.0623,5.0863,5.1206,5.1511,5.1764,5.1537,5.1555,5.1945,5.2141,5.2297,5.236,5.2451,5.2323,5.8516,5.8768,6.0016,6.0517,6.0517,6.0534,6.0005,5.8778,5.3111,5.1181,5.2268,5.237,5.3064,5.4272,5.4359,5.52,5.6538,5.7113,5.8212,5.9795,6.2356,6.3654,6.3912,6.5986,6.7015,6.7171,6.8131,6.8549,6.869,6.9665,7.0499,7.0999,7.1154,7.157,7.2172,7.2185,7.2055,7.1849,7.0613,7.0012,7.0012,7.0012,7.0012,7.0012,6.9992,6.9975,6.9828,6.9198,6.8742,6.8547,6.7054,6.5555,6.4097,6.2056,5.9589,5.6956,5.5258,5.3644,5.2078,5.0934,4.9674,4.8271,4.7992,4.653,4.3464,4.3679,4.4234,4.4739,4.4789,4.5084,4.5681,4.5681,4.5655,4.5811,4.5863,4.5949,4.6149,4.614,4.6365,4.685,4.6489,4.666,4.74,4.7743,4.7918,4.7943,4.834,4.8772,4.8943,4.8406,4.806,4.8486,4.866,4.8388,4.8142,4.8693,4.9225,4.9465,4.9491,4.9525,4.9688,4.9733,4.9759,4.9636,5.0134,5.0412,5.0464,5.0783,5.0941,5.1,5.1313,5.1398,5.1493,5.1596,5.1169,5.4732,5.5774,5.6067,5.6147,5.6164,5.6164,5.539,5.3957,0.0,0.0,0.0,4.988,5.0273,5.0546,5.1227,5.2268,5.3604,5.3742,5.4886,5.6932,5.7458,5.8326,5.9481,6.0431,6.1154,6.1747,6.4307,6.55,6.5639,6.8146,6.9459,6.9634,7.024,7.0603,7.0741,7.0758,7.0077,6.873,6.8404,6.8287,6.8287,6.8287,6.8287,6.827,6.827,6.7972,6.7375,6.7191,6.6576,6.5414,6.4452,6.3307,6.1841,5.9352,5.6699,5.3993,5.1657,4.9249,4.6714,4.6362,4.5923,4.5008,4.5185,4.4104,4.1047,4.1308,4.189,4.2541,4.2593,4.2811,4.3324,4.3376,4.3558,4.3993,4.4029,4.4401,4.5284,4.5482,4.5638,4.6261,4.6235,4.633,4.646,4.7235,4.7796,4.7857,4.7877,4.8042,4.8016,4.7567,4.7378,4.7871,4.7949,4.7937,4.786,4.803,4.839,4.8874,4.8941,4.9076,4.9447,4.9603,4.9603,4.9499,4.9636,4.9714,4.9759,4.9806,4.987,4.9851,5.0647,5.1082,5.0269,5.0025,4.9608,5.1141,0.0,5.2522,5.2857,0.0,5.2857,5.1098,4.8152,4.7076,4.6393,4.6052,4.6449,4.6823,4.7203,4.7615,4.8344,4.9357,4.9992,5.1097,5.2476,5.3842,5.4867,5.5571,5.6606,5.727,5.7721,5.9856,6.1053,6.1493,6.3612,6.5232,6.6318,6.6744,6.7486,6.8566,6.8566,6.724,6.4607,6.4591,6.4773,6.5067,6.5087,6.5249,6.5562,6.5579,0.0,0.0,0.0,0.0,0.0,0.0,0.0,0.0,0.0,0.0,4.9632,4.6334,4.371,4.1998,4.1073,4.0784,4.1328,4.1247,4.0151,3.7775,3.8684,3.9671,4.0528,4.0606,4.097,4.1775,4.189,4.1978,4.2222,4.2581,4.2961,4.3532,4.388,4.4269,4.4756,4.4645,4.451,4.4508,4.5932,4.714,4.7699,4.7385,4.7014,4.7006,4.6772,4.6694,4.6962,4.7014,4.6961,4.6794,4.6908,4.7215,4.7643,4.7858,4.8011,4.8252,4.852,4.8665,4.8691,4.8979,4.918,4.915,4.8881,4.8893,4.9447,5.0027,4.991,4.8442,4.8214,4.8157,4.775,4.7961,4.9166,4.9616,4.9571,4.9222,4.6922,4.3425,4.3393,4.3409,4.3409,4.3271,4.3583,4.4136,4.4168,4.4613,4.5383,4.6427,4.7317,4.8115,5.0303,5.1491,5.1822,5.3031,5.3852,5.4277,5.5641,5.6757,5.7574,5.8967,6.0725,6.272,6.2886,6.3915,6.5705,0.0,0.0,0.0,6.1145,6.1555,6.2159,6.2192,6.2453,6.2991,6.3023,0.0,6.2566,6.2064,6.1269,6.0233,5.896,0.0,0.0,0.0,0.0,0.0,0.0,0.0,0.0,0.0,0.0,0.0,3.6384,3.5436,3.4333,3.5735,3.7269,3.8496,3.8666,3.9148,4.0279,4.0409,4.0353,4.0409,4.086,4.1266,4.1484,4.1843,4.2373,4.299,4.2495,4.2183,4.2574,4.4688,4.6531,4.73,4.6682,4.6001,4.5655,4.5594,4.5698,4.5767,4.5845,4.5837,4.564,4.601,4.6417,4.6539,4.6756,4.6876,4.6997,4.7317,4.7533,4.7541,4.7967,4.8307,4.8288,4.7901,4.7799,4.8718,4.9092,4.8629,4.6694,4.6604,4.7085,4.4748,4.5384,4.5551,4.5654,4.5503,4.3839,4.2801,4.224,4.2214,4.2214,4.2188,4.1629,4.141,4.1545,4.1503,4.2194,4.3328,4.3489,4.4265,4.5391,4.578,4.6526,4.764,4.8356,4.964,5.1327,5.2761,5.4127,5.5418,5.684,5.8337,5.9796,6.0441,6.1167,6.198,6.0195,5.9349,5.9545,6.0123,6.0782,6.1539,6.1555,6.1605,6.1687,6.1687,6.103,5.9697,5.9564,5.8574,5.6629,5.5768,5.4194,5.1687,4.8427,4.499,0.0,3.7311,0.0,0.0,0.0,0.0,0.0,0.0,0.0,0.0,3.2437,3.4072,3.6189,3.6398,3.6865,3.8025,3.8129,3.8141,3.8141,3.8193,3.862,3.9482,3.9664,4.013,4.124,4.0367,4.0132,4.115,4.4181,4.6273,4.6295,4.5699,4.4694,4.3604,4.363,4.3925,4.3882,4.4364,4.4806,4.5181,4.5751,4.6166,4.6235,4.6244,4.6357,4.627,4.6374,4.6469,4.6495,4.6599,4.6651,4.6591,4.6529,4.6493,4.6816,4.7464,4.7271,4.549,4.5535,4.6652,4.2748,4.2739,4.2739,4.2026,4.0815,3.9968,3.9753,3.9998,3.9771,3.9783,3.9998,3.9411,3.9207,3.9163,3.9192,3.9681,4.0499,4.0769,4.1541,4.2739,4.3462,4.4298,4.515,4.5874,4.6655,4.7551,4.8881,5.0071,5.1188,5.2852,5.4567,5.6391,5.7026,5.679,5.5669,5.5332,5.5547,5.6258,5.6564,5.7229,5.8338,5.8388,5.8566,5.8955,5.8613,5.8087,5.7362,5.6597,5.5394,5.372,5.2296,5.0413,4.7775,4.3774,4.0186,0.0,0.0,0.0,0.0,0.0,0.0,0.0,0.0,0.0,0.0,0.0,3.1211,3.2513,3.35,3.4501,3.5632,3.5802,3.5762,3.5748,3.6047,3.6369,3.6834,3.7456,3.8069,3.856,3.7938,3.7879,3.909,4.2205,4.4321,4.4335,4.3253,4.2305,4.1905,4.1962,4.2279,4.2639,4.2915,4.3289,4.3828,4.414,4.4345,4.4355,4.4572,4.4746,4.4789,4.5283,4.5733,4.5742,4.6027,4.627,4.6235,4.5768,4.5517,4.601,4.6122,4.5418,4.3922,4.4192,4.4963,4.0793,4.0161,3.933,3.8086,3.674,3.6816,3.7165,3.7605,3.7215,3.7321,3.7616,3.6957,3.6714,3.67,3.6529,3.6841,3.7501,3.7989,3.8963,4.0273,4.1522,4.242,4.3139,4.3853,4.4352,4.4694,4.5648,4.6665,4.7784,4.9094,5.0784,5.274,5.2569,5.1452,4.9664,5.084,5.1811,5.2459,5.2774,5.3533,5.4729,5.4937,5.5256,5.5734,5.5109,5.4713,5.4516,5.3321,5.2011,5.0482,4.8652,4.6363,4.3501,3.9219,0.0,0.0,0.0,0.0,0.0,0.0,0.0,0.0,0.0,2.3926,2.5316,0.0,2.8506,0.0,3.0593,3.2149,3.3242,3.3384,0.0,0.0,3.3749,3.4009,3.419,3.502,3.5617,3.5917,3.5228,3.5258,3.6723,3.982,4.1923,4.1908,4.0469,3.9608,4.015,4.0331,4.0591,4.1042,4.1224,4.1578,4.2208,4.2276,4.2233,4.2305,4.2855,4.3177,4.3162,4.3941,4.4548,4.4704,4.5161,4.5463,4.5369,4.4978,4.4756,4.4835,4.4531,4.3669,4.2221,4.2581,4.3292,3.8464,3.7685,3.4501,3.3396,3.3797,3.4319,3.4774,3.528,3.5214,3.5227,3.5175,3.4202,3.3784,3.3732,3.3137,0.0,3.4605,3.5085,3.6305,3.7985,3.9077,4.0158,4.1255,4.1895,4.2765,4.3823,4.3919,4.5001,4.6841,4.649,4.7342,4.9281,4.6451,4.5154,4.5592,4.6849,4.7837,4.8451,4.9657,5.0625,5.1312,5.1916,5.2249,5.2313,5.1691,5.1068,5.0429,4.9743,4.8452,4.6431,4.4724,4.2192,3.8648,0.0,0.0,0.0,0.0,0.0,0.0,0.0,0.0,0.0,0.0,0.0,0.0,0.0,0.0,2.6002,2.8079,0.0,3.0884,3.0988,0.0,0.0,0.0,3.1261,3.1889,3.2031,3.2509,3.3602,0.0,0.0,3.4216,3.7433,3.9537,3.9532,3.8102,3.7239,3.7909,3.8412,3.871,3.8843,3.9185,3.9879,4.0856,4.0708,4.06,4.1073,4.1776,4.2142,4.2083,4.2218,4.2462,4.2873,4.3296,4.3471,4.3129,4.3751,4.3866,4.1822,4.2202,4.2177,4.016,4.0805,4.1821,3.4865,3.2419,3.1078,3.0624,3.0844,3.1078,3.1459,3.1917,3.1617,3.1634,3.1855,3.0772,3.0289,3.0229,2.9669,0.0,0.0,0.0,3.393,3.5645,3.7097,3.8366,3.9471,4.0057,4.0598,4.1039,4.1116,4.156,4.241,4.2895,4.2367,4.0654,0.0,0.0,4.0791,4.2381,4.4036,4.5739,4.6606,4.7548,4.8542,4.8841,4.8951,4.8967,4.8255,4.7607,4.7034,4.6016,4.4441,4.221,4.0117,3.7539,0.0,0.0,0.0,0.0,0.0,0.0,0.0,0.0,0.0,0.0,0.0,1.9192,2.0116,0.0,0.0,0.0,2.5404,2.7184,2.8593,2.8712,0.0,0.0,0.0,0.0,0.0,0.0,0.0,3.0751,2.9611,2.956,3.1838,3.4488,3.6461,3.7197,3.6338,3.5928,3.6567,0.0,3.7085,3.7369,3.7614,3.8023,3.8852,3.8843,3.8994,3.9819,4.0062,3.9937,3.9536,3.9675,4.002,4.0565,4.1011,4.1349,4.1646,4.0946,4.0054,3.9252,3.9889,3.9874,3.7739,3.8102,3.93,3.05,0.0,0.0,0.0,0.0,2.7569,2.7949,2.8469,2.8246,2.8213,2.8268,2.7291,0.0,0.0,0.0,0.0,0.0,0.0,3.0919,3.2849,3.467,3.6137,3.7267,3.8006,3.83,3.8289,3.8227,3.8272,3.843,3.7875,3.6017,3.2984,0.0,0.0,0.0,0.0,4.0484,4.2802,4.3816,4.4855,4.6111,4.6155,4.6155,4.6139,4.5288,4.4515,4.3743,4.2362,4.0448,3.7955,3.5506,0.0,0.0,0.0,0.0,0.0,0.0,0.0,0.0,0.0,0.0,0.0,0.0,0.0,0.0,0.0,0.0,0.0,0.0,0.0,2.5772,2.6214,2.6415,0.0,0.0,0.0,0.0,0.0,0.0,0.0,0.0,0.0,2.9505,3.205,3.4014,0.0,0.0,3.4566,3.5164,3.5514,3.5825,3.6213,3.6395,0.0,3.6712,3.6998,3.7346,3.774,3.7713,3.748,3.7012,3.7213,3.764,3.8211,3.8252,3.8163,3.8175,3.7272,3.6561,3.6058,3.7202,3.739,3.4929,3.4955,3.6427,0.0,0.0,0.0,0.0,0.0,0.0,0.0,0.0,2.5512,2.5218,0.0,2.3845,0.0,0.0,0.0,0.0,0.0,2.4934,0.0,0.0,3.1554,3.3216,3.4358,3.5476,3.6034,3.6034,3.5384,3.5388,3.5646,3.1022,0.0,0.0,0.0,0.0,0.0,0.0,3.726,3.9624,4.1414,4.2873,4.3989,4.4028,4.4044,4.4017,4.2913,4.1783,4.0581,3.8818,3.6575,3.3704,3.0916,0.0,0.0,0.0,0.0,0.0,0.0,0.0,0.0,0.0,0.0,0.0,0.0,0.0,0.0,0.0,0.0,0.0,0.0,0.0,0.0,2.3373,0.0,0.0,0.0,0.0,0.0,0.0,0.0,0.0,0.0,0.0,2.7136,3.0379,3.251,3.2549,0.0,0.0,0.0,0.0,3.5019,3.5032,3.5578,3.5593,3.4535,3.5285,3.5627,3.4595,0.0,0.0,3.5072,3.5071,3.5252,3.5916,3.5106,3.3747,3.1843,3.2767,3.3333,3.1802,3.3837,3.4432,3.0977,3.1297,3.3479,0.0,0.0,0.0,0.0,0.0,0.0,0.0,0.0,0.0,2.055,0.0,1.9511,0.0,0.0,0.0,0.0,0.0,0.0,0.0,0.0,2.7321,2.8895,3.0049,3.1077,3.1523,0.0,3.0841,2.956,0.0,0.0,0.0,0.0,0.0,0.0,0.0,0.0,3.4236,3.7604,3.94,4.0852,4.1977,4.2056,4.2014,4.203,4.1305,3.9854,3.7594,3.5438,3.2815,0.0,0.0,0.0,0.0,0.0,0.0,0.0,0.0,0.0,0.0,0.0,0.0,0.0,0.0,0.0,0.0,0.0,0.0,0.0,0.0,0.0,0.0,0.0,2.2421,0.0,0.0,0.0,0.0,0.0,0.0,0.0,0.0,0.0,2.3462,2.6971,2.9967,3.1383,3.0968,3.1111,3.2679,0.0,0.0,0.0,0.0,0.0,0.0,0.0,3.429,3.4245,3.3446,3.2963,3.33,3.231,3.1646,3.2191,0.0,0.0,2.7632,2.483,2.3823,2.758,3.0143,3.0315,2.555,2.6618,2.9456,0.0,0.0,0.0,0.0,0.0,0.0,0.0,0.0,0.0,1.6665,1.628,0.0,0.0,0.0,0.0,0.0,0.0,0.0,0.0,0.0,0.0,0.0,2.6108,2.6884,0.0,0.0,0.0,0.0,0.0,0.0,0.0,0.0,0.0,0.0,0.0,0.0,3.2153,3.6032,3.8055,3.9652,4.095,4.1002,4.1002,4.1002,4.0321,3.8747,3.6294,0.0,0.0,0.0,0.0,0.0,0.0,0.0,0.0,0.0,0.0,0.0,0.0,0.0,0.0,0.0,0.0,0.0,0.0,0.0,0.0,0.0,0.0,0.0,0.0,0.0,2.0265,0.0,0.0,0.0,0.0,0.0,0.0,0.0,0.0,0.0,0.0,0.0,2.726,2.9656,2.9213,2.9294,3.1093,3.189,3.2593,0.0,0.0,0.0,0.0,0.0,0.0,0.0,0.0,0.0,0.0,0.0,0.0,0.0,0.0,2.3784,2.3274,1.8778,1.6961,2.3172,0.0,0.0,0.0,0.0,0.0,0.0,0.0,0.0,0.0,0.0,0.0,0.0,0.0,0.0,0.0,0.0,0.0,0.0,1.1334,0.0,0.0,0.0,0.0,0.0,0.0,0.0,0.0,0.0,0.0,0.0,0.0,0.0,0.0,0.0,0.0,0.0,0.0,0.0,0.0,0.0,0.0,3.1072,3.4929,3.7343,3.9319,4.0939,4.1002,4.0991,4.0939,3.986,3.8418,3.668,0.0,0.0,0.0,0.0,0.0,0.0,0.0,0.0,0.0,0.0,0.0,0.0,0.0,0.0,0.0,0.0,0.0,0.0,0.0,0.0,0.0,0.0,0.0,0.0,0.0,0.0,1.8032,1.8538,1.8835,0.0,0.0,0.0,0.0,0.0,0.0,0.0,0.0,0.0,0.0,2.7429,2.7537,2.8584,3.0389,3.1549,3.1686,3.2112,3.2464,3.2376,3.1957,3.1412,0.0,0.0,0.0,0.0,0.0,0.0,0.0,0.0,0.0,0.0,0.0,0.0,0.0,0.0,0.0,0.0,0.0,0.0,0.0,0.0,0.0,0.0,0.0,0.0,0.0,0.0,0.0,0.0,0.0,0.0,0.0,0.0,0.0,0.0,0.0,0.0,0.0,0.0,0.0,0.0,0.0,0.0,0.0,0.0,0.0,0.0,0.0,0.0,0.0,0.0,0.0,0.0,0.0,0.0,3.0622,3.4955,3.7319,3.9319,4.0991,4.1002,4.0836,4.0466,3.897,3.7191,0.0,0.0,0.0,0.0,0.0,0.0,0.0,0.0,0.0,0.0,0.0,0.0,0.0,0.0,0.0,0.0,0.0,0.0,0.0,0.0,0.0,0.0,0.0,0.0,0.0,0.0,0.0,0.0,1.6968,1.7331,1.7588,0.0,0.0,0.0,0.0,0.0,0.0,0.0,0.0,0.0,0.0,2.5889,2.66,2.8085,2.9477,3.057,3.1551,3.1748,3.0456,3.0146,2.9674,2.8573,0.0,0.0,0.0,0.0,0.0,0.0,0.0,0.0,0.0,0.0,0.0,0.0,0.0,0.0,0.0,0.0,0.0,0.0,0.0,0.0,0.0,0.0,0.0,0.0,0.0,0.0,0.0,0.0,0.0,0.0,0.0,0.0,0.0,0.0,0.0,0.0,0.0,0.0,0.0,0.0,0.0,0.0,0.0,0.0,0.0,0.0,0.0,0.0,0.0,0.0,0.0,0.0,0.0,2.9861,3.4644,3.6981,3.914,4.0913,4.1002,4.0773,4.0232,3.8346,3.6061,0.0,0.0,0.0,0.0,0.0,0.0,0.0,0.0,0.0,0.0,0.0,0.0,0.0,0.0,0.0,0.0,0.0,0.0,0.0,0.0,0.0,0.0,0.0,0.0,0.0,0.0,0.0,0.0,1.4971,1.5434,1.5631,0.0,0.0,0.0,0.0,0.0,0.0,0.0,0.0,0.0,0.0,2.3663,2.3962,2.5411,0.0,0.0,2.9539,2.9762,2.7917,2.7654,2.7356,2.6511,2.4647,0.0,0.0,0.0,0.0,0.0,0.0,0.0,0.0,0.0,0.0,0.0,0.0,0.0,0.0,0.0,0.0,0.0,0.0,0.0,0.0,0.0,0.0,0.0,0.0,0.0,0.0,0.0,0.0,0.0,0.0,0.0,0.0,0.0,0.0,0.0,0.0,0.0,0.0,0.0,0.0,0.0,0.0,0.0,0.0,0.0,0.0,0.0,0.0,0.0,0.0,0.0,0.0,0.0,3.4072,3.6517,3.8776,4.0913,4.1002,4.0721,4.0117,3.785,3.5007,0.0,0.0,0.0,0.0,0.0,0.0,0.0,0.0,0.0,0.0,0.0,0.0,0.0,0.0,0.0,0.0,0.0,0.0,0.0,0.0,0.0,0.0,0.0,0.0,0.0,0.0,0.0,0.0,0.0,0.0,0.0,0.0,0.0,0.0,0.0,0.0,0.0,0.0,0.0,0.0,0.0,2.1033,2.0773,2.2364,2.3895,0.0,0.0,2.6866,2.4849,2.4553,2.4532,2.4342,0.0,0.0,0.0,0.0,0.0,0.0,0.0,0.0,0.0,0.0,0.0,0.0,0.0,0.0,0.0,0.0,0.0,0.0,0.0,0.0,0.0,0.0,0.0,0.0,0.0,0.0,0.0,0.0,0.0,0.0,0.0,0.0,0.0,0.0,0.0,0.0,0.0,0.0,0.0,0.0,0.0,0.0,0.0,0.0,0.0,0.0,0.0,0.0,0.0,0.0,0.0,0.0,0.0,0.0,3.4124,3.6503,3.8776,4.0913,4.1002,4.0342,3.8944,3.6642,0.0,0.0,0.0,0.0,0.0,0.0,0.0,0.0,0.0,0.0,0.0,0.0,0.0,0.0,0.0,0.0,0.0,0.0,0.0,0.0,0.0,0.0,0.0,0.0,0.0,0.0,0.0,0.9396,0.0,0.0,0.0,0.0,0.0,0.0,0.0,0.0,0.0,0.0,0.0,0.0,0.0,0.0,1.874,1.7931,1.8318,1.9497,0.0,0.0,2.4481,2.13,2.1438,2.1676,0.0,0.0,0.0,0.0,0.0,0.0,0.0,0.0,0.0,0.0,0.0,0.0,0.0,0.0,0.0,0.0,0.0,0.0,0.0,0.0,0.0,0.0,0.0,0.0,0.0,0.0,0.0,0.0,0.0,0.0,0.0,0.0,0.0,0.0,0.0,0.0,0.0,0.0,0.0,0.0,0.0,0.0,0.0,0.0,0.0,0.0,0.0,0.0,0.0,0.0,0.0,0.0,0.0,0.0,2.8318,3.3332,3.6009,3.8412,4.0565,4.0887,4.0228,3.8554,3.6213,3.3035,0.0,0.0,0.0,0.0,0.0,0.0,0.0,0.0,0.0,0.0,0.0,0.0,0.0,0.0,0.0,0.0,0.0,0.0,0.0,0.0,0.0,0.0,0.0,0.0,0.0,0.0,0.0,0.0,0.0,0.0,0.0,0.0,0.0,0.0,0.0,0.0,0.0,0.0,0.0,0.0,0.0,0.0,1.5391,1.5151,0.0,0.0,0.0,2.1362,1.796,0.0,0.0,0.0,0.0,0.0,0.0,0.0,0.0,0.0,0.0,0.0,0.0,0.0,0.0,0.0,0.0,0.0,0.0,0.0,0.0,0.0,0.0,0.0,0.0,0.0,0.0,0.0,0.0,0.0,0.0,0.0,0.0,0.0,0.0,0.0,0.0,0.0,0.0,0.0,0.0,0.0,0.0,0.0,0.0,0.0,0.0,0.0,0.0,0.0,0.0,0.0,0.0,0.0,0.0,0.0,0.0,0.0,3.2279,3.528,3.789,4.0117,4.0762,4.0176,3.8464,3.6122,3.2752,0.0,0.0,0.0,0.0,0.0,0.0,0.0,0.0,0.0,0.0,0.0,0.0,0.0,0.0,0.0,0.0,0.0,0.0,0.0,0.0,0.0,0.0,0.0,0.0,0.0,0.0,0.0,0.0,0.0,0.0,0.0,0.0,0.0,0.0,0.0,0.0,0.0,0.0,0.0,0.0,0.0,1.2282,1.3121,1.2575,1.2994,0.0,0.0,1.7872,1.495,1.5418,0.0,0.0,0.0,0.0,0.0,0.0,0.0,0.0,0.0,0.0,0.0,0.0,0.0,0.0,0.0,0.0,0.0,0.0,0.0,0.0,0.0,0.0,0.0,0.0,0.0,0.0,0.0,0.0,0.0,0.0,0.0,0.0,0.0,0.0,0.0,0.0,0.0,0.0,0.0,0.0,0.0,0.0,0.0,0.0,0.0,0.0,0.0,0.0,0.0,0.0,0.0,0.0,0.0,0.0,0.0,0.0,3.1745,3.5046,3.789,4.0128,4.0732,4.0009,3.7907,3.5619,3.2253,0.0,0.0,0.0,0.0,0.0,0.0,0.0,0.0,0.0,0.0,0.0,0.0,0.0,0.0,0.0,0.0,0.0,0.0,0.0,0.0,0.0,0.0,0.0,0.0,0.0,0.0,0.0,0.0,0.0,0.0,0.0,0.0,0.0,0.0,0.0,0.0,0.0,0.0,0.0,0.0,0.0,1.1352,1.1131,1.0555,0.0,0.0,0.0,0.0,1.32,1.3622,0.0,0.0,0.0,0.0,0.0,0.0,0.0,0.0,0.0,0.0,0.0,0.0,0.0,0.0,0.0,0.0,0.0,0.0,0.0,0.0,0.0,0.0,0.0,0.0,0.0,0.0,0.0,0.0,0.0,0.0,0.0,0.0,0.0,0.0,0.0,0.0,0.0,0.0,0.0,0.0,0.0,0.0,0.0,0.0,0.0,0.0,0.0,0.0,0.0,0.0,0.0,0.0,0.0,0.0,0.0,0.0,2.9917,3.3904,3.7031,3.9307,4.0446,3.9942,3.7779,3.545,3.2083,0.0,0.0,0.0,0.0,0.0,0.0,0.0,0.0,0.0,0.0,0.0,0.0,0.0,0.0,0.0,0.0,0.0,0.0,0.0,0.0,0.0,0.0,0.0,0.0,0.0,0.0,0.0,0.0,0.0,0.0,0.0,0.0,0.0,0.0,0.0,0.0,0.0,0.0,0.0,0.0,0.9667,1.0052,1.0038,0.0,0.0,0.0,0.0,0.0,0.0,1.1859,1.1956,0.0,0.0,0.0,0.0,0.0,0.0,0.0,0.0,0.0,0.0,0.0,0.0,0.0,0.0,0.0,0.0,0.0,0.0,0.0,0.0,0.0,0.0,0.0,0.0,0.0,0.0,0.0,0.0,0.0,0.0,0.0,0.0,0.0,0.0,0.0,0.0,0.0,0.0,0.0,0.0,0.0,0.0,0.0,0.0,0.0,0.0,0.0,0.0,0.0,0.0,0.0,0.0,0.0,0.0,0.0,2.7816,3.231,3.5776,3.8148,3.9819,3.9657,3.7567,3.5251,3.1863,2.7296,0.0,0.0,0.0,0.0,0.0,0.0,0.0,0.0,0.0,0.0,0.0,0.0,0.0,0.0,0.0,0.0,0.0,0.0,0.0,0.0,0.0,0.0,0.0,0.0,0.0,0.0,0.0,0.0,0.0,0.0,0.0,0.0,0.0,0.0,0.0,0.0,0.0,0.0,0.0,0.8583,0.8736,0.0,0.0,0.0,0.0,0.0,0.0,0.0,0.0,1.0153,0.0,0.0,0.0,0.0,0.0,0.0,0.0,0.0,0.0,0.0,0.0,0.0,0.0,0.0,0.0,0.0,0.0,0.0,0.0,0.0,0.0,0.0,0.0,0.0,0.0,0.0,0.0,0.0,0.0,0.0,0.0,0.0,0.0,0.0,0.0,0.0,0.0,0.0,0.0,0.0,0.0,0.0,0.0,0.0,0.0,0.0,0.0,0.0,0.0,0.0,0.0,0.0,0.0,0.0,0.0,0.0,3.0757,3.4304,3.6942,3.8576,3.8512,3.6789,3.456,3.1037,2.6107,0.0,0.0,0.0,0.0,0.0,0.0,0.0,0.0,0.0,0.0,0.0,0.0,0.0,0.0,0.0,0.0,0.0,0.0,0.0,0.0,0.0,0.0,0.0,0.0,0.0,0.0,0.0,0.0,0.0,0.0,0.0,0.0,0.0,0.0,0.0,0.0,0.0,0.0,0.7856,0.7919,0.0,0.0,0.0,0.0,0.0,0.0,0.0,0.0,0.8836,0.0,0.0,0.0,0.0,0.0,0.0,0.0,0.0,0.0,0.0,0.0,0.0,0.0,0.0,0.0,0.0,0.0,0.0,0.0,0.0,0.0,0.0,0.0,0.0,0.0,0.0,0.0,0.0,0.0,0.0,0.0,0.0,0.0,0.0,0.0,0.0,0.0,0.0,0.0,0.0,0.0,0.0,0.0,0.0,0.0,0.0,0.0,0.0,0.0,0.0,0.0,0.0,0.0,0.0,0.0,0.0,0.0,0.0,3.2271,3.4823,3.7008,3.733,3.5604,3.2895,2.9171,0.0,0.0,0.0,0.0,0.0,0.0,0.0,0.0,0.0,0.0,0.0,0.0,0.0,0.0,0.0,0.0,0.0,0.0,0.0,0.0,0.0,0.0,0.0,0.0,0.0,0.0,0.0,0.0,0.0,0.0,0.0,0.0,0.0,0.0,0.0,0.0,0.0,0.0,0.0,0.0,0.0,0.0,0.0,0.0,0.0,0.0,0.0,0.0,0.0,0.0,0.0,0.0,0.0,0.0,0.0,0.0,0.0,0.0,0.0,0.0,0.0,0.0,0.0,0.0,0.0,0.0,0.0,0.0,0.0,0.0,0.0,0.0,0.0,0.0,0.0,0.0,0.0,0.0,0.0,0.0,0.0,0.0,0.0,0.0,0.0,0.0,0.0,0.0,0.0,0.0,0.0,0.0,0.0,0.0,0.0,0.0,0.0,0.0,0.0,0.0,0.0,0.0,0.0,0.0,0.0,0.0,0.0,0.0,2.9758,3.233,3.5046,3.5757,3.4194,3.1095,2.7374,0.0,0.0,0.0,0.0,0.0,0.0,0.0,0.0,0.0,0.0,0.0,0.0,0.0,0.0,0.0,0.0,0.0,0.0,0.0,0.0,0.0,0.0,0.0,0.0,0.0,0.0,0.0,0.0,0.0,0.0,0.0,0.0,0.0,0.0,0.0,0.0,0.0,0.0,0.0,0.0,0.0,0.0,0.0,0.0,0.0,0.0,0.0,0.0,0.7039,0.0,0.0,0.0,0.0,0.0,0.0,0.0,0.0,0.0,0.0,0.0,0.0,0.0,0.0,0.0,0.0,0.0,0.0,0.0,0.0,0.0,0.0,0.0,0.0,0.0,0.0,0.0,0.0,0.0,0.0,0.0,0.0,0.0,0.0,0.0,0.0,0.0,0.0,0.0,0.0,0.0,0.0,0.0,0.0,0.0,0.0,0.0,0.0,0.0,0.0,0.0,0.0,0.0,0.0,0.0,0.0,0.0,0.0,0.0,2.6753,2.9544,3.2362,3.3333,3.2189,2.9677,2.6383,0.0,0.0,0.0,0.0,0.0,0.0,0.0,0.0,0.0,0.0,0.0,0.0,0.0,0.0,0.0,0.0,0.0,0.0,0.0,0.0,0.0,0.0,0.0,0.0,0.0,0.0,0.0,0.0,0.0,0.0,0.0,0.0,0.0,0.0,0.0,0.0,0.0,0.0,0.0,0.0,0.0,0.0,0.0,0.0,0.0,0.0,0.0,0.0,0.0,0.0,0.0,0.0,0.0,0.0,0.0,0.0,0.0,0.0,0.0,0.0,0.0,0.0,0.0,0.0,0.0,0.0,0.0,0.0,0.0,0.0,0.0,0.0,0.0,0.0,0.0,0.0,0.0,0.0,0.0,0.0,0.0,0.0,0.0,0.0,0.0,0.0,0.0,0.0,0.0,0.0,0.0,0.0,0.0,0.0,0.0,0.0,0.0,0.0,0.0,0.0,0.0,0.0,0.0,0.0,0.0,0.0,0.0,0.0,2.2982,2.575,2.9036,2.9818,2.7865,2.6324,2.382,0.0,0.0,0.0,0.0,0.0,0.0,0.0,0.0,0.0,0.0,0.0,0.0,0.0,0.0,0.0,0.0,0.0,0.0,0.0,0.0,0.0,0.0,0.0,0.0,0.0,0.0,0.0,0.0,0.0,0.0,0.0,0.0,0.0,0.0,0.0,0.0,0.0,0.0,0.0,0.0,0.0,0.0,0.0,0.0,0.0,0.0,0.0,0.0,0.0,0.0,0.0,0.0,0.0,0.0,0.0,0.0,0.0,0.0,0.0,0.0,0.0,0.0,0.0,0.0,0.0,0.0,0.0,0.0,0.0,0.0,0.0,0.0,0.0,0.0,0.0,0.0,0.0,0.0,0.0,0.0,0.0,0.0,0.0,0.0,0.0,0.0,0.0,0.0,0.0,0.0,0.0,0.0,0.0,0.0,0.0,0.0,0.0,0.0,0.0,0.0,0.0,0.0,0.0,0.0,0.0,0.0,0.0,0.0,0.0,2.2251,2.4804,2.53,2.3592,2.2757,2.1022,0.0,0.0,0.0,0.0,0.0,0.0,0.0,0.0,0.0,0.0,0.0,0.0,0.0,0.0,0.0,0.0,0.0,0.0,0.0,0.0,0.0,0.0,0.0,0.0,0.0,0.0,0.0,0.0,0.0,0.0,0.0,0.0,0.0,0.0,0.0,0.0,0.0,0.0,0.0,0.0,0.0,0.0,0.0,0.0,0.0,0.0,0.0,0.0,0.0,0.0,0.0,0.0,0.0,0.0,0.0,0.0,0.0,0.0,0.0,0.0,0.0,0.0,0.0,0.0,0.0,0.0,0.0,0.0,0.0,0.0,0.0,0.0,0.0,0.0,0.0,0.0,0.0,0.0,0.0,0.0,0.0,0.0,0.0,0.0,0.0,0.0,0.0,0.0,0.0,0.0,0.0,0.0,0.0,0.0,0.0,0.0,0.0,0.0,0.0,0.0,0.0,0.0,0.0,0.0,0.0,0.0,0.0,0.0,0.0,1.9605,1.937,1.9474,1.9889,1.9609,1.8378,0.0,0.0,0.0,0.0,0.0,0.0,0.0,0.0,0.0,0.0,0.0,0.0,0.0,0.0,0.0,0.0,0.0,0.0,0.0,0.0,0.0,0.0,0.0,0.0,0.0,0.0,0.0,0.0,0.0,0.0,0.0,0.0,0.0,0.0,0.0,0.0,0.0,0.0,0.0,0.0,0.0,0.0,0.0,0.0,0.0,0.0,0.0,0.0,0.0,0.0,0.0,0.0,0.0,0.0,0.0,0.0,0.0,0.0,0.0,0.0,0.0,0.0,0.0,0.0,0.0,0.0,0.0,0.0,0.0,0.0,0.0,0.0,0.0,0.0,0.0,0.0,0.0,0.0,0.0,0.0,0.0,0.0,0.0,0.0,0.0,0.0,0.0,0.0,0.0,0.0,0.0,0.0,0.0,0.0,0.0,0.0,0.0,0.0,0.0,0.0,0.0,0.0,0.0,0.0,0.0,0.0,0.0,0.0,0.0,1.407,1.4754,1.5535,1.6458,1.5953,1.497,1.346,0.0,0.0,0.0,0.0,0.0,0.0,0.0,0.0,0.0,0.0,0.0,0.0,0.0,0.0,0.0,0.0,0.0,0.0,0.0,0.0,0.0,0.0,0.0,0.0,0.0,0.0,0.0,0.0,0.0,0.0,0.0,0.0,0.0,0.0,0.0,0.0,0.0,0.0,0.0,0.0,0.0,0.0,0.0,0.0,0.0,0.0,0.0,0.0,0.0,0.0,0.0,0.0,0.0,0.0,0.0,0.0,0.0,0.0,0.0,0.0,0.0,0.0,0.0,0.0,0.0,0.0,0.0,0.0,0.0,0.0,0.0,0.0,0.0,0.0,0.0,0.0,0.0,0.0,0.0,0.0,0.0,0.0,0.0,0.0,0.0,0.0,0.0,0.0,0.0,0.0,0.0,0.0,0.0,0.0,0.0,0.0,0.0,0.0,0.0,0.0,0.0,0.0,0.0,0.0,0.0,0.0,0.0,0.0,0.9928,1.1181,1.2254,1.3018,1.2704,1.2044,0.0,0.0,0.0,0.0,0.0,0.0,0.0,0.0,0.0,0.0,0.0,0.0,0.0,0.0,0.0,0.0,0.0,0.0,0.0,0.0,0.0,0.0,0.0,0.0,0.0,0.0,0.0,0.0,0.0,0.0,0.0,0.0,0.0,0.0,0.0,0.0,0.0,0.0,0.0,0.0,0.0,0.0,0.0,0.0,0.0,0.0,0.0,0.0,0.0,0.0,0.0,0.0,0.0,0.0,0.0,0.0,0.0,0.0,0.0,0.0,0.0,0.0,0.0,0.0,0.0,0.0,0.0,0.0,0.0,0.0,0.0,0.0,0.0,0.0,0.0,0.0,0.0,0.0,0.0,0.0,0.0,0.0,0.0,0.0,0.0,0.0,0.0,0.0,0.0,0.0,0.0,0.0,0.0,0.0,0.0,0.0,0.0,0.0,0.0,0.0,0.0,0.0,0.0,0.0,0.0,0.0,0.0,0.0,0.6416,0.7767,0.8843,0.9546,0.973,1.0007,0.9642,0.0,0.0,0.0,0.0,0.0,0.0,0.0,0.0,0.0,0.0,0.0,0.0,0.0,0.0,0.0,0.0,0.0,0.0,0.0,0.0,0.0,0.0,0.0,0.0,0.0,0.0,0.0,0.0,0.0,0.0,0.0,0.0,0.0,0.0,0.0,0.0,0.0,0.0,0.0,0.0,0.0,0.0,0.0,0.0,0.0,0.0,0.0,0.0,0.0,0.0,0.0,0.0,0.0,0.0,0.0,0.0,0.0,0.0,0.0,0.0,0.0,0.0,0.0,0.0,0.0,0.0,0.0,0.0,0.0,0.0,0.0,0.0,0.0,0.0,0.0,0.0,0.0,0.0,0.0,0.0,0.0,0.0,0.0,0.0,0.0,0.0,0.0,0.0,0.0,0.0,0.0,0.0,0.0,0.0,0.0,0.0,0.0,0.0,0.0,0.0,0.0,0.0,0.0,0.0,0.0,0.0,0.0,0.0,0.0,0.6329,0.0,0.7529,0.0,0.7611,0.7473,0.0,0.0,0.0,0.0,0.0,0.0,0.0,0.0,0.0,0.0,0.0,0.0,0.0,0.0,0.0,0.0,0.0,0.0,0.0,0.0,0.0,0.0,0.0,0.0,0.0,0.0,0.0,0.0,0.0,0.0,0.0,0.0,0.0,0.0,0.0,0.0,0.0,0.0,0.0,0.0,0.0,0.0,0.0,0.0,0.0,0.0,0.0,0.0,0.0,0.0,0.0,0.0,0.0,0.0,0.0,0.0,0.0,0.0,0.0,0.0,0.0,0.0,0.0,0.0,0.0,0.0,0.0,0.0,0.0,0.0,0.0,0.0,0.0,0.0,0.0,0.0,0.0,0.0,0.0,0.0,0.0,0.0,0.0,0.0,0.0,0.0,0.0,0.0,0.0,0.0,0.0,0.0,0.0,0.0,0.0,0.0,0.0,0.0,0.0,0.0,0.0,0.0,0.0,0.0,0.0,0.0,0.0,0.0,0.0,0.5498,0.5918,0.6122,0.6109,0.6094,0.6078,0.0,0.0,0.0,0.0,0.0,0.0,0.0,0.0,0.0,0.0,0.0,0.0,0.0,0.0,0.0,0.0,0.0,0.0,0.0,0.0,0.0,0.0,0.0,0.0,0.0,0.0,0.0,0.0,0.0,0.0,0.0,0.0,0.0,0.0,0.0,0.0,0.0,0.0,0.0,0.0,0.0,0.0,0.0,0.0,0.0,0.0,0.0,0.0,0.0,0.0,0.0,0.0,0.0,0.0,0.0,0.0,0.0,0.0,0.0,0.0,0.0,0.0,0.0,0.0,0.0,0.0,0.0,0.0,0.0,0.0,0.0,0.0,0.0,0.0,0.0,0.0,0.0,0.0,0.0,0.0,0.0,0.0,0.0,0.0,0.0,0.0,0.0,0.0,0.0,0.0,0.0,0.0,0.0,0.0,0.0,0.0,0.0,0.0,0.0,0.0,0.0,0.0,0.0,0.0,0.0,0.0,0.0,0.0,0.0,0.0,0.5246,0.5262,0.5299,0.5399,0.5438,0.0,0.0,0.0,0.0,0.0,0.0,0.0,0.0,0.0,0.0,0.0,0.0,0.0,0.0,0.0,0.0,0.0,0.0,0.0,0.0,0.0,0.0,0.0,0.0,0.0,0.0,0.0,0.0,0.0,0.0,0.0,0.0,0.0,0.0,0.0,0.0,0.0,0.0,0.0,0.0,0.0,0.0,0.0,0.0,0.0,0.0,0.0,0.0,0.0,0.0,0.0,0.0,0.0,0.0,0.0,0.0,0.0,0.0,0.0,0.0,0.0,0.0,0.0,0.0,0.0,0.0,0.0,0.0,0.0,0.0,0.0,0.0,0.0,0.0,0.0,0.0,0.0,0.0,0.0,0.0,0.0,0.0,0.0,0.0,0.0,0.0,0.0,0.0,0.0,0.0,0.0,0.0,0.0,0.0,0.0,0.0,0.0,0.0,0.0,0.0,0.0,0.0,0.0,0.0,0.0,0.0,0.0,0.0,0.0,0.0,0.522,0.0,0.5236,0.5277,0.5262,0.5182,0.0,0.0,0.0,0.0,0.0,0.0,0.0,0.0,0.0,0.0,0.0,0.0,0.0,0.0,0.0,0.0,0.0,0.0,0.0,0.0,0.0,0.0,0.0,0.0,0.0,0.0,0.0,0.0,0.0,0.0,0.0,0.0,0.0,0.0,0.0,0.0,0.0,0.0,0.0,0.0,0.0,0.0,0.0,0.0,0.0,0.0,0.0,0.0,0.0,0.0,0.0,0.0,0.0,0.0,0.0,0.0,0.0,0.0,0.0,0.0,0.0,0.0,0.0,0.0,0.0,0.0,0.0,0.0,0.0,0.0,0.0,0.0,0.0,0.0,0.0,0.0,0.0,0.0,0.0,0.0,0.0,0.0,0.0,0.0,0.0,0.0,0.0,0.0,0.0,0.0,0.0,0.0,0.0,0.0,0.0,0.0,0.0,0.0,0.0,0.0,0.0,0.0,0.0,0.0,0.0,0.0,0.0,0.0,0.0,0.0,0.522,0.522,0.522,0.5159,0.0,0.0,0.0,0.0,0.0,0.0,0.0,0.0,0.0,0.0,0.0,0.0,0.0,0.0,0.0,0.0,0.0,0.0,0.0,0.0,0.0,0.0,0.0,0.0,0.0,0.0,0.0,0.0,0.0,0.0,0.0,0.0,0.0,0.0,0.0,0.0,0.0,0.0,0.0,0.0,0.0,0.0,0.0,0.0,0.0,0.0,0.0,0.0,0.0,0.0,0.0,0.0,0.0,0.0,0.0,0.0,0.0,0.0,0.0,0.0,0.0,0.0,0.0,0.0,0.0,0.0,0.0,0.0,0.0,0.0,0.0,0.0,0.0,0.0,0.0,0.0,0.0,0.0,0.0,0.0,0.0,0.0,0.0,0.0,0.0,0.0,0.0,0.0,0.0,0.0,0.0,0.0,0.0,0.0,0.0,0.0,0.0,0.0,0.0,0.0,0.0,0.0,0.0,0.0,0.0,0.0,0.0,0.0,0.0,0.0,0.0,0.522,0.522,0.5222,0.0,0.4822,0.0,0.0,0.0,0.0,0.0,0.0,0.0,0.0,0.0,0.0,0.0,0.0,0.0,0.0,0.0,0.0,0.0,0.0,0.0,0.0,0.0,0.0,0.0,0.0,0.0,0.0,0.0,0.0,0.0,0.0,0.0,0.0,0.0,0.0,0.0,0.0,0.0,0.0,0.0,0.0,0.0,0.0,0.0,0.0,0.0,0.0,0.0,0.0,0.0,0.0,0.0,0.0,0.0,0.0,0.0,0.0,0.0,0.0,0.0,0.0,0.0,0.0,0.0,0.0,0.0,0.0,0.0,0.0,0.0,0.0,0.0,0.0,0.0,0.0,0.0,0.0,0.0,0.0,0.0,0.0,0.0,0.0,0.0,0.0,0.0,0.0,0.0,0.0,0.0,0.0,0.0,0.0,0.0,0.0,0.0,0.0,0.0,0.0,0.0,0.0,0.0,0.0,0.0,0.0,0.0,0.0,0.0,0.0,0.0,0.0,0.0,0.0,0.5067,0.4929,0.4846,0.0,0.0,0.0,0.0,0.0,0.0,0.0,0.0,0.0,0.0,0.0,0.0,0.0,0.0,0.0,0.0,0.0,0.0,0.0,0.0,0.0,0.0,0.0,0.0,0.0,0.0,0.0,0.0,0.0,0.0,0.0,0.0,0.0,0.0,0.0,0.0,0.0,0.0,0.0,0.0,0.0,0.0,0.0,0.0,0.0,0.0,0.0,0.0,0.0,0.0,0.0,0.0,0.0,0.0,0.0,0.0,0.0,0.0,0.0,0.0,0.0,0.0,0.0,0.0,0.0,0.0,0.0,0.0,0.0,0.0,0.0,0.0,0.0,0.0,0.0,0.0,0.0,0.0,0.0,0.0,0.0,0.0,0.0,0.0,0.0,0.0,0.0,0.0,0.0,0.0,0.0,0.0,0.0,0.0,0.0,0.0,0.0,0.0,0.0,0.0,0.0,0.0,0.0,0.0,0.0,0.0,0.0,0.0,0.0,0.0,0.5166,0.5049,0.4927,0.4724,0.4415,0.0,0.0,0.0,0.0,0.0,0.0,0.0,0.0,0.0,0.0,0.0,0.0,0.0,0.0,0.0,0.0,0.0,0.0,0.0,0.0,0.0,0.0,0.0,0.0,0.0,0.0,0.0,0.0,0.0,0.0,0.0,0.0,0.0,0.0,0.0,0.0,0.0,0.0,0.0,0.0,0.0,0.0,0.0,0.0,0.0,0.0,0.0,0.0,0.0,0.0,0.0,0.0,0.0,0.0,0.0,0.0,0.0,0.0,0.0,0.0,0.0,0.0,0.0,0.0,0.0,0.0,0.0,0.0,0.0,0.0,0.0,0.0,0.0,0.0,0.0,0.0,0.0,0.0,0.0,0.0,0.0,0.0,0.0,0.0,0.0,0.0,0.0,0.0,0.0,0.0,0.0,0.0,0.0,0.0,0.0,0.0,0.0,0.0,0.0,0.0,0.0,0.0,0.0,0.0,0.0,0.0,0.0,0.0,0.0,0.0,0.0,0.0,0.0,0.0,0.3905,0.0,0.0,0.0,0.0,0.0,0.0,0.0,0.0,0.0,0.0,0.0,0.0,0.0,0.0,0.0,0.0,0.0,0.0,0.0,0.0,0.0,0.0,0.0,0.0,0.0,0.0,0.0,0.0,0.0,0.0,0.0,0.0,0.0,0.0,0.0,0.0,0.0,0.0,0.0,0.0,0.0,0.0,0.0,0.0,0.0,0.0,0.0,0.0,0.0,0.0,0.0,0.0,0.0,0.0,0.0,0.0,0.0,0.0,0.0,0.0,0.0,0.0,0.0,0.0,0.0,0.0,0.0,0.0,0.0,0.0,0.0,0.0,0.0,0.0,0.0,0.0,0.0,0.0,0.0,0.0,0.0,0.0,0.0,0.0,0.0,0.0,0.0,0.0,0.0,0.0,0.0,0.0,0.0,0.0,0.0,0.0,0.0,0.0,0.0,0.0,0.0,0.0,0.0,0.0,0.0,0.0,0.0,0.0,0.0,0.0,0.0,0.0,0.0,0.0,0.0,0.0,0.0,0.0,0.0,0.0,0.0,0.0,0.0,0.0,0.0,0.0,0.0,0.0,0.0,0.0,0.0,0.0,0.0,0.0,0.0,0.0,0.0,0.0,0.0,0.0,0.0,0.0,0.0,0.0,0.0,0.0,0.0,0.0,0.0,0.0,0.0,0.0,0.0,0.0,0.0,0.0,0.0,0.0,0.0,0.0,0.0,0.0,0.0,0.0,0.0,0.0,0.0,0.0,0.0,0.0,0.0,0.0,0.0,0.0,0.0,0.0,0.0,0.0,0.0,0.0,0.0,0.0,0.0,0.0,0.0,0.0,0.0,0.0,0.0,0.0,0.0,0.0,0.0,0.0,0.0,0.0,0.0,0.0,0.0,0.0,0.0,0.0,0.0,0.0,0.0,0.0,0.0,0.0,0.0,0.0,0.0,0.0,0.0,0.0,0.0,0.0,0.0,0.0,0.0,0.0,0.0,0.0,0.0,0.0,0.0,0.0,0.0,0.0,0.0,0.0,0.0,0.0,0.0,0.0,0.0,0.0,0.0,0.0,0.0,0.0,0.0,0.0,0.0,0.0,0.0,0.0,0.0,0.0,0.0,0.0,0.0,0.0,0.0,0.0,0.0,0.0,0.0,0.0,0.0,0.0,0.0,0.0,0.0,0.0,0.0,0.0,0.0,0.0,0.0,0.0,0.0,0.0,0.0,0.0,0.0,0.0,0.0,0.0,0.0,0.0,0.0,0.0,0.0,0.0,0.0,0.0,0.0,0.0,0.0,0.0,0.0,0.0,0.0,0.0,0.0,0.0,0.0,0.0,0.0,0.0,0.0,0.0,0.0,0.0,0.0,0.0,0.0,0.0,0.0,0.0,0.0,0.0,0.0,0.0,0.0,0.0,0.0,0.0,0.0,0.0,0.0,0.0,0.0,0.0,0.0,0.0,0.0,0.0,0.0,0.0,0.0,0.0,0.0,0.0,0.0,0.0,0.0,0.0,0.0,0.0,0.0,0.0,0.0,0.0,0.0,0.0,0.0,0.0,0.0,0.0,0.0,0.0,0.0,0.0,0.0,0.0,0.0,0.0,0.0,0.0,0.0,0.0,0.0,0.0,0.0,0.0,0.0,0.0,0.0,0.0,0.0,0.0,0.0,0.0,0.0,0.0,0.0,0.0,0.0,0.0,0.0,0.0,0.0,0.0,0.0,0.0,0.0,0.0,0.0,0.0,0.0,0.0,0.0,0.0,0.0,0.0,0.0,0.0,0.0,0.0,0.0,0.0,0.0,0.0,0.0,0.0,0.0,0.0,0.0,0.0,0.0,0.0,0.0,0.0,0.0,0.0,0.0,0.0,0.0,0.0,0.0,0.0,0.0,0.0,0.0,0.0,0.0,0.0,0.0,0.0,0.0,0.0,0.0,0.0,0.0,0.0,0.0,0.0,0.0,0.0,0.0,0.0,0.0,0.0,0.0,0.0,0.0,0.0,0.0,0.0,0.0,0.0,0.0,0.0,0.0,0.0,0.0,0.0,0.0,0.0,0.0,0.0,0.0,0.0,0.0,0.0,0.0,0.0,0.0,0.0,0.0,0.0,0.0,0.0,0.0,0.0,0.0,0.0,0.0,0.0,0.0,0.0,0.0,0.0,0.0,0.0,0.0,0.0,0.0,0.0,0.0,0.0,0.0,0.0,0.0,0.0,0.0,0.0,0.0,0.0,0.0,0.0,0.0,0.0,0.0,0.0,0.0,0.0,0.0,0.0,0.0,0.0,0.0,0.0,0.0,0.0,0.0,0.0,0.0,0.0,0.0,0.0,0.0,0.0,0.0,0.0,0.0,0.0,0.0,0.0,0.0,0.0,0.0,0.0,0.0,0.0,0.0,0.0,0.0,0.0,0.0,0.0,0.0,0.0,0.0,0.0,0.0,0.0,0.0,0.0,0.0,0.0,0.0,0.0,0.0,0.0,0.0,0.0,0.0,0.0,0.0,0.0,0.0,0.0,0.0,0.0,0.0,0.0,0.0,0.0,0.0,0.0,0.0,0.0,0.0,0.0,0.0,0.0,0.0,0.0,0.0,0.0,0.0,0.0,0.0,0.0,0.0,0.0,0.0,0.0,0.0,0.0,0.0,0.0,0.0,0.0,0.0,0.0,0.0,0.0,0.0,0.0,0.0,0.0,0.0,0.0,0.0,0.0,0.0,0.0,0.0,0.0,0.0,0.0,0.0,0.0,0.0,0.0,0.0,0.0,0.0,0.0,0.0,0.0,0.0,0.0,0.0,0.0,0.0,0.0,0.0,0.0,0.0,0.0,0.0,0.0,0.0,0.0,0.0,0.0,0.0,0.0,0.0,0.0,0.0,0.0,0.0,0.0,0.0,0.0,0.0,0.0,0.0,0.0,0.0,0.0,0.0,0.0,0.0,0.0,0.0,0.0,0.0,0.0,0.0,0.0,0.0,0.0,0.0,0.0,0.0,0.0,0.0,0.0,0.0,0.0,0.0,0.0,0.0,0.0,0.0,0.0,0.0,0.0,0.0,0.0,0.0,0.0,0.0,0.0,0.0,0.0,0.0,0.0,0.0,0.0,0.0,0.0,0.0,0.0,0.0,0.0,0.0,0.0,0.0,0.0,0.0,0.0,0.0,0.0,0.0,0.0,0.0,0.0,0.0,0.0,0.0,0.0,0.0,0.0,0.0,0.0,0.0,0.0,0.0,0.0,0.0,0.0,0.0,0.0,0.0,0.0,0.0,0.0,0.0,0.0,0.0,0.0,0.0,0.0,0.0,0.0,0.0,0.0,0.0,0.0,0.0,0.0,0.0,0.0,0.0,0.0,0.0,0.0,0.0,0.0,0.0,0.0,0.0,0.0,0.0,0.0,0.0,0.0,0.0,0.0,0.0,0.0,0.0,0.0,0.0,0.0,0.0,0.0,0.0,0.0,0.0,0.0,0.0,0.0,0.0,0.0,0.0,0.0,0.0,0.0,0.0,0.0,0.0,0.0,0.0,0.0,0.0,0.0,0.0,0.0,0.0,0.0,0.0,0.0,0.0,0.0,0.0,0.0,0.0,0.0,0.0,0.0,0.0,0.0,0.0,0.0,0.0,0.0,0.0,0.0,0.0,0.0,0.0,0.0,0.0,0.0,0.0,0.0,0.0,0.0,0.0,0.0,0.0,0.0,0.0,0.0,0.0,0.0,0.0,0.0,0.0,0.0,0.0,0.0,0.0,0.0,0.0,0.0,0.0,0.0,0.0,0.0,0.0,0.0,0.0,0.0,0.0,0.0,0.0,0.0,0.0,0.0,0.0,0.0,0.0,0.0,0.0,0.0,0.0,0.0,0.0,0.0,0.0,0.0,0.0,0.0,0.0,0.0,0.0,0.0,0.0,0.0,0.0,0.0,0.0,0.0,0.0,0.0,0.0,0.0,0.0,0.0,0.0,0.0,0.0,0.0,0.0,0.0,0.0,0.0,0.0,0.0,0.0,0.0,0.0,0.0,0.0,0.0,0.0,0.0,0.0,0.0,0.0,0.0,0.0,0.0,0.0,0.0,0.0,0.0,0.0,0.0,0.0,0.0,0.0,0.0,0.0,0.0,0.0,0.0,0.0,0.0,0.0,0.0,0.0,0.0,0.0,0.0,0.0,0.0,0.0,0.0,0.0,0.0,0.0,0.0,0.0,0.0,0.0,0.0,0.0,0.0,0.0,0.0,0.0,0.0,0.0,0.0,0.0,0.0,0.0,0.0,0.0,0.0,0.0,0.0,0.0,0.0,0.0,0.0,0.0,0.0,0.0,0.0,0.0,0.0,0.0,0.0,0.0,0.0,0.0,0.0,0.0,0.0,0.0,0.0,0.0,0.0,0.0,0.0,0.0,0.0]}]]]